<?xml version="1.0" encoding="UTF-8" standalone="no" ?>
<gpx xmlns="http://www.topografix.com/GPX/1/1" xmlns:xsi="http://www.w3.org/2001/XMLSchema-instance" xsi:schemaLocation="http://www.topografix.com/GPX/1/1 http://www.topografix.com/GPX/1/1/gpx.xsd" version="1.1" creator="VisuGPX - https://www.visugpx.com">
  <metadata>
    <name>Roc\'n tour 2011 - 45 Km</name>
    <desc><![CDATA[Roc\'n tour 2011 - 45 Km]]></desc>
  </metadata>
  <trk>
    <name><![CDATA[2011-05-22T06:17:02Z]]></name>
    <trkseg>
      <trkpt lat="45.71573" lon="3.22301">
        <ele>339.9633789</ele>
        <time>2011-05-22T06:17:02Z</time>
      </trkpt>
      <trkpt lat="45.71573" lon="3.22301">
        <ele>339.9633789</ele>
        <time>2011-05-22T06:17:03Z</time>
      </trkpt>
      <trkpt lat="45.71574" lon="3.22301">
        <ele>339.9633789</ele>
        <time>2011-05-22T06:17:04Z</time>
      </trkpt>
      <trkpt lat="45.71579" lon="3.22304">
        <ele>339.482666</ele>
        <time>2011-05-22T06:17:09Z</time>
      </trkpt>
      <trkpt lat="45.7159" lon="3.22305">
        <ele>338.5214844</ele>
        <time>2011-05-22T06:17:14Z</time>
      </trkpt>
      <trkpt lat="45.71599" lon="3.2229">
        <ele>338.5214844</ele>
        <time>2011-05-22T06:17:19Z</time>
      </trkpt>
      <trkpt lat="45.71602" lon="3.2227">
        <ele>338.0407715</ele>
        <time>2011-05-22T06:17:25Z</time>
      </trkpt>
      <trkpt lat="45.71603" lon="3.22266">
        <ele>338.0407715</ele>
        <time>2011-05-22T06:17:26Z</time>
      </trkpt>
      <trkpt lat="45.71612" lon="3.22264">
        <ele>339.9633789</ele>
        <time>2011-05-22T06:17:30Z</time>
      </trkpt>
      <trkpt lat="45.71623" lon="3.2228">
        <ele>339.0020752</ele>
        <time>2011-05-22T06:17:34Z</time>
      </trkpt>
      <trkpt lat="45.71643" lon="3.22309">
        <ele>338.5214844</ele>
        <time>2011-05-22T06:17:40Z</time>
      </trkpt>
      <trkpt lat="45.71667" lon="3.22345">
        <ele>338.5214844</ele>
        <time>2011-05-22T06:17:47Z</time>
      </trkpt>
      <trkpt lat="45.71678" lon="3.22363">
        <ele>339.0020752</ele>
        <time>2011-05-22T06:17:51Z</time>
      </trkpt>
      <trkpt lat="45.71701" lon="3.22397">
        <ele>338.5214844</ele>
        <time>2011-05-22T06:17:58Z</time>
      </trkpt>
      <trkpt lat="45.71732" lon="3.22441">
        <ele>339.0020752</ele>
        <time>2011-05-22T06:18:06Z</time>
      </trkpt>
      <trkpt lat="45.71759" lon="3.22488">
        <ele>339.0020752</ele>
        <time>2011-05-22T06:18:13Z</time>
      </trkpt>
      <trkpt lat="45.71794" lon="3.22554">
        <ele>339.0020752</ele>
        <time>2011-05-22T06:18:23Z</time>
      </trkpt>
      <trkpt lat="45.71822" lon="3.22609">
        <ele>338.5214844</ele>
        <time>2011-05-22T06:18:31Z</time>
      </trkpt>
      <trkpt lat="45.71842" lon="3.22651">
        <ele>338.5214844</ele>
        <time>2011-05-22T06:18:37Z</time>
      </trkpt>
      <trkpt lat="45.71861" lon="3.22703">
        <ele>339.0020752</ele>
        <time>2011-05-22T06:18:44Z</time>
      </trkpt>
      <trkpt lat="45.71883" lon="3.22771">
        <ele>339.482666</ele>
        <time>2011-05-22T06:18:53Z</time>
      </trkpt>
      <trkpt lat="45.71906" lon="3.22838">
        <ele>339.9633789</ele>
        <time>2011-05-22T06:19:02Z</time>
      </trkpt>
      <trkpt lat="45.71928" lon="3.22904">
        <ele>340.9246826</ele>
        <time>2011-05-22T06:19:11Z</time>
      </trkpt>
      <trkpt lat="45.71931" lon="3.22941">
        <ele>341.4052734</ele>
        <time>2011-05-22T06:19:16Z</time>
      </trkpt>
      <trkpt lat="45.7193" lon="3.22949">
        <ele>341.4052734</ele>
        <time>2011-05-22T06:19:17Z</time>
      </trkpt>
      <trkpt lat="45.71925" lon="3.23015">
        <ele>343.3278809</ele>
        <time>2011-05-22T06:19:27Z</time>
      </trkpt>
      <trkpt lat="45.71921" lon="3.23085">
        <ele>345.2506104</ele>
        <time>2011-05-22T06:19:38Z</time>
      </trkpt>
      <trkpt lat="45.71921" lon="3.2312">
        <ele>346.692627</ele>
        <time>2011-05-22T06:19:44Z</time>
      </trkpt>
      <trkpt lat="45.71921" lon="3.23189">
        <ele>348.6152344</ele>
        <time>2011-05-22T06:19:55Z</time>
      </trkpt>
      <trkpt lat="45.71918" lon="3.23211">
        <ele>350.057251</ele>
        <time>2011-05-22T06:19:59Z</time>
      </trkpt>
      <trkpt lat="45.71903" lon="3.23244">
        <ele>351.0184326</ele>
        <time>2011-05-22T06:20:06Z</time>
      </trkpt>
      <trkpt lat="45.71877" lon="3.23284">
        <ele>352.4605713</ele>
        <time>2011-05-22T06:20:15Z</time>
      </trkpt>
      <trkpt lat="45.71842" lon="3.2333">
        <ele>352.4605713</ele>
        <time>2011-05-22T06:20:26Z</time>
      </trkpt>
      <trkpt lat="45.71816" lon="3.23374">
        <ele>354.3831787</ele>
        <time>2011-05-22T06:20:35Z</time>
      </trkpt>
      <trkpt lat="45.71804" lon="3.23414">
        <ele>354.3831787</ele>
        <time>2011-05-22T06:20:42Z</time>
      </trkpt>
      <trkpt lat="45.71796" lon="3.23461">
        <ele>355.8251953</ele>
        <time>2011-05-22T06:20:50Z</time>
      </trkpt>
      <trkpt lat="45.7179" lon="3.23498">
        <ele>356.3057861</ele>
        <time>2011-05-22T06:20:57Z</time>
      </trkpt>
      <trkpt lat="45.71786" lon="3.23516">
        <ele>356.786377</ele>
        <time>2011-05-22T06:21:00Z</time>
      </trkpt>
      <trkpt lat="45.71771" lon="3.2359">
        <ele>358.2283936</ele>
        <time>2011-05-22T06:21:12Z</time>
      </trkpt>
      <trkpt lat="45.71759" lon="3.23656">
        <ele>361.1124268</ele>
        <time>2011-05-22T06:21:23Z</time>
      </trkpt>
      <trkpt lat="45.71747" lon="3.23721">
        <ele>362.5543213</ele>
        <time>2011-05-22T06:21:34Z</time>
      </trkpt>
      <trkpt lat="45.71736" lon="3.23776">
        <ele>363.5157471</ele>
        <time>2011-05-22T06:21:43Z</time>
      </trkpt>
      <trkpt lat="45.71728" lon="3.23819">
        <ele>364.4769287</ele>
        <time>2011-05-22T06:21:51Z</time>
      </trkpt>
      <trkpt lat="45.71721" lon="3.2386">
        <ele>367.8415527</ele>
        <time>2011-05-22T06:21:59Z</time>
      </trkpt>
      <trkpt lat="45.71712" lon="3.23906">
        <ele>369.2836914</ele>
        <time>2011-05-22T06:22:09Z</time>
      </trkpt>
      <trkpt lat="45.71711" lon="3.23914">
        <ele>370.244873</ele>
        <time>2011-05-22T06:22:11Z</time>
      </trkpt>
      <trkpt lat="45.71705" lon="3.23946">
        <ele>372.1674805</ele>
        <time>2011-05-22T06:22:19Z</time>
      </trkpt>
      <trkpt lat="45.71696" lon="3.23991">
        <ele>375.5321045</ele>
        <time>2011-05-22T06:22:30Z</time>
      </trkpt>
      <trkpt lat="45.71691" lon="3.24021">
        <ele>378.4161377</ele>
        <time>2011-05-22T06:22:38Z</time>
      </trkpt>
      <trkpt lat="45.71685" lon="3.24049">
        <ele>378.8968506</ele>
        <time>2011-05-22T06:22:46Z</time>
      </trkpt>
      <trkpt lat="45.71679" lon="3.24081">
        <ele>381.3000488</ele>
        <time>2011-05-22T06:22:55Z</time>
      </trkpt>
      <trkpt lat="45.71674" lon="3.24105">
        <ele>384.6647949</ele>
        <time>2011-05-22T06:23:02Z</time>
      </trkpt>
      <trkpt lat="45.71671" lon="3.24133">
        <ele>386.5874023</ele>
        <time>2011-05-22T06:23:10Z</time>
      </trkpt>
      <trkpt lat="45.71667" lon="3.24157">
        <ele>389.9519043</ele>
        <time>2011-05-22T06:23:18Z</time>
      </trkpt>
      <trkpt lat="45.71659" lon="3.24168">
        <ele>390.4326172</ele>
        <time>2011-05-22T06:23:23Z</time>
      </trkpt>
      <trkpt lat="45.71634" lon="3.24183">
        <ele>392.3553467</ele>
        <time>2011-05-22T06:23:33Z</time>
      </trkpt>
      <trkpt lat="45.71614" lon="3.24199">
        <ele>393.3165283</ele>
        <time>2011-05-22T06:23:41Z</time>
      </trkpt>
      <trkpt lat="45.71596" lon="3.24216">
        <ele>395.2391357</ele>
        <time>2011-05-22T06:23:49Z</time>
      </trkpt>
      <trkpt lat="45.71579" lon="3.24244">
        <ele>397.1617432</ele>
        <time>2011-05-22T06:23:58Z</time>
      </trkpt>
      <trkpt lat="45.71564" lon="3.24269">
        <ele>397.6424561</ele>
        <time>2011-05-22T06:24:05Z</time>
      </trkpt>
      <trkpt lat="45.7154" lon="3.2431">
        <ele>399.0843506</ele>
        <time>2011-05-22T06:24:16Z</time>
      </trkpt>
      <trkpt lat="45.71517" lon="3.24353">
        <ele>400.5264893</ele>
        <time>2011-05-22T06:24:27Z</time>
      </trkpt>
      <trkpt lat="45.71499" lon="3.24386">
        <ele>402.4490967</ele>
        <time>2011-05-22T06:24:36Z</time>
      </trkpt>
      <trkpt lat="45.71487" lon="3.24401">
        <ele>403.8911133</ele>
        <time>2011-05-22T06:24:41Z</time>
      </trkpt>
      <trkpt lat="45.71473" lon="3.24428">
        <ele>405.3330078</ele>
        <time>2011-05-22T06:24:48Z</time>
      </trkpt>
      <trkpt lat="45.71471" lon="3.24432">
        <ele>405.8137207</ele>
        <time>2011-05-22T06:24:49Z</time>
      </trkpt>
      <trkpt lat="45.7146" lon="3.24454">
        <ele>406.2943115</ele>
        <time>2011-05-22T06:24:55Z</time>
      </trkpt>
      <trkpt lat="45.71445" lon="3.24485">
        <ele>407.2556152</ele>
        <time>2011-05-22T06:25:03Z</time>
      </trkpt>
      <trkpt lat="45.71434" lon="3.24525">
        <ele>409.1783447</ele>
        <time>2011-05-22T06:25:12Z</time>
      </trkpt>
      <trkpt lat="45.71432" lon="3.24551">
        <ele>409.6590576</ele>
        <time>2011-05-22T06:25:17Z</time>
      </trkpt>
      <trkpt lat="45.71424" lon="3.24596">
        <ele>409.6590576</ele>
        <time>2011-05-22T06:25:25Z</time>
      </trkpt>
      <trkpt lat="45.71407" lon="3.24652">
        <ele>410.6202393</ele>
        <time>2011-05-22T06:25:35Z</time>
      </trkpt>
      <trkpt lat="45.71396" lon="3.24685">
        <ele>411.1009521</ele>
        <time>2011-05-22T06:25:41Z</time>
      </trkpt>
      <trkpt lat="45.71381" lon="3.24727">
        <ele>413.0235596</ele>
        <time>2011-05-22T06:25:49Z</time>
      </trkpt>
      <trkpt lat="45.7137" lon="3.24761">
        <ele>414.4654541</ele>
        <time>2011-05-22T06:25:56Z</time>
      </trkpt>
      <trkpt lat="45.71358" lon="3.24791">
        <ele>415.4268799</ele>
        <time>2011-05-22T06:26:03Z</time>
      </trkpt>
      <trkpt lat="45.71346" lon="3.24823">
        <ele>416.8688965</ele>
        <time>2011-05-22T06:26:10Z</time>
      </trkpt>
      <trkpt lat="45.71328" lon="3.24859">
        <ele>419.2722168</ele>
        <time>2011-05-22T06:26:19Z</time>
      </trkpt>
      <trkpt lat="45.71308" lon="3.24895">
        <ele>420.2333984</ele>
        <time>2011-05-22T06:26:29Z</time>
      </trkpt>
      <trkpt lat="45.71288" lon="3.24926">
        <ele>422.1560059</ele>
        <time>2011-05-22T06:26:38Z</time>
      </trkpt>
      <trkpt lat="45.71267" lon="3.24949">
        <ele>423.5980225</ele>
        <time>2011-05-22T06:26:46Z</time>
      </trkpt>
      <trkpt lat="45.7125" lon="3.24964">
        <ele>425.520752</ele>
        <time>2011-05-22T06:26:52Z</time>
      </trkpt>
      <trkpt lat="45.71222" lon="3.24986">
        <ele>426.0013428</ele>
        <time>2011-05-22T06:27:02Z</time>
      </trkpt>
      <trkpt lat="45.71199" lon="3.25006">
        <ele>428.4046631</ele>
        <time>2011-05-22T06:27:11Z</time>
      </trkpt>
      <trkpt lat="45.71181" lon="3.25024">
        <ele>431.2885742</ele>
        <time>2011-05-22T06:27:18Z</time>
      </trkpt>
      <trkpt lat="45.71162" lon="3.25038">
        <ele>432.25</ele>
        <time>2011-05-22T06:27:25Z</time>
      </trkpt>
      <trkpt lat="45.71146" lon="3.25052">
        <ele>433.2113037</ele>
        <time>2011-05-22T06:27:31Z</time>
      </trkpt>
      <trkpt lat="45.71126" lon="3.25066">
        <ele>434.6533203</ele>
        <time>2011-05-22T06:27:38Z</time>
      </trkpt>
      <trkpt lat="45.71105" lon="3.25076">
        <ele>436.0952148</ele>
        <time>2011-05-22T06:27:45Z</time>
      </trkpt>
      <trkpt lat="45.71092" lon="3.25086">
        <ele>437.5371094</ele>
        <time>2011-05-22T06:27:50Z</time>
      </trkpt>
      <trkpt lat="45.71088" lon="3.25102">
        <ele>438.0178223</ele>
        <time>2011-05-22T06:27:54Z</time>
      </trkpt>
      <trkpt lat="45.71086" lon="3.25151">
        <ele>437.5371094</ele>
        <time>2011-05-22T06:28:03Z</time>
      </trkpt>
      <trkpt lat="45.71089" lon="3.25185">
        <ele>437.5371094</ele>
        <time>2011-05-22T06:28:10Z</time>
      </trkpt>
      <trkpt lat="45.7109" lon="3.25194">
        <ele>438.0178223</ele>
        <time>2011-05-22T06:28:13Z</time>
      </trkpt>
      <trkpt lat="45.71092" lon="3.25202">
        <ele>437.5371094</ele>
        <time>2011-05-22T06:28:16Z</time>
      </trkpt>
      <trkpt lat="45.71093" lon="3.25207">
        <ele>437.5371094</ele>
        <time>2011-05-22T06:28:17Z</time>
      </trkpt>
      <trkpt lat="45.71085" lon="3.25239">
        <ele>436.5759277</ele>
        <time>2011-05-22T06:28:22Z</time>
      </trkpt>
      <trkpt lat="45.71068" lon="3.253">
        <ele>434.1726074</ele>
        <time>2011-05-22T06:28:31Z</time>
      </trkpt>
      <trkpt lat="45.71062" lon="3.25316">
        <ele>432.7307129</ele>
        <time>2011-05-22T06:28:33Z</time>
      </trkpt>
      <trkpt lat="45.71048" lon="3.25353">
        <ele>429.3659668</ele>
        <time>2011-05-22T06:28:37Z</time>
      </trkpt>
      <trkpt lat="45.71033" lon="3.25396">
        <ele>426.4820557</ele>
        <time>2011-05-22T06:28:41Z</time>
      </trkpt>
      <trkpt lat="45.71028" lon="3.25407">
        <ele>426.4820557</ele>
        <time>2011-05-22T06:28:42Z</time>
      </trkpt>
      <trkpt lat="45.71012" lon="3.25463">
        <ele>426.0013428</ele>
        <time>2011-05-22T06:28:47Z</time>
      </trkpt>
      <trkpt lat="45.71006" lon="3.25515">
        <ele>425.520752</ele>
        <time>2011-05-22T06:28:52Z</time>
      </trkpt>
      <trkpt lat="45.71006" lon="3.25543">
        <ele>426.0013428</ele>
        <time>2011-05-22T06:28:55Z</time>
      </trkpt>
      <trkpt lat="45.71004" lon="3.25612">
        <ele>426.9627686</ele>
        <time>2011-05-22T06:29:03Z</time>
      </trkpt>
      <trkpt lat="45.70996" lon="3.25696">
        <ele>426.4820557</ele>
        <time>2011-05-22T06:29:13Z</time>
      </trkpt>
      <trkpt lat="45.70993" lon="3.25722">
        <ele>426.4820557</ele>
        <time>2011-05-22T06:29:16Z</time>
      </trkpt>
      <trkpt lat="45.70992" lon="3.25769">
        <ele>427.4433594</ele>
        <time>2011-05-22T06:29:22Z</time>
      </trkpt>
      <trkpt lat="45.70994" lon="3.25778">
        <ele>427.4433594</ele>
        <time>2011-05-22T06:29:25Z</time>
      </trkpt>
      <trkpt lat="45.70991" lon="3.25796">
        <ele>426.0013428</ele>
        <time>2011-05-22T06:29:29Z</time>
      </trkpt>
      <trkpt lat="45.70988" lon="3.25811">
        <ele>425.520752</ele>
        <time>2011-05-22T06:29:31Z</time>
      </trkpt>
      <trkpt lat="45.70965" lon="3.25881">
        <ele>425.520752</ele>
        <time>2011-05-22T06:29:40Z</time>
      </trkpt>
      <trkpt lat="45.70938" lon="3.25962">
        <ele>424.5594482</ele>
        <time>2011-05-22T06:29:50Z</time>
      </trkpt>
      <trkpt lat="45.70915" lon="3.26029">
        <ele>425.0401611</ele>
        <time>2011-05-22T06:29:59Z</time>
      </trkpt>
      <trkpt lat="45.70886" lon="3.26094">
        <ele>424.0787354</ele>
        <time>2011-05-22T06:30:08Z</time>
      </trkpt>
      <trkpt lat="45.70866" lon="3.26139">
        <ele>421.1948242</ele>
        <time>2011-05-22T06:30:14Z</time>
      </trkpt>
      <trkpt lat="45.70862" lon="3.26146">
        <ele>420.2333984</ele>
        <time>2011-05-22T06:30:15Z</time>
      </trkpt>
      <trkpt lat="45.70845" lon="3.26165">
        <ele>416.8688965</ele>
        <time>2011-05-22T06:30:18Z</time>
      </trkpt>
      <trkpt lat="45.70833" lon="3.26174">
        <ele>415.9074707</ele>
        <time>2011-05-22T06:30:20Z</time>
      </trkpt>
      <trkpt lat="45.70828" lon="3.26178">
        <ele>415.4268799</ele>
        <time>2011-05-22T06:30:21Z</time>
      </trkpt>
      <trkpt lat="45.70819" lon="3.26187">
        <ele>415.4268799</ele>
        <time>2011-05-22T06:30:23Z</time>
      </trkpt>
      <trkpt lat="45.70783" lon="3.26205">
        <ele>414.4654541</ele>
        <time>2011-05-22T06:30:30Z</time>
      </trkpt>
      <trkpt lat="45.70773" lon="3.26207">
        <ele>414.4654541</ele>
        <time>2011-05-22T06:30:32Z</time>
      </trkpt>
      <trkpt lat="45.70768" lon="3.26216">
        <ele>415.9074707</ele>
        <time>2011-05-22T06:30:35Z</time>
      </trkpt>
      <trkpt lat="45.70769" lon="3.26226">
        <ele>416.3881836</ele>
        <time>2011-05-22T06:30:38Z</time>
      </trkpt>
      <trkpt lat="45.70762" lon="3.26261">
        <ele>416.8688965</ele>
        <time>2011-05-22T06:30:45Z</time>
      </trkpt>
      <trkpt lat="45.70758" lon="3.26282">
        <ele>417.8302002</ele>
        <time>2011-05-22T06:30:49Z</time>
      </trkpt>
      <trkpt lat="45.70756" lon="3.26301">
        <ele>419.2722168</ele>
        <time>2011-05-22T06:30:53Z</time>
      </trkpt>
      <trkpt lat="45.70754" lon="3.26315">
        <ele>419.7528076</ele>
        <time>2011-05-22T06:30:56Z</time>
      </trkpt>
      <trkpt lat="45.70751" lon="3.26332">
        <ele>421.675415</ele>
        <time>2011-05-22T06:31:00Z</time>
      </trkpt>
      <trkpt lat="45.70749" lon="3.26346">
        <ele>422.6367188</ele>
        <time>2011-05-22T06:31:03Z</time>
      </trkpt>
      <trkpt lat="45.70748" lon="3.2636">
        <ele>424.0787354</ele>
        <time>2011-05-22T06:31:06Z</time>
      </trkpt>
      <trkpt lat="45.70747" lon="3.26387">
        <ele>425.0401611</ele>
        <time>2011-05-22T06:31:12Z</time>
      </trkpt>
      <trkpt lat="45.70747" lon="3.26405">
        <ele>426.0013428</ele>
        <time>2011-05-22T06:31:16Z</time>
      </trkpt>
      <trkpt lat="45.70745" lon="3.26441">
        <ele>425.520752</ele>
        <time>2011-05-22T06:31:24Z</time>
      </trkpt>
      <trkpt lat="45.70745" lon="3.26452">
        <ele>424.0787354</ele>
        <time>2011-05-22T06:31:26Z</time>
      </trkpt>
      <trkpt lat="45.70743" lon="3.26475">
        <ele>422.6367188</ele>
        <time>2011-05-22T06:31:29Z</time>
      </trkpt>
      <trkpt lat="45.70741" lon="3.26494">
        <ele>419.7528076</ele>
        <time>2011-05-22T06:31:31Z</time>
      </trkpt>
      <trkpt lat="45.70738" lon="3.26529">
        <ele>416.8688965</ele>
        <time>2011-05-22T06:31:34Z</time>
      </trkpt>
      <trkpt lat="45.70737" lon="3.2654">
        <ele>416.8688965</ele>
        <time>2011-05-22T06:31:35Z</time>
      </trkpt>
      <trkpt lat="45.70741" lon="3.26583">
        <ele>416.8688965</ele>
        <time>2011-05-22T06:31:39Z</time>
      </trkpt>
      <trkpt lat="45.70751" lon="3.26631">
        <ele>419.2722168</ele>
        <time>2011-05-22T06:31:45Z</time>
      </trkpt>
      <trkpt lat="45.70759" lon="3.26659">
        <ele>420.7141113</ele>
        <time>2011-05-22T06:31:50Z</time>
      </trkpt>
      <trkpt lat="45.70771" lon="3.26702">
        <ele>423.5980225</ele>
        <time>2011-05-22T06:31:59Z</time>
      </trkpt>
      <trkpt lat="45.70779" lon="3.26733">
        <ele>424.5594482</ele>
        <time>2011-05-22T06:32:06Z</time>
      </trkpt>
      <trkpt lat="45.70785" lon="3.26755">
        <ele>425.520752</ele>
        <time>2011-05-22T06:32:11Z</time>
      </trkpt>
      <trkpt lat="45.70795" lon="3.2678">
        <ele>426.4820557</ele>
        <time>2011-05-22T06:32:17Z</time>
      </trkpt>
      <trkpt lat="45.70805" lon="3.26804">
        <ele>428.885376</ele>
        <time>2011-05-22T06:32:23Z</time>
      </trkpt>
      <trkpt lat="45.70813" lon="3.26829">
        <ele>430.8079834</ele>
        <time>2011-05-22T06:32:29Z</time>
      </trkpt>
      <trkpt lat="45.70825" lon="3.26861">
        <ele>432.7307129</ele>
        <time>2011-05-22T06:32:37Z</time>
      </trkpt>
      <trkpt lat="45.7084" lon="3.26891">
        <ele>434.6533203</ele>
        <time>2011-05-22T06:32:45Z</time>
      </trkpt>
      <trkpt lat="45.70859" lon="3.2692">
        <ele>435.614502</ele>
        <time>2011-05-22T06:32:53Z</time>
      </trkpt>
      <trkpt lat="45.70865" lon="3.2693">
        <ele>436.0952148</ele>
        <time>2011-05-22T06:32:56Z</time>
      </trkpt>
      <trkpt lat="45.70859" lon="3.26934">
        <ele>437.0565186</ele>
        <time>2011-05-22T06:33:00Z</time>
      </trkpt>
      <trkpt lat="45.70856" lon="3.26932">
        <ele>437.0565186</ele>
        <time>2011-05-22T06:33:01Z</time>
      </trkpt>
      <trkpt lat="45.70836" lon="3.26909">
        <ele>438.0178223</ele>
        <time>2011-05-22T06:33:08Z</time>
      </trkpt>
      <trkpt lat="45.70809" lon="3.26891">
        <ele>438.4985352</ele>
        <time>2011-05-22T06:33:15Z</time>
      </trkpt>
      <trkpt lat="45.70767" lon="3.26856">
        <ele>438.979126</ele>
        <time>2011-05-22T06:33:26Z</time>
      </trkpt>
      <trkpt lat="45.70728" lon="3.26823">
        <ele>441.3824463</ele>
        <time>2011-05-22T06:33:36Z</time>
      </trkpt>
      <trkpt lat="45.70694" lon="3.26795">
        <ele>442.8244629</ele>
        <time>2011-05-22T06:33:45Z</time>
      </trkpt>
      <trkpt lat="45.70668" lon="3.2678">
        <ele>443.7857666</ele>
        <time>2011-05-22T06:33:52Z</time>
      </trkpt>
      <trkpt lat="45.70631" lon="3.26767">
        <ele>445.708374</ele>
        <time>2011-05-22T06:34:02Z</time>
      </trkpt>
      <trkpt lat="45.70605" lon="3.26761">
        <ele>447.6309814</ele>
        <time>2011-05-22T06:34:09Z</time>
      </trkpt>
      <trkpt lat="45.70577" lon="3.26747">
        <ele>449.5537109</ele>
        <time>2011-05-22T06:34:17Z</time>
      </trkpt>
      <trkpt lat="45.70546" lon="3.26726">
        <ele>451.4763184</ele>
        <time>2011-05-22T06:34:26Z</time>
      </trkpt>
      <trkpt lat="45.70517" lon="3.26698">
        <ele>453.3989258</ele>
        <time>2011-05-22T06:34:35Z</time>
      </trkpt>
      <trkpt lat="45.70492" lon="3.26671">
        <ele>453.8796387</ele>
        <time>2011-05-22T06:34:43Z</time>
      </trkpt>
      <trkpt lat="45.70486" lon="3.26663">
        <ele>454.3602295</ele>
        <time>2011-05-22T06:34:45Z</time>
      </trkpt>
      <trkpt lat="45.70472" lon="3.26648">
        <ele>454.8408203</ele>
        <time>2011-05-22T06:34:49Z</time>
      </trkpt>
      <trkpt lat="45.70449" lon="3.26623">
        <ele>454.3602295</ele>
        <time>2011-05-22T06:34:55Z</time>
      </trkpt>
      <trkpt lat="45.70424" lon="3.26597">
        <ele>453.8796387</ele>
        <time>2011-05-22T06:35:01Z</time>
      </trkpt>
      <trkpt lat="45.70394" lon="3.26569">
        <ele>454.3602295</ele>
        <time>2011-05-22T06:35:08Z</time>
      </trkpt>
      <trkpt lat="45.70361" lon="3.26543">
        <ele>456.282959</ele>
        <time>2011-05-22T06:35:16Z</time>
      </trkpt>
      <trkpt lat="45.70337" lon="3.26526">
        <ele>457.7249756</ele>
        <time>2011-05-22T06:35:23Z</time>
      </trkpt>
      <trkpt lat="45.70319" lon="3.26512">
        <ele>459.647583</ele>
        <time>2011-05-22T06:35:29Z</time>
      </trkpt>
      <trkpt lat="45.70291" lon="3.26489">
        <ele>462.0507813</ele>
        <time>2011-05-22T06:35:38Z</time>
      </trkpt>
      <trkpt lat="45.70271" lon="3.2647">
        <ele>463.9733887</ele>
        <time>2011-05-22T06:35:46Z</time>
      </trkpt>
      <trkpt lat="45.70252" lon="3.2644">
        <ele>466.376709</ele>
        <time>2011-05-22T06:35:55Z</time>
      </trkpt>
      <trkpt lat="45.70236" lon="3.26404">
        <ele>466.376709</ele>
        <time>2011-05-22T06:36:04Z</time>
      </trkpt>
      <trkpt lat="45.70224" lon="3.26386">
        <ele>463.9733887</ele>
        <time>2011-05-22T06:36:08Z</time>
      </trkpt>
      <trkpt lat="45.7021" lon="3.26371">
        <ele>462.0507813</ele>
        <time>2011-05-22T06:36:11Z</time>
      </trkpt>
      <trkpt lat="45.70192" lon="3.26365">
        <ele>463.4927979</ele>
        <time>2011-05-22T06:36:15Z</time>
      </trkpt>
      <trkpt lat="45.70188" lon="3.26366">
        <ele>463.4927979</ele>
        <time>2011-05-22T06:36:16Z</time>
      </trkpt>
      <trkpt lat="45.70154" lon="3.26371">
        <ele>466.376709</ele>
        <time>2011-05-22T06:36:26Z</time>
      </trkpt>
      <trkpt lat="45.70136" lon="3.2637">
        <ele>467.8187256</ele>
        <time>2011-05-22T06:36:32Z</time>
      </trkpt>
      <trkpt lat="45.70109" lon="3.26366">
        <ele>469.741333</ele>
        <time>2011-05-22T06:36:40Z</time>
      </trkpt>
      <trkpt lat="45.7008" lon="3.26368">
        <ele>470.2219238</ele>
        <time>2011-05-22T06:36:49Z</time>
      </trkpt>
      <trkpt lat="45.70075" lon="3.26381">
        <ele>471.1833496</ele>
        <time>2011-05-22T06:36:53Z</time>
      </trkpt>
      <trkpt lat="45.70077" lon="3.26384">
        <ele>471.1833496</ele>
        <time>2011-05-22T06:36:54Z</time>
      </trkpt>
      <trkpt lat="45.70089" lon="3.26414">
        <ele>469.741333</ele>
        <time>2011-05-22T06:37:00Z</time>
      </trkpt>
      <trkpt lat="45.70099" lon="3.26449">
        <ele>468.7800293</ele>
        <time>2011-05-22T06:37:05Z</time>
      </trkpt>
      <trkpt lat="45.70111" lon="3.26499">
        <ele>466.8574219</ele>
        <time>2011-05-22T06:37:11Z</time>
      </trkpt>
      <trkpt lat="45.70116" lon="3.26536">
        <ele>464.9348145</ele>
        <time>2011-05-22T06:37:15Z</time>
      </trkpt>
      <trkpt lat="45.70117" lon="3.26545">
        <ele>463.9733887</ele>
        <time>2011-05-22T06:37:16Z</time>
      </trkpt>
      <trkpt lat="45.7012" lon="3.26587">
        <ele>460.6087646</ele>
        <time>2011-05-22T06:37:20Z</time>
      </trkpt>
      <trkpt lat="45.70122" lon="3.2662">
        <ele>459.1668701</ele>
        <time>2011-05-22T06:37:23Z</time>
      </trkpt>
      <trkpt lat="45.70123" lon="3.2663">
        <ele>458.6861572</ele>
        <time>2011-05-22T06:37:24Z</time>
      </trkpt>
      <trkpt lat="45.70124" lon="3.26641">
        <ele>458.2055664</ele>
        <time>2011-05-22T06:37:25Z</time>
      </trkpt>
      <trkpt lat="45.70126" lon="3.26663">
        <ele>456.7635498</ele>
        <time>2011-05-22T06:37:27Z</time>
      </trkpt>
      <trkpt lat="45.70124" lon="3.26705">
        <ele>457.2442627</ele>
        <time>2011-05-22T06:37:31Z</time>
      </trkpt>
      <trkpt lat="45.7013" lon="3.26736">
        <ele>456.7635498</ele>
        <time>2011-05-22T06:37:35Z</time>
      </trkpt>
      <trkpt lat="45.70148" lon="3.26794">
        <ele>457.2442627</ele>
        <time>2011-05-22T06:37:43Z</time>
      </trkpt>
      <trkpt lat="45.70157" lon="3.26842">
        <ele>458.2055664</ele>
        <time>2011-05-22T06:37:50Z</time>
      </trkpt>
      <trkpt lat="45.70161" lon="3.26866">
        <ele>459.647583</ele>
        <time>2011-05-22T06:37:54Z</time>
      </trkpt>
      <trkpt lat="45.70163" lon="3.26877">
        <ele>460.6087646</ele>
        <time>2011-05-22T06:37:56Z</time>
      </trkpt>
      <trkpt lat="45.70165" lon="3.26906">
        <ele>462.0507813</ele>
        <time>2011-05-22T06:38:01Z</time>
      </trkpt>
      <trkpt lat="45.70164" lon="3.26923">
        <ele>462.5313721</ele>
        <time>2011-05-22T06:38:04Z</time>
      </trkpt>
      <trkpt lat="45.70162" lon="3.26934">
        <ele>463.9733887</ele>
        <time>2011-05-22T06:38:06Z</time>
      </trkpt>
      <trkpt lat="45.70158" lon="3.26955">
        <ele>465.4155273</ele>
        <time>2011-05-22T06:38:10Z</time>
      </trkpt>
      <trkpt lat="45.70157" lon="3.2696">
        <ele>465.8961182</ele>
        <time>2011-05-22T06:38:11Z</time>
      </trkpt>
      <trkpt lat="45.70147" lon="3.27001">
        <ele>466.8574219</ele>
        <time>2011-05-22T06:38:19Z</time>
      </trkpt>
      <trkpt lat="45.70139" lon="3.27037">
        <ele>468.2993164</ele>
        <time>2011-05-22T06:38:26Z</time>
      </trkpt>
      <trkpt lat="45.70129" lon="3.27079">
        <ele>469.741333</ele>
        <time>2011-05-22T06:38:34Z</time>
      </trkpt>
      <trkpt lat="45.70117" lon="3.27126">
        <ele>470.7026367</ele>
        <time>2011-05-22T06:38:43Z</time>
      </trkpt>
      <trkpt lat="45.70106" lon="3.27162">
        <ele>470.7026367</ele>
        <time>2011-05-22T06:38:50Z</time>
      </trkpt>
      <trkpt lat="45.70095" lon="3.27204">
        <ele>472.6253662</ele>
        <time>2011-05-22T06:38:58Z</time>
      </trkpt>
      <trkpt lat="45.7009" lon="3.27248">
        <ele>472.6253662</ele>
        <time>2011-05-22T06:39:06Z</time>
      </trkpt>
      <trkpt lat="45.70082" lon="3.27286">
        <ele>472.6253662</ele>
        <time>2011-05-22T06:39:13Z</time>
      </trkpt>
      <trkpt lat="45.70077" lon="3.27337">
        <ele>473.1060791</ele>
        <time>2011-05-22T06:39:22Z</time>
      </trkpt>
      <trkpt lat="45.7008" lon="3.27365">
        <ele>474.0672607</ele>
        <time>2011-05-22T06:39:27Z</time>
      </trkpt>
      <trkpt lat="45.70089" lon="3.27411">
        <ele>475.5092773</ele>
        <time>2011-05-22T06:39:36Z</time>
      </trkpt>
      <trkpt lat="45.70096" lon="3.27449">
        <ele>477.4318848</ele>
        <time>2011-05-22T06:39:45Z</time>
      </trkpt>
      <trkpt lat="45.70103" lon="3.27472">
        <ele>478.8739014</ele>
        <time>2011-05-22T06:39:51Z</time>
      </trkpt>
      <trkpt lat="45.70111" lon="3.27498">
        <ele>481.2772217</ele>
        <time>2011-05-22T06:39:58Z</time>
      </trkpt>
      <trkpt lat="45.70118" lon="3.27521">
        <ele>484.1611328</ele>
        <time>2011-05-22T06:40:05Z</time>
      </trkpt>
      <trkpt lat="45.70119" lon="3.27528">
        <ele>485.1224365</ele>
        <time>2011-05-22T06:40:07Z</time>
      </trkpt>
      <trkpt lat="45.70124" lon="3.27558">
        <ele>486.0837402</ele>
        <time>2011-05-22T06:40:15Z</time>
      </trkpt>
      <trkpt lat="45.70126" lon="3.27573">
        <ele>488.0064697</ele>
        <time>2011-05-22T06:40:19Z</time>
      </trkpt>
      <trkpt lat="45.70127" lon="3.27607">
        <ele>490.40979</ele>
        <time>2011-05-22T06:40:28Z</time>
      </trkpt>
      <trkpt lat="45.70126" lon="3.27641">
        <ele>491.3709717</ele>
        <time>2011-05-22T06:40:37Z</time>
      </trkpt>
      <trkpt lat="45.70122" lon="3.27678">
        <ele>490.40979</ele>
        <time>2011-05-22T06:40:45Z</time>
      </trkpt>
      <trkpt lat="45.70111" lon="3.27717">
        <ele>489.9290771</ele>
        <time>2011-05-22T06:40:52Z</time>
      </trkpt>
      <trkpt lat="45.70102" lon="3.27736">
        <ele>490.40979</ele>
        <time>2011-05-22T06:40:56Z</time>
      </trkpt>
      <trkpt lat="45.70091" lon="3.27762">
        <ele>490.40979</ele>
        <time>2011-05-22T06:41:02Z</time>
      </trkpt>
      <trkpt lat="45.70076" lon="3.27764">
        <ele>489.4483643</ele>
        <time>2011-05-22T06:41:06Z</time>
      </trkpt>
      <trkpt lat="45.70067" lon="3.27763">
        <ele>488.4871826</ele>
        <time>2011-05-22T06:41:08Z</time>
      </trkpt>
      <trkpt lat="45.70055" lon="3.27761">
        <ele>487.0450439</ele>
        <time>2011-05-22T06:41:10Z</time>
      </trkpt>
      <trkpt lat="45.70042" lon="3.27759">
        <ele>485.6030273</ele>
        <time>2011-05-22T06:41:12Z</time>
      </trkpt>
      <trkpt lat="45.70036" lon="3.27757">
        <ele>485.6030273</ele>
        <time>2011-05-22T06:41:13Z</time>
      </trkpt>
      <trkpt lat="45.70004" lon="3.27748">
        <ele>485.6030273</ele>
        <time>2011-05-22T06:41:18Z</time>
      </trkpt>
      <trkpt lat="45.69988" lon="3.27742">
        <ele>486.0837402</ele>
        <time>2011-05-22T06:41:21Z</time>
      </trkpt>
      <trkpt lat="45.69974" lon="3.27738">
        <ele>486.5644531</ele>
        <time>2011-05-22T06:41:24Z</time>
      </trkpt>
      <trkpt lat="45.6996" lon="3.27744">
        <ele>486.0837402</ele>
        <time>2011-05-22T06:41:28Z</time>
      </trkpt>
      <trkpt lat="45.6996" lon="3.27757">
        <ele>485.1224365</ele>
        <time>2011-05-22T06:41:30Z</time>
      </trkpt>
      <trkpt lat="45.69963" lon="3.27779">
        <ele>484.1611328</ele>
        <time>2011-05-22T06:41:33Z</time>
      </trkpt>
      <trkpt lat="45.69974" lon="3.27811">
        <ele>483.6804199</ele>
        <time>2011-05-22T06:41:38Z</time>
      </trkpt>
      <trkpt lat="45.69978" lon="3.27816">
        <ele>483.6804199</ele>
        <time>2011-05-22T06:41:39Z</time>
      </trkpt>
      <trkpt lat="45.70019" lon="3.27861">
        <ele>482.2385254</ele>
        <time>2011-05-22T06:41:48Z</time>
      </trkpt>
      <trkpt lat="45.70052" lon="3.27913">
        <ele>480.7966309</ele>
        <time>2011-05-22T06:41:56Z</time>
      </trkpt>
      <trkpt lat="45.7009" lon="3.27971">
        <ele>481.7578125</ele>
        <time>2011-05-22T06:42:06Z</time>
      </trkpt>
      <trkpt lat="45.70096" lon="3.27982">
        <ele>482.7192383</ele>
        <time>2011-05-22T06:42:08Z</time>
      </trkpt>
      <trkpt lat="45.70117" lon="3.28016">
        <ele>486.0837402</ele>
        <time>2011-05-22T06:42:15Z</time>
      </trkpt>
      <trkpt lat="45.7012" lon="3.28021">
        <ele>486.0837402</ele>
        <time>2011-05-22T06:42:16Z</time>
      </trkpt>
      <trkpt lat="45.70126" lon="3.28036">
        <ele>487.5256348</ele>
        <time>2011-05-22T06:42:19Z</time>
      </trkpt>
      <trkpt lat="45.70129" lon="3.28046">
        <ele>487.5256348</ele>
        <time>2011-05-22T06:42:21Z</time>
      </trkpt>
      <trkpt lat="45.70131" lon="3.28071">
        <ele>488.4871826</ele>
        <time>2011-05-22T06:42:25Z</time>
      </trkpt>
      <trkpt lat="45.70131" lon="3.28083">
        <ele>488.9677734</ele>
        <time>2011-05-22T06:42:27Z</time>
      </trkpt>
      <trkpt lat="45.70131" lon="3.28128">
        <ele>488.0064697</ele>
        <time>2011-05-22T06:42:34Z</time>
      </trkpt>
      <trkpt lat="45.70135" lon="3.28189">
        <ele>487.5256348</ele>
        <time>2011-05-22T06:42:42Z</time>
      </trkpt>
      <trkpt lat="45.70146" lon="3.28267">
        <ele>486.5644531</ele>
        <time>2011-05-22T06:42:52Z</time>
      </trkpt>
      <trkpt lat="45.70155" lon="3.28321">
        <ele>487.0450439</ele>
        <time>2011-05-22T06:42:59Z</time>
      </trkpt>
      <trkpt lat="45.70151" lon="3.28379">
        <ele>487.5256348</ele>
        <time>2011-05-22T06:43:07Z</time>
      </trkpt>
      <trkpt lat="45.70149" lon="3.28404">
        <ele>487.0450439</ele>
        <time>2011-05-22T06:43:11Z</time>
      </trkpt>
      <trkpt lat="45.70148" lon="3.28417">
        <ele>486.5644531</ele>
        <time>2011-05-22T06:43:13Z</time>
      </trkpt>
      <trkpt lat="45.70147" lon="3.28439">
        <ele>485.6030273</ele>
        <time>2011-05-22T06:43:16Z</time>
      </trkpt>
      <trkpt lat="45.70145" lon="3.28466">
        <ele>482.7192383</ele>
        <time>2011-05-22T06:43:19Z</time>
      </trkpt>
      <trkpt lat="45.7014" lon="3.28494">
        <ele>479.3544922</ele>
        <time>2011-05-22T06:43:22Z</time>
      </trkpt>
      <trkpt lat="45.70126" lon="3.28528">
        <ele>479.835083</ele>
        <time>2011-05-22T06:43:26Z</time>
      </trkpt>
      <trkpt lat="45.70122" lon="3.28534">
        <ele>480.7966309</ele>
        <time>2011-05-22T06:43:28Z</time>
      </trkpt>
      <trkpt lat="45.70122" lon="3.28531">
        <ele>480.7966309</ele>
        <time>2011-05-22T06:43:30Z</time>
      </trkpt>
      <trkpt lat="45.70128" lon="3.28522">
        <ele>480.315918</ele>
        <time>2011-05-22T06:43:34Z</time>
      </trkpt>
      <trkpt lat="45.70137" lon="3.28502">
        <ele>481.7578125</ele>
        <time>2011-05-22T06:43:40Z</time>
      </trkpt>
      <trkpt lat="45.70137" lon="3.28499">
        <ele>482.2385254</ele>
        <time>2011-05-22T06:43:41Z</time>
      </trkpt>
      <trkpt lat="45.7014" lon="3.285">
        <ele>482.2385254</ele>
        <time>2011-05-22T06:43:45Z</time>
      </trkpt>
      <trkpt lat="45.70136" lon="3.28512">
        <ele>480.7966309</ele>
        <time>2011-05-22T06:43:49Z</time>
      </trkpt>
      <trkpt lat="45.70128" lon="3.28525">
        <ele>479.835083</ele>
        <time>2011-05-22T06:43:52Z</time>
      </trkpt>
      <trkpt lat="45.701" lon="3.2856">
        <ele>479.3544922</ele>
        <time>2011-05-22T06:43:59Z</time>
      </trkpt>
      <trkpt lat="45.70088" lon="3.28574">
        <ele>480.315918</ele>
        <time>2011-05-22T06:44:02Z</time>
      </trkpt>
      <trkpt lat="45.70063" lon="3.28605">
        <ele>481.2772217</ele>
        <time>2011-05-22T06:44:09Z</time>
      </trkpt>
      <trkpt lat="45.70045" lon="3.28633">
        <ele>483.1998291</ele>
        <time>2011-05-22T06:44:15Z</time>
      </trkpt>
      <trkpt lat="45.70038" lon="3.2866">
        <ele>483.1998291</ele>
        <time>2011-05-22T06:44:20Z</time>
      </trkpt>
      <trkpt lat="45.70038" lon="3.28676">
        <ele>485.1224365</ele>
        <time>2011-05-22T06:44:23Z</time>
      </trkpt>
      <trkpt lat="45.7004" lon="3.28697">
        <ele>486.5644531</ele>
        <time>2011-05-22T06:44:27Z</time>
      </trkpt>
      <trkpt lat="45.70046" lon="3.28716">
        <ele>487.5256348</ele>
        <time>2011-05-22T06:44:31Z</time>
      </trkpt>
      <trkpt lat="45.70053" lon="3.28737">
        <ele>487.5256348</ele>
        <time>2011-05-22T06:44:35Z</time>
      </trkpt>
      <trkpt lat="45.70054" lon="3.28742">
        <ele>487.0450439</ele>
        <time>2011-05-22T06:44:36Z</time>
      </trkpt>
      <trkpt lat="45.70064" lon="3.28771">
        <ele>487.5256348</ele>
        <time>2011-05-22T06:44:41Z</time>
      </trkpt>
      <trkpt lat="45.70078" lon="3.28822">
        <ele>487.5256348</ele>
        <time>2011-05-22T06:44:49Z</time>
      </trkpt>
      <trkpt lat="45.70079" lon="3.28827">
        <ele>487.5256348</ele>
        <time>2011-05-22T06:44:50Z</time>
      </trkpt>
      <trkpt lat="45.70094" lon="3.28871">
        <ele>487.0450439</ele>
        <time>2011-05-22T06:44:58Z</time>
      </trkpt>
      <trkpt lat="45.70095" lon="3.28897">
        <ele>487.0450439</ele>
        <time>2011-05-22T06:45:02Z</time>
      </trkpt>
      <trkpt lat="45.70087" lon="3.28914">
        <ele>487.0450439</ele>
        <time>2011-05-22T06:45:05Z</time>
      </trkpt>
      <trkpt lat="45.70079" lon="3.28929">
        <ele>487.0450439</ele>
        <time>2011-05-22T06:45:08Z</time>
      </trkpt>
      <trkpt lat="45.70078" lon="3.28935">
        <ele>487.5256348</ele>
        <time>2011-05-22T06:45:09Z</time>
      </trkpt>
      <trkpt lat="45.70075" lon="3.28965">
        <ele>486.5644531</ele>
        <time>2011-05-22T06:45:13Z</time>
      </trkpt>
      <trkpt lat="45.70075" lon="3.29009">
        <ele>484.6418457</ele>
        <time>2011-05-22T06:45:19Z</time>
      </trkpt>
      <trkpt lat="45.70075" lon="3.29016">
        <ele>484.6418457</ele>
        <time>2011-05-22T06:45:21Z</time>
      </trkpt>
      <trkpt lat="45.70078" lon="3.29026">
        <ele>483.6804199</ele>
        <time>2011-05-22T06:45:24Z</time>
      </trkpt>
      <trkpt lat="45.70078" lon="3.29042">
        <ele>482.7192383</ele>
        <time>2011-05-22T06:45:27Z</time>
      </trkpt>
      <trkpt lat="45.70078" lon="3.29048">
        <ele>483.1998291</ele>
        <time>2011-05-22T06:45:28Z</time>
      </trkpt>
      <trkpt lat="45.70077" lon="3.29068">
        <ele>482.7192383</ele>
        <time>2011-05-22T06:45:31Z</time>
      </trkpt>
      <trkpt lat="45.70077" lon="3.29082">
        <ele>482.2385254</ele>
        <time>2011-05-22T06:45:33Z</time>
      </trkpt>
      <trkpt lat="45.70072" lon="3.2911">
        <ele>482.7192383</ele>
        <time>2011-05-22T06:45:39Z</time>
      </trkpt>
      <trkpt lat="45.70078" lon="3.29123">
        <ele>481.2772217</ele>
        <time>2011-05-22T06:45:42Z</time>
      </trkpt>
      <trkpt lat="45.70079" lon="3.29146">
        <ele>480.7966309</ele>
        <time>2011-05-22T06:45:45Z</time>
      </trkpt>
      <trkpt lat="45.70073" lon="3.29189">
        <ele>481.2772217</ele>
        <time>2011-05-22T06:45:51Z</time>
      </trkpt>
      <trkpt lat="45.70062" lon="3.29204">
        <ele>481.7578125</ele>
        <time>2011-05-22T06:45:55Z</time>
      </trkpt>
      <trkpt lat="45.70057" lon="3.29204">
        <ele>482.2385254</ele>
        <time>2011-05-22T06:45:56Z</time>
      </trkpt>
      <trkpt lat="45.70034" lon="3.29199">
        <ele>484.1611328</ele>
        <time>2011-05-22T06:46:02Z</time>
      </trkpt>
      <trkpt lat="45.70012" lon="3.29198">
        <ele>486.0837402</ele>
        <time>2011-05-22T06:46:08Z</time>
      </trkpt>
      <trkpt lat="45.69999" lon="3.29209">
        <ele>487.0450439</ele>
        <time>2011-05-22T06:46:12Z</time>
      </trkpt>
      <trkpt lat="45.69985" lon="3.29225">
        <ele>487.0450439</ele>
        <time>2011-05-22T06:46:17Z</time>
      </trkpt>
      <trkpt lat="45.69981" lon="3.29227">
        <ele>487.5256348</ele>
        <time>2011-05-22T06:46:18Z</time>
      </trkpt>
      <trkpt lat="45.69963" lon="3.2922">
        <ele>488.9677734</ele>
        <time>2011-05-22T06:46:24Z</time>
      </trkpt>
      <trkpt lat="45.69953" lon="3.29214">
        <ele>490.40979</ele>
        <time>2011-05-22T06:46:28Z</time>
      </trkpt>
      <trkpt lat="45.69944" lon="3.29224">
        <ele>488.0064697</ele>
        <time>2011-05-22T06:46:32Z</time>
      </trkpt>
      <trkpt lat="45.69939" lon="3.29235">
        <ele>486.5644531</ele>
        <time>2011-05-22T06:46:34Z</time>
      </trkpt>
      <trkpt lat="45.69934" lon="3.29265">
        <ele>482.2385254</ele>
        <time>2011-05-22T06:46:38Z</time>
      </trkpt>
      <trkpt lat="45.69924" lon="3.29312">
        <ele>476.9512939</ele>
        <time>2011-05-22T06:46:43Z</time>
      </trkpt>
      <trkpt lat="45.69917" lon="3.29332">
        <ele>475.5092773</ele>
        <time>2011-05-22T06:46:45Z</time>
      </trkpt>
      <trkpt lat="45.69907" lon="3.29373">
        <ele>475.5092773</ele>
        <time>2011-05-22T06:46:50Z</time>
      </trkpt>
      <trkpt lat="45.69902" lon="3.2942">
        <ele>474.5479736</ele>
        <time>2011-05-22T06:46:56Z</time>
      </trkpt>
      <trkpt lat="45.69901" lon="3.29436">
        <ele>474.5479736</ele>
        <time>2011-05-22T06:46:58Z</time>
      </trkpt>
      <trkpt lat="45.69903" lon="3.29459">
        <ele>474.0672607</ele>
        <time>2011-05-22T06:47:01Z</time>
      </trkpt>
      <trkpt lat="45.69901" lon="3.295">
        <ele>473.1060791</ele>
        <time>2011-05-22T06:47:06Z</time>
      </trkpt>
      <trkpt lat="45.69886" lon="3.29566">
        <ele>471.6639404</ele>
        <time>2011-05-22T06:47:14Z</time>
      </trkpt>
      <trkpt lat="45.69881" lon="3.29609">
        <ele>471.1833496</ele>
        <time>2011-05-22T06:47:19Z</time>
      </trkpt>
      <trkpt lat="45.69876" lon="3.29644">
        <ele>470.2219238</ele>
        <time>2011-05-22T06:47:23Z</time>
      </trkpt>
      <trkpt lat="45.69874" lon="3.29683">
        <ele>470.2219238</ele>
        <time>2011-05-22T06:47:28Z</time>
      </trkpt>
      <trkpt lat="45.69873" lon="3.29689">
        <ele>470.2219238</ele>
        <time>2011-05-22T06:47:29Z</time>
      </trkpt>
      <trkpt lat="45.69861" lon="3.297">
        <ele>471.1833496</ele>
        <time>2011-05-22T06:47:34Z</time>
      </trkpt>
      <trkpt lat="45.69857" lon="3.29699">
        <ele>471.1833496</ele>
        <time>2011-05-22T06:47:35Z</time>
      </trkpt>
      <trkpt lat="45.69839" lon="3.29698">
        <ele>471.6639404</ele>
        <time>2011-05-22T06:47:40Z</time>
      </trkpt>
      <trkpt lat="45.69829" lon="3.29697">
        <ele>473.1060791</ele>
        <time>2011-05-22T06:47:43Z</time>
      </trkpt>
      <trkpt lat="45.69819" lon="3.29696">
        <ele>473.5866699</ele>
        <time>2011-05-22T06:47:46Z</time>
      </trkpt>
      <trkpt lat="45.6981" lon="3.29696">
        <ele>474.0672607</ele>
        <time>2011-05-22T06:47:49Z</time>
      </trkpt>
      <trkpt lat="45.69803" lon="3.29697">
        <ele>475.0286865</ele>
        <time>2011-05-22T06:47:51Z</time>
      </trkpt>
      <trkpt lat="45.6979" lon="3.29699">
        <ele>474.5479736</ele>
        <time>2011-05-22T06:47:55Z</time>
      </trkpt>
      <trkpt lat="45.69787" lon="3.297">
        <ele>475.0286865</ele>
        <time>2011-05-22T06:47:56Z</time>
      </trkpt>
      <trkpt lat="45.69765" lon="3.29705">
        <ele>475.5092773</ele>
        <time>2011-05-22T06:48:02Z</time>
      </trkpt>
      <trkpt lat="45.69736" lon="3.29706">
        <ele>477.9124756</ele>
        <time>2011-05-22T06:48:10Z</time>
      </trkpt>
      <trkpt lat="45.69722" lon="3.29695">
        <ele>479.835083</ele>
        <time>2011-05-22T06:48:16Z</time>
      </trkpt>
      <trkpt lat="45.69718" lon="3.29691">
        <ele>481.2772217</ele>
        <time>2011-05-22T06:48:18Z</time>
      </trkpt>
      <trkpt lat="45.69712" lon="3.29684">
        <ele>482.7192383</ele>
        <time>2011-05-22T06:48:21Z</time>
      </trkpt>
      <trkpt lat="45.69697" lon="3.29671">
        <ele>484.6418457</ele>
        <time>2011-05-22T06:48:28Z</time>
      </trkpt>
      <trkpt lat="45.69684" lon="3.29663">
        <ele>486.5644531</ele>
        <time>2011-05-22T06:48:34Z</time>
      </trkpt>
      <trkpt lat="45.69672" lon="3.29658">
        <ele>488.0064697</ele>
        <time>2011-05-22T06:48:39Z</time>
      </trkpt>
      <trkpt lat="45.69662" lon="3.29654">
        <ele>489.4483643</ele>
        <time>2011-05-22T06:48:44Z</time>
      </trkpt>
      <trkpt lat="45.69645" lon="3.29645">
        <ele>491.8516846</ele>
        <time>2011-05-22T06:48:51Z</time>
      </trkpt>
      <trkpt lat="45.69643" lon="3.29643">
        <ele>491.8516846</ele>
        <time>2011-05-22T06:48:52Z</time>
      </trkpt>
      <trkpt lat="45.69632" lon="3.29628">
        <ele>493.2935791</ele>
        <time>2011-05-22T06:48:58Z</time>
      </trkpt>
      <trkpt lat="45.69621" lon="3.29613">
        <ele>494.7355957</ele>
        <time>2011-05-22T06:49:04Z</time>
      </trkpt>
      <trkpt lat="45.69615" lon="3.29607">
        <ele>494.7355957</ele>
        <time>2011-05-22T06:49:07Z</time>
      </trkpt>
      <trkpt lat="45.69607" lon="3.29617">
        <ele>494.2550049</ele>
        <time>2011-05-22T06:49:12Z</time>
      </trkpt>
      <trkpt lat="45.69604" lon="3.2963">
        <ele>493.774292</ele>
        <time>2011-05-22T06:49:15Z</time>
      </trkpt>
      <trkpt lat="45.69592" lon="3.29671">
        <ele>489.9290771</ele>
        <time>2011-05-22T06:49:21Z</time>
      </trkpt>
      <trkpt lat="45.69574" lon="3.29715">
        <ele>486.5644531</ele>
        <time>2011-05-22T06:49:26Z</time>
      </trkpt>
      <trkpt lat="45.69568" lon="3.29734">
        <ele>485.1224365</ele>
        <time>2011-05-22T06:49:28Z</time>
      </trkpt>
      <trkpt lat="45.69559" lon="3.29763">
        <ele>484.1611328</ele>
        <time>2011-05-22T06:49:31Z</time>
      </trkpt>
      <trkpt lat="45.69557" lon="3.29797">
        <ele>480.315918</ele>
        <time>2011-05-22T06:49:34Z</time>
      </trkpt>
      <trkpt lat="45.69557" lon="3.2981">
        <ele>479.835083</ele>
        <time>2011-05-22T06:49:35Z</time>
      </trkpt>
      <trkpt lat="45.69558" lon="3.29849">
        <ele>476.9512939</ele>
        <time>2011-05-22T06:49:38Z</time>
      </trkpt>
      <trkpt lat="45.69555" lon="3.29872">
        <ele>476.4705811</ele>
        <time>2011-05-22T06:49:40Z</time>
      </trkpt>
      <trkpt lat="45.69546" lon="3.29898">
        <ele>476.9512939</ele>
        <time>2011-05-22T06:49:44Z</time>
      </trkpt>
      <trkpt lat="45.69543" lon="3.29906">
        <ele>476.9512939</ele>
        <time>2011-05-22T06:49:46Z</time>
      </trkpt>
      <trkpt lat="45.69541" lon="3.2991">
        <ele>476.4705811</ele>
        <time>2011-05-22T06:49:47Z</time>
      </trkpt>
      <trkpt lat="45.69533" lon="3.29938">
        <ele>473.5866699</ele>
        <time>2011-05-22T06:49:51Z</time>
      </trkpt>
      <trkpt lat="45.69525" lon="3.2999">
        <ele>469.2607422</ele>
        <time>2011-05-22T06:49:56Z</time>
      </trkpt>
      <trkpt lat="45.69523" lon="3.30013">
        <ele>467.8187256</ele>
        <time>2011-05-22T06:49:58Z</time>
      </trkpt>
      <trkpt lat="45.69524" lon="3.30033">
        <ele>467.3381348</ele>
        <time>2011-05-22T06:50:00Z</time>
      </trkpt>
      <trkpt lat="45.69537" lon="3.30056">
        <ele>466.376709</ele>
        <time>2011-05-22T06:50:03Z</time>
      </trkpt>
      <trkpt lat="45.69553" lon="3.30074">
        <ele>465.4155273</ele>
        <time>2011-05-22T06:50:06Z</time>
      </trkpt>
      <trkpt lat="45.69569" lon="3.30105">
        <ele>463.4927979</ele>
        <time>2011-05-22T06:50:10Z</time>
      </trkpt>
      <trkpt lat="45.69571" lon="3.30113">
        <ele>463.012085</ele>
        <time>2011-05-22T06:50:11Z</time>
      </trkpt>
      <trkpt lat="45.69573" lon="3.30166">
        <ele>461.5701904</ele>
        <time>2011-05-22T06:50:17Z</time>
      </trkpt>
      <trkpt lat="45.69561" lon="3.30188">
        <ele>460.6087646</ele>
        <time>2011-05-22T06:50:20Z</time>
      </trkpt>
      <trkpt lat="45.69528" lon="3.30226">
        <ele>461.5701904</ele>
        <time>2011-05-22T06:50:27Z</time>
      </trkpt>
      <trkpt lat="45.69506" lon="3.30236">
        <ele>461.0894775</ele>
        <time>2011-05-22T06:50:31Z</time>
      </trkpt>
      <trkpt lat="45.695" lon="3.30236">
        <ele>461.5701904</ele>
        <time>2011-05-22T06:50:32Z</time>
      </trkpt>
      <trkpt lat="45.69467" lon="3.30238">
        <ele>461.5701904</ele>
        <time>2011-05-22T06:50:38Z</time>
      </trkpt>
      <trkpt lat="45.69441" lon="3.30245">
        <ele>463.012085</ele>
        <time>2011-05-22T06:50:43Z</time>
      </trkpt>
      <trkpt lat="45.69422" lon="3.30259">
        <ele>462.5313721</ele>
        <time>2011-05-22T06:50:47Z</time>
      </trkpt>
      <trkpt lat="45.69379" lon="3.30302">
        <ele>463.012085</ele>
        <time>2011-05-22T06:50:56Z</time>
      </trkpt>
      <trkpt lat="45.69369" lon="3.30309">
        <ele>463.4927979</ele>
        <time>2011-05-22T06:50:58Z</time>
      </trkpt>
      <trkpt lat="45.69353" lon="3.30316">
        <ele>463.012085</ele>
        <time>2011-05-22T06:51:01Z</time>
      </trkpt>
      <trkpt lat="45.6934" lon="3.30337">
        <ele>463.9733887</ele>
        <time>2011-05-22T06:51:05Z</time>
      </trkpt>
      <trkpt lat="45.69339" lon="3.30351">
        <ele>463.4927979</ele>
        <time>2011-05-22T06:51:07Z</time>
      </trkpt>
      <trkpt lat="45.6934" lon="3.30393">
        <ele>465.8961182</ele>
        <time>2011-05-22T06:51:13Z</time>
      </trkpt>
      <trkpt lat="45.69351" lon="3.30445">
        <ele>469.2607422</ele>
        <time>2011-05-22T06:51:22Z</time>
      </trkpt>
      <trkpt lat="45.69355" lon="3.30468">
        <ele>470.7026367</ele>
        <time>2011-05-22T06:51:26Z</time>
      </trkpt>
      <trkpt lat="45.69357" lon="3.3049">
        <ele>472.1446533</ele>
        <time>2011-05-22T06:51:30Z</time>
      </trkpt>
      <trkpt lat="45.69358" lon="3.30501">
        <ele>472.6253662</ele>
        <time>2011-05-22T06:51:32Z</time>
      </trkpt>
      <trkpt lat="45.69358" lon="3.30514">
        <ele>473.1060791</ele>
        <time>2011-05-22T06:51:35Z</time>
      </trkpt>
      <trkpt lat="45.69372" lon="3.30526">
        <ele>470.7026367</ele>
        <time>2011-05-22T06:51:40Z</time>
      </trkpt>
      <trkpt lat="45.69376" lon="3.30527">
        <ele>470.7026367</ele>
        <time>2011-05-22T06:51:41Z</time>
      </trkpt>
      <trkpt lat="45.69391" lon="3.30528">
        <ele>470.2219238</ele>
        <time>2011-05-22T06:51:44Z</time>
      </trkpt>
      <trkpt lat="45.69412" lon="3.30529">
        <ele>469.741333</ele>
        <time>2011-05-22T06:51:48Z</time>
      </trkpt>
      <trkpt lat="45.69446" lon="3.3053">
        <ele>468.7800293</ele>
        <time>2011-05-22T06:51:54Z</time>
      </trkpt>
      <trkpt lat="45.6947" lon="3.30533">
        <ele>468.7800293</ele>
        <time>2011-05-22T06:51:59Z</time>
      </trkpt>
      <trkpt lat="45.69471" lon="3.30554">
        <ele>464.4541016</ele>
        <time>2011-05-22T06:52:02Z</time>
      </trkpt>
      <trkpt lat="45.69466" lon="3.30592">
        <ele>456.282959</ele>
        <time>2011-05-22T06:52:05Z</time>
      </trkpt>
      <trkpt lat="45.69463" lon="3.30621">
        <ele>452.4376221</ele>
        <time>2011-05-22T06:52:07Z</time>
      </trkpt>
      <trkpt lat="45.6946" lon="3.30651">
        <ele>448.1118164</ele>
        <time>2011-05-22T06:52:09Z</time>
      </trkpt>
      <trkpt lat="45.69457" lon="3.30679">
        <ele>447.1502686</ele>
        <time>2011-05-22T06:52:11Z</time>
      </trkpt>
      <trkpt lat="45.69457" lon="3.30692">
        <ele>446.6696777</ele>
        <time>2011-05-22T06:52:12Z</time>
      </trkpt>
      <trkpt lat="45.69455" lon="3.30704">
        <ele>445.708374</ele>
        <time>2011-05-22T06:52:13Z</time>
      </trkpt>
      <trkpt lat="45.69454" lon="3.30756">
        <ele>441.3824463</ele>
        <time>2011-05-22T06:52:17Z</time>
      </trkpt>
      <trkpt lat="45.69453" lon="3.3081">
        <ele>438.0178223</ele>
        <time>2011-05-22T06:52:21Z</time>
      </trkpt>
      <trkpt lat="45.69454" lon="3.30855">
        <ele>438.4985352</ele>
        <time>2011-05-22T06:52:25Z</time>
      </trkpt>
      <trkpt lat="45.69453" lon="3.30885">
        <ele>438.4985352</ele>
        <time>2011-05-22T06:52:28Z</time>
      </trkpt>
      <trkpt lat="45.69451" lon="3.30904">
        <ele>438.979126</ele>
        <time>2011-05-22T06:52:30Z</time>
      </trkpt>
      <trkpt lat="45.6945" lon="3.30913">
        <ele>438.979126</ele>
        <time>2011-05-22T06:52:31Z</time>
      </trkpt>
      <trkpt lat="45.69447" lon="3.30948">
        <ele>440.9018555</ele>
        <time>2011-05-22T06:52:36Z</time>
      </trkpt>
      <trkpt lat="45.69446" lon="3.30952">
        <ele>441.3824463</ele>
        <time>2011-05-22T06:52:37Z</time>
      </trkpt>
      <trkpt lat="45.69435" lon="3.30962">
        <ele>441.8631592</ele>
        <time>2011-05-22T06:52:41Z</time>
      </trkpt>
      <trkpt lat="45.69418" lon="3.30957">
        <ele>442.3438721</ele>
        <time>2011-05-22T06:52:45Z</time>
      </trkpt>
      <trkpt lat="45.69401" lon="3.30953">
        <ele>442.8244629</ele>
        <time>2011-05-22T06:52:49Z</time>
      </trkpt>
      <trkpt lat="45.69388" lon="3.30951">
        <ele>443.7857666</ele>
        <time>2011-05-22T06:52:52Z</time>
      </trkpt>
      <trkpt lat="45.69372" lon="3.30949">
        <ele>444.2664795</ele>
        <time>2011-05-22T06:52:56Z</time>
      </trkpt>
      <trkpt lat="45.69363" lon="3.30949">
        <ele>445.708374</ele>
        <time>2011-05-22T06:52:58Z</time>
      </trkpt>
      <trkpt lat="45.69341" lon="3.30945">
        <ele>445.708374</ele>
        <time>2011-05-22T06:53:03Z</time>
      </trkpt>
      <trkpt lat="45.69325" lon="3.30943">
        <ele>447.1502686</ele>
        <time>2011-05-22T06:53:07Z</time>
      </trkpt>
      <trkpt lat="45.69305" lon="3.30935">
        <ele>448.1118164</ele>
        <time>2011-05-22T06:53:12Z</time>
      </trkpt>
      <trkpt lat="45.69293" lon="3.30938">
        <ele>449.5537109</ele>
        <time>2011-05-22T06:53:16Z</time>
      </trkpt>
      <trkpt lat="45.6929" lon="3.30932">
        <ele>449.072998</ele>
        <time>2011-05-22T06:53:18Z</time>
      </trkpt>
      <trkpt lat="45.69296" lon="3.30929">
        <ele>448.1118164</ele>
        <time>2011-05-22T06:53:21Z</time>
      </trkpt>
      <trkpt lat="45.69295" lon="3.30936">
        <ele>449.072998</ele>
        <time>2011-05-22T06:53:23Z</time>
      </trkpt>
      <trkpt lat="45.69293" lon="3.30938">
        <ele>449.072998</ele>
        <time>2011-05-22T06:53:24Z</time>
      </trkpt>
      <trkpt lat="45.69286" lon="3.30936">
        <ele>450.0344238</ele>
        <time>2011-05-22T06:53:27Z</time>
      </trkpt>
      <trkpt lat="45.69267" lon="3.30933">
        <ele>450.5150146</ele>
        <time>2011-05-22T06:53:32Z</time>
      </trkpt>
      <trkpt lat="45.69256" lon="3.30944">
        <ele>450.9956055</ele>
        <time>2011-05-22T06:53:36Z</time>
      </trkpt>
      <trkpt lat="45.69258" lon="3.30956">
        <ele>450.5150146</ele>
        <time>2011-05-22T06:53:38Z</time>
      </trkpt>
      <trkpt lat="45.69278" lon="3.31009">
        <ele>448.1118164</ele>
        <time>2011-05-22T06:53:46Z</time>
      </trkpt>
      <trkpt lat="45.6928" lon="3.31017">
        <ele>448.1118164</ele>
        <time>2011-05-22T06:53:47Z</time>
      </trkpt>
      <trkpt lat="45.69283" lon="3.31044">
        <ele>447.6309814</ele>
        <time>2011-05-22T06:53:51Z</time>
      </trkpt>
      <trkpt lat="45.69288" lon="3.31057">
        <ele>447.6309814</ele>
        <time>2011-05-22T06:53:55Z</time>
      </trkpt>
      <trkpt lat="45.69298" lon="3.31076">
        <ele>446.1890869</ele>
        <time>2011-05-22T06:54:00Z</time>
      </trkpt>
      <trkpt lat="45.693" lon="3.31081">
        <ele>445.708374</ele>
        <time>2011-05-22T06:54:01Z</time>
      </trkpt>
      <trkpt lat="45.69315" lon="3.31126">
        <ele>444.2664795</ele>
        <time>2011-05-22T06:54:07Z</time>
      </trkpt>
      <trkpt lat="45.69321" lon="3.31151">
        <ele>443.3050537</ele>
        <time>2011-05-22T06:54:10Z</time>
      </trkpt>
      <trkpt lat="45.69322" lon="3.31159">
        <ele>443.3050537</ele>
        <time>2011-05-22T06:54:11Z</time>
      </trkpt>
      <trkpt lat="45.69324" lon="3.31167">
        <ele>442.3438721</ele>
        <time>2011-05-22T06:54:12Z</time>
      </trkpt>
      <trkpt lat="45.69338" lon="3.31232">
        <ele>442.3438721</ele>
        <time>2011-05-22T06:54:20Z</time>
      </trkpt>
      <trkpt lat="45.69346" lon="3.31263">
        <ele>442.3438721</ele>
        <time>2011-05-22T06:54:24Z</time>
      </trkpt>
      <trkpt lat="45.69352" lon="3.31283">
        <ele>441.8631592</ele>
        <time>2011-05-22T06:54:27Z</time>
      </trkpt>
      <trkpt lat="45.69353" lon="3.31296">
        <ele>441.3824463</ele>
        <time>2011-05-22T06:54:29Z</time>
      </trkpt>
      <trkpt lat="45.69351" lon="3.31319">
        <ele>439.9404297</ele>
        <time>2011-05-22T06:54:32Z</time>
      </trkpt>
      <trkpt lat="45.69349" lon="3.3138">
        <ele>439.4597168</ele>
        <time>2011-05-22T06:54:39Z</time>
      </trkpt>
      <trkpt lat="45.69349" lon="3.31434">
        <ele>441.3824463</ele>
        <time>2011-05-22T06:54:46Z</time>
      </trkpt>
      <trkpt lat="45.69353" lon="3.31461">
        <ele>442.8244629</ele>
        <time>2011-05-22T06:54:50Z</time>
      </trkpt>
      <trkpt lat="45.69357" lon="3.31473">
        <ele>442.8244629</ele>
        <time>2011-05-22T06:54:52Z</time>
      </trkpt>
      <trkpt lat="45.69361" lon="3.31484">
        <ele>443.3050537</ele>
        <time>2011-05-22T06:54:54Z</time>
      </trkpt>
      <trkpt lat="45.69366" lon="3.31501">
        <ele>444.7470703</ele>
        <time>2011-05-22T06:54:57Z</time>
      </trkpt>
      <trkpt lat="45.69365" lon="3.31513">
        <ele>445.2276611</ele>
        <time>2011-05-22T06:54:59Z</time>
      </trkpt>
      <trkpt lat="45.69357" lon="3.3155">
        <ele>448.1118164</ele>
        <time>2011-05-22T06:55:07Z</time>
      </trkpt>
      <trkpt lat="45.69355" lon="3.31559">
        <ele>449.5537109</ele>
        <time>2011-05-22T06:55:09Z</time>
      </trkpt>
      <trkpt lat="45.69351" lon="3.31577">
        <ele>450.9956055</ele>
        <time>2011-05-22T06:55:13Z</time>
      </trkpt>
      <trkpt lat="45.69346" lon="3.31608">
        <ele>452.9182129</ele>
        <time>2011-05-22T06:55:20Z</time>
      </trkpt>
      <trkpt lat="45.69346" lon="3.31612">
        <ele>453.3989258</ele>
        <time>2011-05-22T06:55:21Z</time>
      </trkpt>
      <trkpt lat="45.69345" lon="3.31626">
        <ele>453.3989258</ele>
        <time>2011-05-22T06:55:24Z</time>
      </trkpt>
      <trkpt lat="45.69342" lon="3.31657">
        <ele>455.3215332</ele>
        <time>2011-05-22T06:55:31Z</time>
      </trkpt>
      <trkpt lat="45.69342" lon="3.31683">
        <ele>458.2055664</ele>
        <time>2011-05-22T06:55:37Z</time>
      </trkpt>
      <trkpt lat="45.69342" lon="3.31709">
        <ele>460.6087646</ele>
        <time>2011-05-22T06:55:44Z</time>
      </trkpt>
      <trkpt lat="45.69344" lon="3.31728">
        <ele>462.0507813</ele>
        <time>2011-05-22T06:55:49Z</time>
      </trkpt>
      <trkpt lat="45.69345" lon="3.31732">
        <ele>462.0507813</ele>
        <time>2011-05-22T06:55:50Z</time>
      </trkpt>
      <trkpt lat="45.69349" lon="3.31761">
        <ele>464.4541016</ele>
        <time>2011-05-22T06:55:57Z</time>
      </trkpt>
      <trkpt lat="45.69351" lon="3.318">
        <ele>466.8574219</ele>
        <time>2011-05-22T06:56:07Z</time>
      </trkpt>
      <trkpt lat="45.69354" lon="3.31839">
        <ele>469.2607422</ele>
        <time>2011-05-22T06:56:17Z</time>
      </trkpt>
      <trkpt lat="45.69355" lon="3.31858">
        <ele>469.741333</ele>
        <time>2011-05-22T06:56:22Z</time>
      </trkpt>
      <trkpt lat="45.69359" lon="3.319">
        <ele>473.1060791</ele>
        <time>2011-05-22T06:56:33Z</time>
      </trkpt>
      <trkpt lat="45.69362" lon="3.31934">
        <ele>475.9898682</ele>
        <time>2011-05-22T06:56:42Z</time>
      </trkpt>
      <trkpt lat="45.69363" lon="3.3196">
        <ele>478.3931885</ele>
        <time>2011-05-22T06:56:49Z</time>
      </trkpt>
      <trkpt lat="45.69362" lon="3.31995">
        <ele>480.7966309</ele>
        <time>2011-05-22T06:56:58Z</time>
      </trkpt>
      <trkpt lat="45.69365" lon="3.32026">
        <ele>482.7192383</ele>
        <time>2011-05-22T06:57:06Z</time>
      </trkpt>
      <trkpt lat="45.69369" lon="3.32062">
        <ele>483.1998291</ele>
        <time>2011-05-22T06:57:14Z</time>
      </trkpt>
      <trkpt lat="45.69375" lon="3.32091">
        <ele>484.1611328</ele>
        <time>2011-05-22T06:57:20Z</time>
      </trkpt>
      <trkpt lat="45.69382" lon="3.32126">
        <ele>485.1224365</ele>
        <time>2011-05-22T06:57:28Z</time>
      </trkpt>
      <trkpt lat="45.69383" lon="3.32129">
        <ele>485.1224365</ele>
        <time>2011-05-22T06:57:29Z</time>
      </trkpt>
      <trkpt lat="45.69396" lon="3.3215">
        <ele>483.6804199</ele>
        <time>2011-05-22T06:57:35Z</time>
      </trkpt>
      <trkpt lat="45.69403" lon="3.32166">
        <ele>482.7192383</ele>
        <time>2011-05-22T06:57:38Z</time>
      </trkpt>
      <trkpt lat="45.6941" lon="3.32209">
        <ele>478.8739014</ele>
        <time>2011-05-22T06:57:44Z</time>
      </trkpt>
      <trkpt lat="45.69411" lon="3.32218">
        <ele>478.8739014</ele>
        <time>2011-05-22T06:57:45Z</time>
      </trkpt>
      <trkpt lat="45.69418" lon="3.32267">
        <ele>477.9124756</ele>
        <time>2011-05-22T06:57:50Z</time>
      </trkpt>
      <trkpt lat="45.69423" lon="3.32313">
        <ele>475.0286865</ele>
        <time>2011-05-22T06:57:54Z</time>
      </trkpt>
      <trkpt lat="45.69425" lon="3.32337">
        <ele>473.1060791</ele>
        <time>2011-05-22T06:57:56Z</time>
      </trkpt>
      <trkpt lat="45.69419" lon="3.32388">
        <ele>469.741333</ele>
        <time>2011-05-22T06:58:00Z</time>
      </trkpt>
      <trkpt lat="45.69415" lon="3.324">
        <ele>469.2607422</ele>
        <time>2011-05-22T06:58:01Z</time>
      </trkpt>
      <trkpt lat="45.69401" lon="3.32435">
        <ele>466.376709</ele>
        <time>2011-05-22T06:58:04Z</time>
      </trkpt>
      <trkpt lat="45.69396" lon="3.32447">
        <ele>466.376709</ele>
        <time>2011-05-22T06:58:05Z</time>
      </trkpt>
      <trkpt lat="45.69367" lon="3.32513">
        <ele>463.012085</ele>
        <time>2011-05-22T06:58:11Z</time>
      </trkpt>
      <trkpt lat="45.69333" lon="3.32574">
        <ele>458.6861572</ele>
        <time>2011-05-22T06:58:17Z</time>
      </trkpt>
      <trkpt lat="45.6932" lon="3.32595">
        <ele>457.7249756</ele>
        <time>2011-05-22T06:58:19Z</time>
      </trkpt>
      <trkpt lat="45.69307" lon="3.32617">
        <ele>456.282959</ele>
        <time>2011-05-22T06:58:21Z</time>
      </trkpt>
      <trkpt lat="45.693" lon="3.32627">
        <ele>455.8022461</ele>
        <time>2011-05-22T06:58:22Z</time>
      </trkpt>
      <trkpt lat="45.69294" lon="3.32637">
        <ele>455.8022461</ele>
        <time>2011-05-22T06:58:23Z</time>
      </trkpt>
      <trkpt lat="45.69287" lon="3.32647">
        <ele>455.3215332</ele>
        <time>2011-05-22T06:58:24Z</time>
      </trkpt>
      <trkpt lat="45.6927" lon="3.32691">
        <ele>454.8408203</ele>
        <time>2011-05-22T06:58:28Z</time>
      </trkpt>
      <trkpt lat="45.6927" lon="3.32714">
        <ele>455.3215332</ele>
        <time>2011-05-22T06:58:30Z</time>
      </trkpt>
      <trkpt lat="45.69273" lon="3.32786">
        <ele>457.2442627</ele>
        <time>2011-05-22T06:58:37Z</time>
      </trkpt>
      <trkpt lat="45.69268" lon="3.32814">
        <ele>458.6861572</ele>
        <time>2011-05-22T06:58:40Z</time>
      </trkpt>
      <trkpt lat="45.69258" lon="3.32862">
        <ele>459.647583</ele>
        <time>2011-05-22T06:58:46Z</time>
      </trkpt>
      <trkpt lat="45.69243" lon="3.32898">
        <ele>459.647583</ele>
        <time>2011-05-22T06:58:51Z</time>
      </trkpt>
      <trkpt lat="45.69225" lon="3.32931">
        <ele>462.0507813</ele>
        <time>2011-05-22T06:58:57Z</time>
      </trkpt>
      <trkpt lat="45.69209" lon="3.32957">
        <ele>463.9733887</ele>
        <time>2011-05-22T06:59:03Z</time>
      </trkpt>
      <trkpt lat="45.69206" lon="3.32962">
        <ele>464.4541016</ele>
        <time>2011-05-22T06:59:04Z</time>
      </trkpt>
      <trkpt lat="45.69195" lon="3.32986">
        <ele>466.8574219</ele>
        <time>2011-05-22T06:59:09Z</time>
      </trkpt>
      <trkpt lat="45.69189" lon="3.33">
        <ele>468.2993164</ele>
        <time>2011-05-22T06:59:12Z</time>
      </trkpt>
      <trkpt lat="45.69185" lon="3.33015">
        <ele>469.2607422</ele>
        <time>2011-05-22T06:59:15Z</time>
      </trkpt>
      <trkpt lat="45.6918" lon="3.33037">
        <ele>469.741333</ele>
        <time>2011-05-22T06:59:19Z</time>
      </trkpt>
      <trkpt lat="45.69176" lon="3.33054">
        <ele>469.741333</ele>
        <time>2011-05-22T06:59:22Z</time>
      </trkpt>
      <trkpt lat="45.69171" lon="3.3308">
        <ele>471.6639404</ele>
        <time>2011-05-22T06:59:27Z</time>
      </trkpt>
      <trkpt lat="45.6917" lon="3.33085">
        <ele>471.1833496</ele>
        <time>2011-05-22T06:59:28Z</time>
      </trkpt>
      <trkpt lat="45.69159" lon="3.33092">
        <ele>472.1446533</ele>
        <time>2011-05-22T06:59:32Z</time>
      </trkpt>
      <trkpt lat="45.69132" lon="3.33093">
        <ele>474.5479736</ele>
        <time>2011-05-22T06:59:40Z</time>
      </trkpt>
      <trkpt lat="45.69116" lon="3.33093">
        <ele>475.9898682</ele>
        <time>2011-05-22T06:59:45Z</time>
      </trkpt>
      <trkpt lat="45.69098" lon="3.33084">
        <ele>476.9512939</ele>
        <time>2011-05-22T06:59:51Z</time>
      </trkpt>
      <trkpt lat="45.69087" lon="3.33079">
        <ele>477.4318848</ele>
        <time>2011-05-22T06:59:55Z</time>
      </trkpt>
      <trkpt lat="45.6908" lon="3.33094">
        <ele>477.4318848</ele>
        <time>2011-05-22T06:59:59Z</time>
      </trkpt>
      <trkpt lat="45.69078" lon="3.33099">
        <ele>477.4318848</ele>
        <time>2011-05-22T07:00:00Z</time>
      </trkpt>
      <trkpt lat="45.69071" lon="3.33142">
        <ele>477.4318848</ele>
        <time>2011-05-22T07:00:07Z</time>
      </trkpt>
      <trkpt lat="45.69059" lon="3.33201">
        <ele>477.4318848</ele>
        <time>2011-05-22T07:00:16Z</time>
      </trkpt>
      <trkpt lat="45.69058" lon="3.33207">
        <ele>477.4318848</ele>
        <time>2011-05-22T07:00:17Z</time>
      </trkpt>
      <trkpt lat="45.69049" lon="3.33252">
        <ele>478.3931885</ele>
        <time>2011-05-22T07:00:24Z</time>
      </trkpt>
      <trkpt lat="45.6904" lon="3.33294">
        <ele>478.8739014</ele>
        <time>2011-05-22T07:00:31Z</time>
      </trkpt>
      <trkpt lat="45.69036" lon="3.33312">
        <ele>479.3544922</ele>
        <time>2011-05-22T07:00:34Z</time>
      </trkpt>
      <trkpt lat="45.6902" lon="3.33374">
        <ele>480.315918</ele>
        <time>2011-05-22T07:00:44Z</time>
      </trkpt>
      <trkpt lat="45.69016" lon="3.33392">
        <ele>479.3544922</ele>
        <time>2011-05-22T07:00:47Z</time>
      </trkpt>
      <trkpt lat="45.69016" lon="3.33425">
        <ele>479.3544922</ele>
        <time>2011-05-22T07:00:52Z</time>
      </trkpt>
      <trkpt lat="45.69017" lon="3.33488">
        <ele>478.8739014</ele>
        <time>2011-05-22T07:01:00Z</time>
      </trkpt>
      <trkpt lat="45.69016" lon="3.33514">
        <ele>477.9124756</ele>
        <time>2011-05-22T07:01:03Z</time>
      </trkpt>
      <trkpt lat="45.69017" lon="3.33567">
        <ele>476.4705811</ele>
        <time>2011-05-22T07:01:09Z</time>
      </trkpt>
      <trkpt lat="45.69017" lon="3.33576">
        <ele>475.5092773</ele>
        <time>2011-05-22T07:01:10Z</time>
      </trkpt>
      <trkpt lat="45.69021" lon="3.33591">
        <ele>476.9512939</ele>
        <time>2011-05-22T07:01:13Z</time>
      </trkpt>
      <trkpt lat="45.69024" lon="3.33593">
        <ele>476.4705811</ele>
        <time>2011-05-22T07:01:14Z</time>
      </trkpt>
      <trkpt lat="45.69033" lon="3.33594">
        <ele>475.0286865</ele>
        <time>2011-05-22T07:01:16Z</time>
      </trkpt>
      <trkpt lat="45.69064" lon="3.33595">
        <ele>471.1833496</ele>
        <time>2011-05-22T07:01:21Z</time>
      </trkpt>
      <trkpt lat="45.69105" lon="3.33595">
        <ele>468.2993164</ele>
        <time>2011-05-22T07:01:26Z</time>
      </trkpt>
      <trkpt lat="45.69137" lon="3.33596">
        <ele>465.8961182</ele>
        <time>2011-05-22T07:01:30Z</time>
      </trkpt>
      <trkpt lat="45.69169" lon="3.33595">
        <ele>462.0507813</ele>
        <time>2011-05-22T07:01:34Z</time>
      </trkpt>
      <trkpt lat="45.69195" lon="3.33594">
        <ele>458.2055664</ele>
        <time>2011-05-22T07:01:37Z</time>
      </trkpt>
      <trkpt lat="45.69205" lon="3.33594">
        <ele>458.2055664</ele>
        <time>2011-05-22T07:01:38Z</time>
      </trkpt>
      <trkpt lat="45.6924" lon="3.33593">
        <ele>456.282959</ele>
        <time>2011-05-22T07:01:42Z</time>
      </trkpt>
      <trkpt lat="45.69255" lon="3.33593">
        <ele>455.8022461</ele>
        <time>2011-05-22T07:01:44Z</time>
      </trkpt>
      <trkpt lat="45.69277" lon="3.33603">
        <ele>454.3602295</ele>
        <time>2011-05-22T07:01:48Z</time>
      </trkpt>
      <trkpt lat="45.69285" lon="3.33612">
        <ele>453.3989258</ele>
        <time>2011-05-22T07:01:50Z</time>
      </trkpt>
      <trkpt lat="45.69293" lon="3.3362">
        <ele>451.9570313</ele>
        <time>2011-05-22T07:01:52Z</time>
      </trkpt>
      <trkpt lat="45.69296" lon="3.33626">
        <ele>451.4763184</ele>
        <time>2011-05-22T07:01:53Z</time>
      </trkpt>
      <trkpt lat="45.69304" lon="3.33645">
        <ele>450.0344238</ele>
        <time>2011-05-22T07:01:56Z</time>
      </trkpt>
      <trkpt lat="45.6932" lon="3.33683">
        <ele>446.6696777</ele>
        <time>2011-05-22T07:02:02Z</time>
      </trkpt>
      <trkpt lat="45.69322" lon="3.33705">
        <ele>446.1890869</ele>
        <time>2011-05-22T07:02:06Z</time>
      </trkpt>
      <trkpt lat="45.69319" lon="3.33708">
        <ele>445.708374</ele>
        <time>2011-05-22T07:02:07Z</time>
      </trkpt>
      <trkpt lat="45.69301" lon="3.33727">
        <ele>446.1890869</ele>
        <time>2011-05-22T07:02:12Z</time>
      </trkpt>
      <trkpt lat="45.6929" lon="3.3374">
        <ele>448.1118164</ele>
        <time>2011-05-22T07:02:16Z</time>
      </trkpt>
      <trkpt lat="45.69288" lon="3.33743">
        <ele>448.1118164</ele>
        <time>2011-05-22T07:02:17Z</time>
      </trkpt>
      <trkpt lat="45.69287" lon="3.33759">
        <ele>446.1890869</ele>
        <time>2011-05-22T07:02:21Z</time>
      </trkpt>
      <trkpt lat="45.6929" lon="3.33764">
        <ele>444.7470703</ele>
        <time>2011-05-22T07:02:22Z</time>
      </trkpt>
      <trkpt lat="45.69305" lon="3.33778">
        <ele>442.3438721</ele>
        <time>2011-05-22T07:02:25Z</time>
      </trkpt>
      <trkpt lat="45.69316" lon="3.33788">
        <ele>440.9018555</ele>
        <time>2011-05-22T07:02:27Z</time>
      </trkpt>
      <trkpt lat="45.69332" lon="3.33804">
        <ele>438.0178223</ele>
        <time>2011-05-22T07:02:30Z</time>
      </trkpt>
      <trkpt lat="45.69345" lon="3.33814">
        <ele>436.0952148</ele>
        <time>2011-05-22T07:02:32Z</time>
      </trkpt>
      <trkpt lat="45.69364" lon="3.33823">
        <ele>434.1726074</ele>
        <time>2011-05-22T07:02:35Z</time>
      </trkpt>
      <trkpt lat="45.69374" lon="3.33831">
        <ele>433.6918945</ele>
        <time>2011-05-22T07:02:37Z</time>
      </trkpt>
      <trkpt lat="45.69378" lon="3.33835">
        <ele>433.2113037</ele>
        <time>2011-05-22T07:02:38Z</time>
      </trkpt>
      <trkpt lat="45.69388" lon="3.33856">
        <ele>433.2113037</ele>
        <time>2011-05-22T07:02:42Z</time>
      </trkpt>
      <trkpt lat="45.69386" lon="3.33867">
        <ele>433.6918945</ele>
        <time>2011-05-22T07:02:44Z</time>
      </trkpt>
      <trkpt lat="45.69379" lon="3.33908">
        <ele>430.8079834</ele>
        <time>2011-05-22T07:02:51Z</time>
      </trkpt>
      <trkpt lat="45.6937" lon="3.33933">
        <ele>431.2885742</ele>
        <time>2011-05-22T07:02:55Z</time>
      </trkpt>
      <trkpt lat="45.69349" lon="3.33967">
        <ele>431.769165</ele>
        <time>2011-05-22T07:03:01Z</time>
      </trkpt>
      <trkpt lat="45.69341" lon="3.33977">
        <ele>431.769165</ele>
        <time>2011-05-22T07:03:03Z</time>
      </trkpt>
      <trkpt lat="45.69332" lon="3.33984">
        <ele>432.7307129</ele>
        <time>2011-05-22T07:03:05Z</time>
      </trkpt>
      <trkpt lat="45.69313" lon="3.33998">
        <ele>430.8079834</ele>
        <time>2011-05-22T07:03:09Z</time>
      </trkpt>
      <trkpt lat="45.6927" lon="3.34024">
        <ele>433.2113037</ele>
        <time>2011-05-22T07:03:18Z</time>
      </trkpt>
      <trkpt lat="45.69258" lon="3.34036">
        <ele>434.1726074</ele>
        <time>2011-05-22T07:03:21Z</time>
      </trkpt>
      <trkpt lat="45.69241" lon="3.34063">
        <ele>433.6918945</ele>
        <time>2011-05-22T07:03:26Z</time>
      </trkpt>
      <trkpt lat="45.6922" lon="3.34098">
        <ele>433.2113037</ele>
        <time>2011-05-22T07:03:32Z</time>
      </trkpt>
      <trkpt lat="45.69189" lon="3.34141">
        <ele>433.2113037</ele>
        <time>2011-05-22T07:03:40Z</time>
      </trkpt>
      <trkpt lat="45.69159" lon="3.34178">
        <ele>435.614502</ele>
        <time>2011-05-22T07:03:48Z</time>
      </trkpt>
      <trkpt lat="45.69144" lon="3.34197">
        <ele>438.0178223</ele>
        <time>2011-05-22T07:03:53Z</time>
      </trkpt>
      <trkpt lat="45.69139" lon="3.34205">
        <ele>438.0178223</ele>
        <time>2011-05-22T07:03:55Z</time>
      </trkpt>
      <trkpt lat="45.69129" lon="3.3423">
        <ele>438.979126</ele>
        <time>2011-05-22T07:04:00Z</time>
      </trkpt>
      <trkpt lat="45.69126" lon="3.34241">
        <ele>438.0178223</ele>
        <time>2011-05-22T07:04:02Z</time>
      </trkpt>
      <trkpt lat="45.69112" lon="3.34282">
        <ele>436.5759277</ele>
        <time>2011-05-22T07:04:08Z</time>
      </trkpt>
      <trkpt lat="45.69097" lon="3.3431">
        <ele>433.2113037</ele>
        <time>2011-05-22T07:04:12Z</time>
      </trkpt>
      <trkpt lat="45.69083" lon="3.34333">
        <ele>431.2885742</ele>
        <time>2011-05-22T07:04:15Z</time>
      </trkpt>
      <trkpt lat="45.69058" lon="3.34387">
        <ele>429.3659668</ele>
        <time>2011-05-22T07:04:21Z</time>
      </trkpt>
      <trkpt lat="45.6905" lon="3.34404">
        <ele>428.885376</ele>
        <time>2011-05-22T07:04:23Z</time>
      </trkpt>
      <trkpt lat="45.69034" lon="3.34453">
        <ele>428.4046631</ele>
        <time>2011-05-22T07:04:29Z</time>
      </trkpt>
      <trkpt lat="45.69027" lon="3.34473">
        <ele>428.885376</ele>
        <time>2011-05-22T07:04:32Z</time>
      </trkpt>
      <trkpt lat="45.69009" lon="3.34523">
        <ele>428.885376</ele>
        <time>2011-05-22T07:04:39Z</time>
      </trkpt>
      <trkpt lat="45.69001" lon="3.34545">
        <ele>429.8465576</ele>
        <time>2011-05-22T07:04:42Z</time>
      </trkpt>
      <trkpt lat="45.68986" lon="3.34569">
        <ele>429.8465576</ele>
        <time>2011-05-22T07:04:46Z</time>
      </trkpt>
      <trkpt lat="45.68976" lon="3.34595">
        <ele>431.2885742</ele>
        <time>2011-05-22T07:04:50Z</time>
      </trkpt>
      <trkpt lat="45.68982" lon="3.34616">
        <ele>431.2885742</ele>
        <time>2011-05-22T07:04:53Z</time>
      </trkpt>
      <trkpt lat="45.68997" lon="3.34626">
        <ele>430.3272705</ele>
        <time>2011-05-22T07:04:56Z</time>
      </trkpt>
      <trkpt lat="45.69009" lon="3.34626">
        <ele>430.3272705</ele>
        <time>2011-05-22T07:04:58Z</time>
      </trkpt>
      <trkpt lat="45.6902" lon="3.34625">
        <ele>430.3272705</ele>
        <time>2011-05-22T07:05:00Z</time>
      </trkpt>
      <trkpt lat="45.69031" lon="3.34624">
        <ele>430.3272705</ele>
        <time>2011-05-22T07:05:02Z</time>
      </trkpt>
      <trkpt lat="45.69048" lon="3.34631">
        <ele>431.769165</ele>
        <time>2011-05-22T07:05:06Z</time>
      </trkpt>
      <trkpt lat="45.69048" lon="3.34643">
        <ele>433.6918945</ele>
        <time>2011-05-22T07:05:09Z</time>
      </trkpt>
      <trkpt lat="45.69041" lon="3.34652">
        <ele>435.614502</ele>
        <time>2011-05-22T07:05:12Z</time>
      </trkpt>
      <trkpt lat="45.69037" lon="3.3466">
        <ele>436.5759277</ele>
        <time>2011-05-22T07:05:14Z</time>
      </trkpt>
      <trkpt lat="45.69033" lon="3.34668">
        <ele>438.0178223</ele>
        <time>2011-05-22T07:05:16Z</time>
      </trkpt>
      <trkpt lat="45.69028" lon="3.34676">
        <ele>439.9404297</ele>
        <time>2011-05-22T07:05:19Z</time>
      </trkpt>
      <trkpt lat="45.69025" lon="3.34681">
        <ele>440.9018555</ele>
        <time>2011-05-22T07:05:21Z</time>
      </trkpt>
      <trkpt lat="45.69019" lon="3.34688">
        <ele>441.8631592</ele>
        <time>2011-05-22T07:05:24Z</time>
      </trkpt>
      <trkpt lat="45.69018" lon="3.34691">
        <ele>442.3438721</ele>
        <time>2011-05-22T07:05:25Z</time>
      </trkpt>
      <trkpt lat="45.69016" lon="3.34693">
        <ele>442.8244629</ele>
        <time>2011-05-22T07:05:26Z</time>
      </trkpt>
      <trkpt lat="45.69013" lon="3.34698">
        <ele>443.3050537</ele>
        <time>2011-05-22T07:05:28Z</time>
      </trkpt>
      <trkpt lat="45.69007" lon="3.34707">
        <ele>445.2276611</ele>
        <time>2011-05-22T07:05:32Z</time>
      </trkpt>
      <trkpt lat="45.68997" lon="3.34728">
        <ele>448.1118164</ele>
        <time>2011-05-22T07:05:41Z</time>
      </trkpt>
      <trkpt lat="45.68996" lon="3.34745">
        <ele>449.5537109</ele>
        <time>2011-05-22T07:05:47Z</time>
      </trkpt>
      <trkpt lat="45.68999" lon="3.34757">
        <ele>451.4763184</ele>
        <time>2011-05-22T07:05:52Z</time>
      </trkpt>
      <trkpt lat="45.69003" lon="3.34781">
        <ele>454.3602295</ele>
        <time>2011-05-22T07:06:00Z</time>
      </trkpt>
      <trkpt lat="45.69006" lon="3.34813">
        <ele>456.282959</ele>
        <time>2011-05-22T07:06:10Z</time>
      </trkpt>
      <trkpt lat="45.69007" lon="3.34841">
        <ele>457.7249756</ele>
        <time>2011-05-22T07:06:18Z</time>
      </trkpt>
      <trkpt lat="45.69003" lon="3.34867">
        <ele>459.1668701</ele>
        <time>2011-05-22T07:06:26Z</time>
      </trkpt>
      <trkpt lat="45.68993" lon="3.34889">
        <ele>461.0894775</ele>
        <time>2011-05-22T07:06:34Z</time>
      </trkpt>
      <trkpt lat="45.68983" lon="3.34906">
        <ele>463.012085</ele>
        <time>2011-05-22T07:06:41Z</time>
      </trkpt>
      <trkpt lat="45.68974" lon="3.34923">
        <ele>463.4927979</ele>
        <time>2011-05-22T07:06:47Z</time>
      </trkpt>
      <trkpt lat="45.68965" lon="3.34945">
        <ele>465.8961182</ele>
        <time>2011-05-22T07:06:54Z</time>
      </trkpt>
      <trkpt lat="45.68951" lon="3.34981">
        <ele>467.3381348</ele>
        <time>2011-05-22T07:07:04Z</time>
      </trkpt>
      <trkpt lat="45.68947" lon="3.34987">
        <ele>467.8187256</ele>
        <time>2011-05-22T07:07:06Z</time>
      </trkpt>
      <trkpt lat="45.68937" lon="3.35016">
        <ele>468.7800293</ele>
        <time>2011-05-22T07:07:14Z</time>
      </trkpt>
      <trkpt lat="45.68926" lon="3.3505">
        <ele>470.7026367</ele>
        <time>2011-05-22T07:07:23Z</time>
      </trkpt>
      <trkpt lat="45.68915" lon="3.35078">
        <ele>472.1446533</ele>
        <time>2011-05-22T07:07:31Z</time>
      </trkpt>
      <trkpt lat="45.68906" lon="3.35102">
        <ele>472.6253662</ele>
        <time>2011-05-22T07:07:38Z</time>
      </trkpt>
      <trkpt lat="45.68898" lon="3.35118">
        <ele>475.0286865</ele>
        <time>2011-05-22T07:07:43Z</time>
      </trkpt>
      <trkpt lat="45.68885" lon="3.35141">
        <ele>476.9512939</ele>
        <time>2011-05-22T07:07:51Z</time>
      </trkpt>
      <trkpt lat="45.68876" lon="3.35159">
        <ele>478.3931885</ele>
        <time>2011-05-22T07:07:58Z</time>
      </trkpt>
      <trkpt lat="45.68873" lon="3.35165">
        <ele>479.3544922</ele>
        <time>2011-05-22T07:08:00Z</time>
      </trkpt>
      <trkpt lat="45.68864" lon="3.3519">
        <ele>482.7192383</ele>
        <time>2011-05-22T07:08:09Z</time>
      </trkpt>
      <trkpt lat="45.68859" lon="3.3521">
        <ele>484.1611328</ele>
        <time>2011-05-22T07:08:16Z</time>
      </trkpt>
      <trkpt lat="45.68857" lon="3.35225">
        <ele>487.0450439</ele>
        <time>2011-05-22T07:08:21Z</time>
      </trkpt>
      <trkpt lat="45.68853" lon="3.35248">
        <ele>488.9677734</ele>
        <time>2011-05-22T07:08:29Z</time>
      </trkpt>
      <trkpt lat="45.68853" lon="3.35266">
        <ele>489.9290771</ele>
        <time>2011-05-22T07:08:35Z</time>
      </trkpt>
      <trkpt lat="45.68849" lon="3.35291">
        <ele>491.3709717</ele>
        <time>2011-05-22T07:08:43Z</time>
      </trkpt>
      <trkpt lat="45.68846" lon="3.35326">
        <ele>493.2935791</ele>
        <time>2011-05-22T07:08:54Z</time>
      </trkpt>
      <trkpt lat="45.68845" lon="3.35353">
        <ele>494.7355957</ele>
        <time>2011-05-22T07:09:02Z</time>
      </trkpt>
      <trkpt lat="45.68843" lon="3.35372">
        <ele>495.6968994</ele>
        <time>2011-05-22T07:09:08Z</time>
      </trkpt>
      <trkpt lat="45.68841" lon="3.35395">
        <ele>498.1003418</ele>
        <time>2011-05-22T07:09:15Z</time>
      </trkpt>
      <trkpt lat="45.68839" lon="3.35424">
        <ele>500.50354</ele>
        <time>2011-05-22T07:09:24Z</time>
      </trkpt>
      <trkpt lat="45.68838" lon="3.35428">
        <ele>500.50354</ele>
        <time>2011-05-22T07:09:25Z</time>
      </trkpt>
      <trkpt lat="45.68836" lon="3.35456">
        <ele>500.9841309</ele>
        <time>2011-05-22T07:09:34Z</time>
      </trkpt>
      <trkpt lat="45.68831" lon="3.3549">
        <ele>503.3874512</ele>
        <time>2011-05-22T07:09:44Z</time>
      </trkpt>
      <trkpt lat="45.68826" lon="3.35511">
        <ele>504.8294678</ele>
        <time>2011-05-22T07:09:51Z</time>
      </trkpt>
      <trkpt lat="45.68821" lon="3.35536">
        <ele>507.2327881</ele>
        <time>2011-05-22T07:10:00Z</time>
      </trkpt>
      <trkpt lat="45.68816" lon="3.35559">
        <ele>509.6361084</ele>
        <time>2011-05-22T07:10:08Z</time>
      </trkpt>
      <trkpt lat="45.68814" lon="3.3557">
        <ele>511.0780029</ele>
        <time>2011-05-22T07:10:12Z</time>
      </trkpt>
      <trkpt lat="45.68808" lon="3.35597">
        <ele>512.5200195</ele>
        <time>2011-05-22T07:10:21Z</time>
      </trkpt>
      <trkpt lat="45.68801" lon="3.35623">
        <ele>515.4040527</ele>
        <time>2011-05-22T07:10:30Z</time>
      </trkpt>
      <trkpt lat="45.68794" lon="3.35653">
        <ele>517.3266602</ele>
        <time>2011-05-22T07:10:40Z</time>
      </trkpt>
      <trkpt lat="45.68788" lon="3.35676">
        <ele>519.2492676</ele>
        <time>2011-05-22T07:10:47Z</time>
      </trkpt>
      <trkpt lat="45.68782" lon="3.35701">
        <ele>519.2492676</ele>
        <time>2011-05-22T07:10:54Z</time>
      </trkpt>
      <trkpt lat="45.68774" lon="3.35726">
        <ele>519.7298584</ele>
        <time>2011-05-22T07:11:01Z</time>
      </trkpt>
      <trkpt lat="45.68774" lon="3.3575">
        <ele>519.7298584</ele>
        <time>2011-05-22T07:11:06Z</time>
      </trkpt>
      <trkpt lat="45.68788" lon="3.35774">
        <ele>520.6912842</ele>
        <time>2011-05-22T07:11:12Z</time>
      </trkpt>
      <trkpt lat="45.68802" lon="3.35807">
        <ele>520.6912842</ele>
        <time>2011-05-22T07:11:19Z</time>
      </trkpt>
      <trkpt lat="45.68805" lon="3.35819">
        <ele>521.6525879</ele>
        <time>2011-05-22T07:11:21Z</time>
      </trkpt>
      <trkpt lat="45.68809" lon="3.35836">
        <ele>521.6525879</ele>
        <time>2011-05-22T07:11:24Z</time>
      </trkpt>
      <trkpt lat="45.6882" lon="3.35885">
        <ele>524.536499</ele>
        <time>2011-05-22T07:11:33Z</time>
      </trkpt>
      <trkpt lat="45.68827" lon="3.35915">
        <ele>525.4978027</ele>
        <time>2011-05-22T07:11:40Z</time>
      </trkpt>
      <trkpt lat="45.68838" lon="3.35953">
        <ele>526.9398193</ele>
        <time>2011-05-22T07:11:49Z</time>
      </trkpt>
      <trkpt lat="45.68851" lon="3.35995">
        <ele>530.3044434</ele>
        <time>2011-05-22T07:11:59Z</time>
      </trkpt>
      <trkpt lat="45.68852" lon="3.36002">
        <ele>530.3044434</ele>
        <time>2011-05-22T07:12:01Z</time>
      </trkpt>
      <trkpt lat="45.68844" lon="3.36011">
        <ele>529.3431396</ele>
        <time>2011-05-22T07:12:05Z</time>
      </trkpt>
      <trkpt lat="45.68827" lon="3.36016">
        <ele>526.4591064</ele>
        <time>2011-05-22T07:12:09Z</time>
      </trkpt>
      <trkpt lat="45.68807" lon="3.36034">
        <ele>523.5751953</ele>
        <time>2011-05-22T07:12:13Z</time>
      </trkpt>
      <trkpt lat="45.68798" lon="3.36051">
        <ele>523.0946045</ele>
        <time>2011-05-22T07:12:15Z</time>
      </trkpt>
      <trkpt lat="45.6879" lon="3.36071">
        <ele>521.1719971</ele>
        <time>2011-05-22T07:12:17Z</time>
      </trkpt>
      <trkpt lat="45.68776" lon="3.36114">
        <ele>516.3652344</ele>
        <time>2011-05-22T07:12:21Z</time>
      </trkpt>
      <trkpt lat="45.68759" lon="3.36139">
        <ele>512.5200195</ele>
        <time>2011-05-22T07:12:24Z</time>
      </trkpt>
      <trkpt lat="45.68751" lon="3.36142">
        <ele>511.5587158</ele>
        <time>2011-05-22T07:12:25Z</time>
      </trkpt>
      <trkpt lat="45.68743" lon="3.36142">
        <ele>511.5587158</ele>
        <time>2011-05-22T07:12:26Z</time>
      </trkpt>
      <trkpt lat="45.68728" lon="3.36134">
        <ele>512.5200195</ele>
        <time>2011-05-22T07:12:28Z</time>
      </trkpt>
      <trkpt lat="45.68691" lon="3.36102">
        <ele>511.0780029</ele>
        <time>2011-05-22T07:12:34Z</time>
      </trkpt>
      <trkpt lat="45.68665" lon="3.36099">
        <ele>512.5200195</ele>
        <time>2011-05-22T07:12:38Z</time>
      </trkpt>
      <trkpt lat="45.68653" lon="3.36107">
        <ele>512.5200195</ele>
        <time>2011-05-22T07:12:40Z</time>
      </trkpt>
      <trkpt lat="45.68632" lon="3.36122">
        <ele>513.4814453</ele>
        <time>2011-05-22T07:12:44Z</time>
      </trkpt>
      <trkpt lat="45.68609" lon="3.36123">
        <ele>514.442627</ele>
        <time>2011-05-22T07:12:49Z</time>
      </trkpt>
      <trkpt lat="45.68598" lon="3.36122">
        <ele>516.3652344</ele>
        <time>2011-05-22T07:12:53Z</time>
      </trkpt>
      <trkpt lat="45.68584" lon="3.36122">
        <ele>518.2878418</ele>
        <time>2011-05-22T07:13:00Z</time>
      </trkpt>
      <trkpt lat="45.68575" lon="3.3612">
        <ele>519.7298584</ele>
        <time>2011-05-22T07:13:05Z</time>
      </trkpt>
      <trkpt lat="45.68573" lon="3.3612">
        <ele>520.2105713</ele>
        <time>2011-05-22T07:13:06Z</time>
      </trkpt>
      <trkpt lat="45.68567" lon="3.36119">
        <ele>521.6525879</ele>
        <time>2011-05-22T07:13:09Z</time>
      </trkpt>
      <trkpt lat="45.68561" lon="3.36117">
        <ele>523.0946045</ele>
        <time>2011-05-22T07:13:13Z</time>
      </trkpt>
      <trkpt lat="45.68552" lon="3.36115">
        <ele>524.0557861</ele>
        <time>2011-05-22T07:13:18Z</time>
      </trkpt>
      <trkpt lat="45.68547" lon="3.36115">
        <ele>525.4978027</ele>
        <time>2011-05-22T07:13:21Z</time>
      </trkpt>
      <trkpt lat="45.68544" lon="3.36116">
        <ele>526.4591064</ele>
        <time>2011-05-22T07:13:23Z</time>
      </trkpt>
      <trkpt lat="45.68539" lon="3.36117">
        <ele>527.901001</ele>
        <time>2011-05-22T07:13:26Z</time>
      </trkpt>
      <trkpt lat="45.68531" lon="3.36118">
        <ele>529.3431396</ele>
        <time>2011-05-22T07:13:31Z</time>
      </trkpt>
      <trkpt lat="45.68525" lon="3.36118">
        <ele>531.2657471</ele>
        <time>2011-05-22T07:13:36Z</time>
      </trkpt>
      <trkpt lat="45.68519" lon="3.36118">
        <ele>532.2270508</ele>
        <time>2011-05-22T07:13:40Z</time>
      </trkpt>
      <trkpt lat="45.68509" lon="3.36119">
        <ele>534.1496582</ele>
        <time>2011-05-22T07:13:48Z</time>
      </trkpt>
      <trkpt lat="45.68497" lon="3.36122">
        <ele>536.5531006</ele>
        <time>2011-05-22T07:13:57Z</time>
      </trkpt>
      <trkpt lat="45.6849" lon="3.36123">
        <ele>537.5142822</ele>
        <time>2011-05-22T07:14:02Z</time>
      </trkpt>
      <trkpt lat="45.68484" lon="3.36124">
        <ele>539.4368896</ele>
        <time>2011-05-22T07:14:06Z</time>
      </trkpt>
      <trkpt lat="45.68474" lon="3.36124">
        <ele>540.8789063</ele>
        <time>2011-05-22T07:14:13Z</time>
      </trkpt>
      <trkpt lat="45.6847" lon="3.36126">
        <ele>541.84021</ele>
        <time>2011-05-22T07:14:16Z</time>
      </trkpt>
      <trkpt lat="45.68464" lon="3.36127">
        <ele>541.84021</ele>
        <time>2011-05-22T07:14:20Z</time>
      </trkpt>
      <trkpt lat="45.68451" lon="3.3613">
        <ele>543.2821045</ele>
        <time>2011-05-22T07:14:28Z</time>
      </trkpt>
      <trkpt lat="45.68439" lon="3.36134">
        <ele>543.7628174</ele>
        <time>2011-05-22T07:14:35Z</time>
      </trkpt>
      <trkpt lat="45.68428" lon="3.36138">
        <ele>545.6855469</ele>
        <time>2011-05-22T07:14:42Z</time>
      </trkpt>
      <trkpt lat="45.68416" lon="3.36141">
        <ele>547.1274414</ele>
        <time>2011-05-22T07:14:49Z</time>
      </trkpt>
      <trkpt lat="45.68407" lon="3.36145">
        <ele>549.5307617</ele>
        <time>2011-05-22T07:14:55Z</time>
      </trkpt>
      <trkpt lat="45.68396" lon="3.3615">
        <ele>550.4921875</ele>
        <time>2011-05-22T07:15:01Z</time>
      </trkpt>
      <trkpt lat="45.68379" lon="3.3616">
        <ele>551.4533691</ele>
        <time>2011-05-22T07:15:09Z</time>
      </trkpt>
      <trkpt lat="45.68357" lon="3.36177">
        <ele>552.8952637</ele>
        <time>2011-05-22T07:15:20Z</time>
      </trkpt>
      <trkpt lat="45.68339" lon="3.36195">
        <ele>553.8566895</ele>
        <time>2011-05-22T07:15:29Z</time>
      </trkpt>
      <trkpt lat="45.68336" lon="3.362">
        <ele>554.3374023</ele>
        <time>2011-05-22T07:15:31Z</time>
      </trkpt>
      <trkpt lat="45.68323" lon="3.36217">
        <ele>554.8178711</ele>
        <time>2011-05-22T07:15:39Z</time>
      </trkpt>
      <trkpt lat="45.68308" lon="3.36236">
        <ele>557.7021484</ele>
        <time>2011-05-22T07:15:48Z</time>
      </trkpt>
      <trkpt lat="45.68303" lon="3.3624">
        <ele>557.7021484</ele>
        <time>2011-05-22T07:15:51Z</time>
      </trkpt>
      <trkpt lat="45.68296" lon="3.36231">
        <ele>557.2214355</ele>
        <time>2011-05-22T07:15:55Z</time>
      </trkpt>
      <trkpt lat="45.68287" lon="3.36203">
        <ele>555.7792969</ele>
        <time>2011-05-22T07:16:01Z</time>
      </trkpt>
      <trkpt lat="45.68285" lon="3.36197">
        <ele>554.8178711</ele>
        <time>2011-05-22T07:16:02Z</time>
      </trkpt>
      <trkpt lat="45.6828" lon="3.36185">
        <ele>553.8566895</ele>
        <time>2011-05-22T07:16:04Z</time>
      </trkpt>
      <trkpt lat="45.68262" lon="3.36151">
        <ele>553.8566895</ele>
        <time>2011-05-22T07:16:10Z</time>
      </trkpt>
      <trkpt lat="45.68255" lon="3.36122">
        <ele>553.8566895</ele>
        <time>2011-05-22T07:16:14Z</time>
      </trkpt>
      <trkpt lat="45.68251" lon="3.36086">
        <ele>554.3374023</ele>
        <time>2011-05-22T07:16:19Z</time>
      </trkpt>
      <trkpt lat="45.68241" lon="3.36042">
        <ele>553.8566895</ele>
        <time>2011-05-22T07:16:25Z</time>
      </trkpt>
      <trkpt lat="45.68223" lon="3.36009">
        <ele>553.3759766</ele>
        <time>2011-05-22T07:16:31Z</time>
      </trkpt>
      <trkpt lat="45.68215" lon="3.36004">
        <ele>555.7792969</ele>
        <time>2011-05-22T07:16:33Z</time>
      </trkpt>
      <trkpt lat="45.68208" lon="3.36001">
        <ele>556.2600098</ele>
        <time>2011-05-22T07:16:35Z</time>
      </trkpt>
      <trkpt lat="45.68187" lon="3.35988">
        <ele>557.7021484</ele>
        <time>2011-05-22T07:16:41Z</time>
      </trkpt>
      <trkpt lat="45.68176" lon="3.35986">
        <ele>557.7021484</ele>
        <time>2011-05-22T07:16:45Z</time>
      </trkpt>
      <trkpt lat="45.68161" lon="3.35994">
        <ele>559.144043</ele>
        <time>2011-05-22T07:16:51Z</time>
      </trkpt>
      <trkpt lat="45.68141" lon="3.36003">
        <ele>562.0280762</ele>
        <time>2011-05-22T07:16:59Z</time>
      </trkpt>
      <trkpt lat="45.6814" lon="3.36005">
        <ele>562.0280762</ele>
        <time>2011-05-22T07:17:00Z</time>
      </trkpt>
      <trkpt lat="45.68127" lon="3.36016">
        <ele>562.9892578</ele>
        <time>2011-05-22T07:17:06Z</time>
      </trkpt>
      <trkpt lat="45.68114" lon="3.3603">
        <ele>564.9118652</ele>
        <time>2011-05-22T07:17:13Z</time>
      </trkpt>
      <trkpt lat="45.68103" lon="3.36046">
        <ele>566.8344727</ele>
        <time>2011-05-22T07:17:20Z</time>
      </trkpt>
      <trkpt lat="45.68098" lon="3.36066">
        <ele>568.7570801</ele>
        <time>2011-05-22T07:17:26Z</time>
      </trkpt>
      <trkpt lat="45.68088" lon="3.36091">
        <ele>567.3151855</ele>
        <time>2011-05-22T07:17:34Z</time>
      </trkpt>
      <trkpt lat="45.68085" lon="3.36095">
        <ele>565.873291</ele>
        <time>2011-05-22T07:17:35Z</time>
      </trkpt>
      <trkpt lat="45.68071" lon="3.36111">
        <ele>564.4311523</ele>
        <time>2011-05-22T07:17:39Z</time>
      </trkpt>
      <trkpt lat="45.68063" lon="3.36114">
        <ele>564.4311523</ele>
        <time>2011-05-22T07:17:41Z</time>
      </trkpt>
      <trkpt lat="45.68045" lon="3.36117">
        <ele>560.1052246</ele>
        <time>2011-05-22T07:17:45Z</time>
      </trkpt>
      <trkpt lat="45.68027" lon="3.36114">
        <ele>559.144043</ele>
        <time>2011-05-22T07:17:50Z</time>
      </trkpt>
      <trkpt lat="45.68018" lon="3.36115">
        <ele>557.7021484</ele>
        <time>2011-05-22T07:17:53Z</time>
      </trkpt>
      <trkpt lat="45.68009" lon="3.36116">
        <ele>555.298584</ele>
        <time>2011-05-22T07:17:56Z</time>
      </trkpt>
      <trkpt lat="45.67992" lon="3.36118">
        <ele>553.3759766</ele>
        <time>2011-05-22T07:18:01Z</time>
      </trkpt>
      <trkpt lat="45.67984" lon="3.3612">
        <ele>551.4533691</ele>
        <time>2011-05-22T07:18:03Z</time>
      </trkpt>
      <trkpt lat="45.67963" lon="3.36126">
        <ele>550.9726563</ele>
        <time>2011-05-22T07:18:07Z</time>
      </trkpt>
      <trkpt lat="45.67936" lon="3.3613">
        <ele>550.4921875</ele>
        <time>2011-05-22T07:18:12Z</time>
      </trkpt>
      <trkpt lat="45.67926" lon="3.3613">
        <ele>550.0114746</ele>
        <time>2011-05-22T07:18:14Z</time>
      </trkpt>
      <trkpt lat="45.679" lon="3.36128">
        <ele>550.9726563</ele>
        <time>2011-05-22T07:18:19Z</time>
      </trkpt>
      <trkpt lat="45.67883" lon="3.36131">
        <ele>551.4533691</ele>
        <time>2011-05-22T07:18:23Z</time>
      </trkpt>
      <trkpt lat="45.67868" lon="3.36135">
        <ele>550.9726563</ele>
        <time>2011-05-22T07:18:26Z</time>
      </trkpt>
      <trkpt lat="45.67858" lon="3.36137">
        <ele>550.9726563</ele>
        <time>2011-05-22T07:18:28Z</time>
      </trkpt>
      <trkpt lat="45.67835" lon="3.36142">
        <ele>551.4533691</ele>
        <time>2011-05-22T07:18:33Z</time>
      </trkpt>
      <trkpt lat="45.67812" lon="3.36145">
        <ele>552.8952637</ele>
        <time>2011-05-22T07:18:38Z</time>
      </trkpt>
      <trkpt lat="45.67793" lon="3.36157">
        <ele>552.4145508</ele>
        <time>2011-05-22T07:18:43Z</time>
      </trkpt>
      <trkpt lat="45.6779" lon="3.36163">
        <ele>550.9726563</ele>
        <time>2011-05-22T07:18:44Z</time>
      </trkpt>
      <trkpt lat="45.67779" lon="3.36181">
        <ele>549.5307617</ele>
        <time>2011-05-22T07:18:47Z</time>
      </trkpt>
      <trkpt lat="45.67776" lon="3.36187">
        <ele>550.0114746</ele>
        <time>2011-05-22T07:18:48Z</time>
      </trkpt>
      <trkpt lat="45.67768" lon="3.36208">
        <ele>549.0500488</ele>
        <time>2011-05-22T07:18:52Z</time>
      </trkpt>
      <trkpt lat="45.67755" lon="3.36218">
        <ele>546.6468506</ele>
        <time>2011-05-22T07:18:57Z</time>
      </trkpt>
      <trkpt lat="45.67747" lon="3.36224">
        <ele>545.204834</ele>
        <time>2011-05-22T07:19:00Z</time>
      </trkpt>
      <trkpt lat="45.67737" lon="3.36235">
        <ele>543.2821045</ele>
        <time>2011-05-22T07:19:03Z</time>
      </trkpt>
      <trkpt lat="45.67729" lon="3.36243">
        <ele>542.3209229</ele>
        <time>2011-05-22T07:19:05Z</time>
      </trkpt>
      <trkpt lat="45.67719" lon="3.36245">
        <ele>542.3209229</ele>
        <time>2011-05-22T07:19:07Z</time>
      </trkpt>
      <trkpt lat="45.677" lon="3.36237">
        <ele>543.7628174</ele>
        <time>2011-05-22T07:19:11Z</time>
      </trkpt>
      <trkpt lat="45.67681" lon="3.36228">
        <ele>544.7242432</ele>
        <time>2011-05-22T07:19:16Z</time>
      </trkpt>
      <trkpt lat="45.67677" lon="3.36227">
        <ele>544.7242432</ele>
        <time>2011-05-22T07:19:17Z</time>
      </trkpt>
      <trkpt lat="45.67666" lon="3.36227">
        <ele>543.7628174</ele>
        <time>2011-05-22T07:19:19Z</time>
      </trkpt>
      <trkpt lat="45.67651" lon="3.3623">
        <ele>544.2436523</ele>
        <time>2011-05-22T07:19:22Z</time>
      </trkpt>
      <trkpt lat="45.67622" lon="3.36229">
        <ele>544.2436523</ele>
        <time>2011-05-22T07:19:28Z</time>
      </trkpt>
      <trkpt lat="45.67613" lon="3.36229">
        <ele>544.2436523</ele>
        <time>2011-05-22T07:19:31Z</time>
      </trkpt>
      <trkpt lat="45.67609" lon="3.36229">
        <ele>543.7628174</ele>
        <time>2011-05-22T07:19:36Z</time>
      </trkpt>
      <trkpt lat="45.67603" lon="3.3623">
        <ele>544.2436523</ele>
        <time>2011-05-22T07:19:41Z</time>
      </trkpt>
      <trkpt lat="45.67589" lon="3.36229">
        <ele>543.7628174</ele>
        <time>2011-05-22T07:19:46Z</time>
      </trkpt>
      <trkpt lat="45.67583" lon="3.36227">
        <ele>544.2436523</ele>
        <time>2011-05-22T07:19:48Z</time>
      </trkpt>
      <trkpt lat="45.67561" lon="3.3622">
        <ele>544.2436523</ele>
        <time>2011-05-22T07:19:54Z</time>
      </trkpt>
      <trkpt lat="45.67549" lon="3.36215">
        <ele>544.2436523</ele>
        <time>2011-05-22T07:19:58Z</time>
      </trkpt>
      <trkpt lat="45.67543" lon="3.36216">
        <ele>543.7628174</ele>
        <time>2011-05-22T07:20:00Z</time>
      </trkpt>
      <trkpt lat="45.67518" lon="3.36213">
        <ele>544.7242432</ele>
        <time>2011-05-22T07:20:07Z</time>
      </trkpt>
      <trkpt lat="45.67504" lon="3.36214">
        <ele>546.6468506</ele>
        <time>2011-05-22T07:20:11Z</time>
      </trkpt>
      <trkpt lat="45.6749" lon="3.36217">
        <ele>547.6081543</ele>
        <time>2011-05-22T07:20:16Z</time>
      </trkpt>
      <trkpt lat="45.67474" lon="3.36223">
        <ele>549.0500488</ele>
        <time>2011-05-22T07:20:21Z</time>
      </trkpt>
      <trkpt lat="45.67459" lon="3.36225">
        <ele>550.0114746</ele>
        <time>2011-05-22T07:20:26Z</time>
      </trkpt>
      <trkpt lat="45.67441" lon="3.36231">
        <ele>550.9726563</ele>
        <time>2011-05-22T07:20:31Z</time>
      </trkpt>
      <trkpt lat="45.67417" lon="3.36237">
        <ele>551.934082</ele>
        <time>2011-05-22T07:20:38Z</time>
      </trkpt>
      <trkpt lat="45.6741" lon="3.36238">
        <ele>551.934082</ele>
        <time>2011-05-22T07:20:40Z</time>
      </trkpt>
      <trkpt lat="45.67404" lon="3.36257">
        <ele>550.0114746</ele>
        <time>2011-05-22T07:20:44Z</time>
      </trkpt>
      <trkpt lat="45.67395" lon="3.3628">
        <ele>549.0500488</ele>
        <time>2011-05-22T07:20:48Z</time>
      </trkpt>
      <trkpt lat="45.67388" lon="3.36291">
        <ele>549.0500488</ele>
        <time>2011-05-22T07:20:50Z</time>
      </trkpt>
      <trkpt lat="45.67377" lon="3.36306">
        <ele>548.5693359</ele>
        <time>2011-05-22T07:20:53Z</time>
      </trkpt>
      <trkpt lat="45.67352" lon="3.36345">
        <ele>547.6081543</ele>
        <time>2011-05-22T07:21:00Z</time>
      </trkpt>
      <trkpt lat="45.67335" lon="3.36364">
        <ele>549.5307617</ele>
        <time>2011-05-22T07:21:05Z</time>
      </trkpt>
      <trkpt lat="45.67331" lon="3.36369">
        <ele>550.9726563</ele>
        <time>2011-05-22T07:21:07Z</time>
      </trkpt>
      <trkpt lat="45.67325" lon="3.36376">
        <ele>552.4145508</ele>
        <time>2011-05-22T07:21:13Z</time>
      </trkpt>
      <trkpt lat="45.67319" lon="3.3639">
        <ele>552.8952637</ele>
        <time>2011-05-22T07:21:20Z</time>
      </trkpt>
      <trkpt lat="45.67309" lon="3.36397">
        <ele>553.8566895</ele>
        <time>2011-05-22T07:21:24Z</time>
      </trkpt>
      <trkpt lat="45.67299" lon="3.36403">
        <ele>554.3374023</ele>
        <time>2011-05-22T07:21:28Z</time>
      </trkpt>
      <trkpt lat="45.67284" lon="3.364">
        <ele>555.298584</ele>
        <time>2011-05-22T07:21:34Z</time>
      </trkpt>
      <trkpt lat="45.67272" lon="3.36399">
        <ele>557.2214355</ele>
        <time>2011-05-22T07:21:39Z</time>
      </trkpt>
      <trkpt lat="45.67264" lon="3.36403">
        <ele>559.6247559</ele>
        <time>2011-05-22T07:21:45Z</time>
      </trkpt>
      <trkpt lat="45.67259" lon="3.36407">
        <ele>560.1052246</ele>
        <time>2011-05-22T07:21:51Z</time>
      </trkpt>
      <trkpt lat="45.67256" lon="3.3641">
        <ele>560.1052246</ele>
        <time>2011-05-22T07:21:54Z</time>
      </trkpt>
      <trkpt lat="45.67252" lon="3.36414">
        <ele>560.1052246</ele>
        <time>2011-05-22T07:21:57Z</time>
      </trkpt>
      <trkpt lat="45.67246" lon="3.36426">
        <ele>560.5859375</ele>
        <time>2011-05-22T07:22:02Z</time>
      </trkpt>
      <trkpt lat="45.67241" lon="3.36448">
        <ele>559.144043</ele>
        <time>2011-05-22T07:22:11Z</time>
      </trkpt>
      <trkpt lat="45.67241" lon="3.36451">
        <ele>559.144043</ele>
        <time>2011-05-22T07:22:13Z</time>
      </trkpt>
      <trkpt lat="45.67238" lon="3.36453">
        <ele>558.6633301</ele>
        <time>2011-05-22T07:22:15Z</time>
      </trkpt>
      <trkpt lat="45.6723" lon="3.36453">
        <ele>558.1828613</ele>
        <time>2011-05-22T07:22:20Z</time>
      </trkpt>
      <trkpt lat="45.6722" lon="3.36448">
        <ele>558.6633301</ele>
        <time>2011-05-22T07:22:26Z</time>
      </trkpt>
      <trkpt lat="45.67212" lon="3.36448">
        <ele>560.1052246</ele>
        <time>2011-05-22T07:22:32Z</time>
      </trkpt>
      <trkpt lat="45.67205" lon="3.36449">
        <ele>560.5859375</ele>
        <time>2011-05-22T07:22:37Z</time>
      </trkpt>
      <trkpt lat="45.67203" lon="3.36449">
        <ele>561.5473633</ele>
        <time>2011-05-22T07:22:38Z</time>
      </trkpt>
      <trkpt lat="45.67194" lon="3.36452">
        <ele>562.9892578</ele>
        <time>2011-05-22T07:22:42Z</time>
      </trkpt>
      <trkpt lat="45.67183" lon="3.36458">
        <ele>564.4311523</ele>
        <time>2011-05-22T07:22:48Z</time>
      </trkpt>
      <trkpt lat="45.67172" lon="3.3646">
        <ele>565.873291</ele>
        <time>2011-05-22T07:22:53Z</time>
      </trkpt>
      <trkpt lat="45.67159" lon="3.36461">
        <ele>566.8344727</ele>
        <time>2011-05-22T07:22:58Z</time>
      </trkpt>
      <trkpt lat="45.67151" lon="3.36456">
        <ele>567.3151855</ele>
        <time>2011-05-22T07:23:04Z</time>
      </trkpt>
      <trkpt lat="45.67139" lon="3.36446">
        <ele>565.3925781</ele>
        <time>2011-05-22T07:23:10Z</time>
      </trkpt>
      <trkpt lat="45.67127" lon="3.3644">
        <ele>566.3537598</ele>
        <time>2011-05-22T07:23:14Z</time>
      </trkpt>
      <trkpt lat="45.67105" lon="3.36433">
        <ele>567.7956543</ele>
        <time>2011-05-22T07:23:21Z</time>
      </trkpt>
      <trkpt lat="45.67101" lon="3.36433">
        <ele>568.7570801</ele>
        <time>2011-05-22T07:23:23Z</time>
      </trkpt>
      <trkpt lat="45.67092" lon="3.36434">
        <ele>569.237793</ele>
        <time>2011-05-22T07:23:27Z</time>
      </trkpt>
      <trkpt lat="45.67084" lon="3.36443">
        <ele>570.6796875</ele>
        <time>2011-05-22T07:23:33Z</time>
      </trkpt>
      <trkpt lat="45.67081" lon="3.36447">
        <ele>572.6025391</ele>
        <time>2011-05-22T07:23:36Z</time>
      </trkpt>
      <trkpt lat="45.67077" lon="3.36457">
        <ele>573.083252</ele>
        <time>2011-05-22T07:23:41Z</time>
      </trkpt>
      <trkpt lat="45.67073" lon="3.36472">
        <ele>574.0444336</ele>
        <time>2011-05-22T07:23:49Z</time>
      </trkpt>
      <trkpt lat="45.6707" lon="3.3648">
        <ele>575.0058594</ele>
        <time>2011-05-22T07:23:55Z</time>
      </trkpt>
      <trkpt lat="45.67063" lon="3.36489">
        <ele>575.4863281</ele>
        <time>2011-05-22T07:24:00Z</time>
      </trkpt>
      <trkpt lat="45.6705" lon="3.36503">
        <ele>577.4091797</ele>
        <time>2011-05-22T07:24:07Z</time>
      </trkpt>
      <trkpt lat="45.67038" lon="3.36511">
        <ele>578.3703613</ele>
        <time>2011-05-22T07:24:13Z</time>
      </trkpt>
      <trkpt lat="45.67023" lon="3.36519">
        <ele>578.8510742</ele>
        <time>2011-05-22T07:24:19Z</time>
      </trkpt>
      <trkpt lat="45.67005" lon="3.36527">
        <ele>579.331543</ele>
        <time>2011-05-22T07:24:26Z</time>
      </trkpt>
      <trkpt lat="45.66988" lon="3.36541">
        <ele>578.8510742</ele>
        <time>2011-05-22T07:24:32Z</time>
      </trkpt>
      <trkpt lat="45.66972" lon="3.36544">
        <ele>577.4091797</ele>
        <time>2011-05-22T07:24:37Z</time>
      </trkpt>
      <trkpt lat="45.66964" lon="3.36541">
        <ele>576.4477539</ele>
        <time>2011-05-22T07:24:40Z</time>
      </trkpt>
      <trkpt lat="45.66961" lon="3.36541">
        <ele>575.967041</ele>
        <time>2011-05-22T07:24:41Z</time>
      </trkpt>
      <trkpt lat="45.66958" lon="3.36552">
        <ele>576.9284668</ele>
        <time>2011-05-22T07:24:46Z</time>
      </trkpt>
      <trkpt lat="45.66953" lon="3.36563">
        <ele>578.3703613</ele>
        <time>2011-05-22T07:24:51Z</time>
      </trkpt>
      <trkpt lat="45.66944" lon="3.36578">
        <ele>580.7736816</ele>
        <time>2011-05-22T07:24:59Z</time>
      </trkpt>
      <trkpt lat="45.66931" lon="3.36593">
        <ele>581.7348633</ele>
        <time>2011-05-22T07:25:06Z</time>
      </trkpt>
      <trkpt lat="45.66921" lon="3.36606">
        <ele>583.1767578</ele>
        <time>2011-05-22T07:25:11Z</time>
      </trkpt>
      <trkpt lat="45.66913" lon="3.36627">
        <ele>582.6962891</ele>
        <time>2011-05-22T07:25:16Z</time>
      </trkpt>
      <trkpt lat="45.66907" lon="3.3665">
        <ele>581.7348633</ele>
        <time>2011-05-22T07:25:20Z</time>
      </trkpt>
      <trkpt lat="45.66893" lon="3.36692">
        <ele>580.7736816</ele>
        <time>2011-05-22T07:25:26Z</time>
      </trkpt>
      <trkpt lat="45.66881" lon="3.36725">
        <ele>582.2155762</ele>
        <time>2011-05-22T07:25:31Z</time>
      </trkpt>
      <trkpt lat="45.66879" lon="3.36749">
        <ele>582.2155762</ele>
        <time>2011-05-22T07:25:35Z</time>
      </trkpt>
      <trkpt lat="45.66882" lon="3.36763">
        <ele>580.7736816</ele>
        <time>2011-05-22T07:25:37Z</time>
      </trkpt>
      <trkpt lat="45.66887" lon="3.36779">
        <ele>578.8510742</ele>
        <time>2011-05-22T07:25:39Z</time>
      </trkpt>
      <trkpt lat="45.66892" lon="3.36825">
        <ele>579.331543</ele>
        <time>2011-05-22T07:25:44Z</time>
      </trkpt>
      <trkpt lat="45.66894" lon="3.36842">
        <ele>579.331543</ele>
        <time>2011-05-22T07:25:46Z</time>
      </trkpt>
      <trkpt lat="45.66898" lon="3.36866">
        <ele>579.331543</ele>
        <time>2011-05-22T07:25:49Z</time>
      </trkpt>
      <trkpt lat="45.66899" lon="3.36882">
        <ele>578.8510742</ele>
        <time>2011-05-22T07:25:51Z</time>
      </trkpt>
      <trkpt lat="45.6689" lon="3.36894">
        <ele>578.8510742</ele>
        <time>2011-05-22T07:25:55Z</time>
      </trkpt>
      <trkpt lat="45.66876" lon="3.36879">
        <ele>579.331543</ele>
        <time>2011-05-22T07:25:59Z</time>
      </trkpt>
      <trkpt lat="45.66869" lon="3.36868">
        <ele>579.8122559</ele>
        <time>2011-05-22T07:26:01Z</time>
      </trkpt>
      <trkpt lat="45.66861" lon="3.36844">
        <ele>580.7736816</ele>
        <time>2011-05-22T07:26:05Z</time>
      </trkpt>
      <trkpt lat="45.66848" lon="3.36818">
        <ele>583.1767578</ele>
        <time>2011-05-22T07:26:11Z</time>
      </trkpt>
      <trkpt lat="45.66834" lon="3.36813">
        <ele>583.6574707</ele>
        <time>2011-05-22T07:26:15Z</time>
      </trkpt>
      <trkpt lat="45.66809" lon="3.36815">
        <ele>584.1381836</ele>
        <time>2011-05-22T07:26:21Z</time>
      </trkpt>
      <trkpt lat="45.6679" lon="3.36824">
        <ele>586.5415039</ele>
        <time>2011-05-22T07:26:27Z</time>
      </trkpt>
      <trkpt lat="45.66784" lon="3.36841">
        <ele>587.9833984</ele>
        <time>2011-05-22T07:26:32Z</time>
      </trkpt>
      <trkpt lat="45.66777" lon="3.36862">
        <ele>588.9450684</ele>
        <time>2011-05-22T07:26:37Z</time>
      </trkpt>
      <trkpt lat="45.66769" lon="3.36883">
        <ele>589.90625</ele>
        <time>2011-05-22T07:26:42Z</time>
      </trkpt>
      <trkpt lat="45.66754" lon="3.369">
        <ele>591.8288574</ele>
        <time>2011-05-22T07:26:49Z</time>
      </trkpt>
      <trkpt lat="45.66736" lon="3.3691">
        <ele>593.7514648</ele>
        <time>2011-05-22T07:26:56Z</time>
      </trkpt>
      <trkpt lat="45.66722" lon="3.36924">
        <ele>594.2321777</ele>
        <time>2011-05-22T07:27:03Z</time>
      </trkpt>
      <trkpt lat="45.66709" lon="3.36935">
        <ele>595.6740723</ele>
        <time>2011-05-22T07:27:09Z</time>
      </trkpt>
      <trkpt lat="45.66699" lon="3.36947">
        <ele>597.1159668</ele>
        <time>2011-05-22T07:27:15Z</time>
      </trkpt>
      <trkpt lat="45.66687" lon="3.36952">
        <ele>599.0385742</ele>
        <time>2011-05-22T07:27:22Z</time>
      </trkpt>
      <trkpt lat="45.66677" lon="3.36954">
        <ele>600.4807129</ele>
        <time>2011-05-22T07:27:28Z</time>
      </trkpt>
      <trkpt lat="45.66674" lon="3.36963">
        <ele>601.9226074</ele>
        <time>2011-05-22T07:27:32Z</time>
      </trkpt>
      <trkpt lat="45.66672" lon="3.36967">
        <ele>602.4030762</ele>
        <time>2011-05-22T07:27:34Z</time>
      </trkpt>
      <trkpt lat="45.66671" lon="3.36971">
        <ele>603.364502</ele>
        <time>2011-05-22T07:27:36Z</time>
      </trkpt>
      <trkpt lat="45.66673" lon="3.36986">
        <ele>604.3261719</ele>
        <time>2011-05-22T07:27:42Z</time>
      </trkpt>
      <trkpt lat="45.6667" lon="3.37">
        <ele>604.8066406</ele>
        <time>2011-05-22T07:27:48Z</time>
      </trkpt>
      <trkpt lat="45.66666" lon="3.3701">
        <ele>605.2873535</ele>
        <time>2011-05-22T07:27:52Z</time>
      </trkpt>
      <trkpt lat="45.66655" lon="3.37027">
        <ele>607.2099609</ele>
        <time>2011-05-22T07:28:00Z</time>
      </trkpt>
      <trkpt lat="45.66653" lon="3.37031">
        <ele>607.6906738</ele>
        <time>2011-05-22T07:28:02Z</time>
      </trkpt>
      <trkpt lat="45.66647" lon="3.37044">
        <ele>608.6518555</ele>
        <time>2011-05-22T07:28:08Z</time>
      </trkpt>
      <trkpt lat="45.66643" lon="3.37054">
        <ele>609.6132813</ele>
        <time>2011-05-22T07:28:13Z</time>
      </trkpt>
      <trkpt lat="45.66641" lon="3.37056">
        <ele>609.6132813</ele>
        <time>2011-05-22T07:28:14Z</time>
      </trkpt>
      <trkpt lat="45.66635" lon="3.3707">
        <ele>612.0166016</ele>
        <time>2011-05-22T07:28:21Z</time>
      </trkpt>
      <trkpt lat="45.66632" lon="3.37082">
        <ele>613.9389648</ele>
        <time>2011-05-22T07:28:27Z</time>
      </trkpt>
      <trkpt lat="45.66628" lon="3.37087">
        <ele>614.4196777</ele>
        <time>2011-05-22T07:28:30Z</time>
      </trkpt>
      <trkpt lat="45.66626" lon="3.37093">
        <ele>615.8618164</ele>
        <time>2011-05-22T07:28:36Z</time>
      </trkpt>
      <trkpt lat="45.66622" lon="3.37105">
        <ele>616.822998</ele>
        <time>2011-05-22T07:28:43Z</time>
      </trkpt>
      <trkpt lat="45.66618" lon="3.37121">
        <ele>619.7070313</ele>
        <time>2011-05-22T07:28:51Z</time>
      </trkpt>
      <trkpt lat="45.66615" lon="3.3713">
        <ele>620.668457</ele>
        <time>2011-05-22T07:28:55Z</time>
      </trkpt>
      <trkpt lat="45.66608" lon="3.37145">
        <ele>622.5910645</ele>
        <time>2011-05-22T07:29:03Z</time>
      </trkpt>
      <trkpt lat="45.66602" lon="3.37158">
        <ele>623.0717773</ele>
        <time>2011-05-22T07:29:11Z</time>
      </trkpt>
      <trkpt lat="45.66597" lon="3.3717">
        <ele>625.4748535</ele>
        <time>2011-05-22T07:29:19Z</time>
      </trkpt>
      <trkpt lat="45.66592" lon="3.37181">
        <ele>628.3588867</ele>
        <time>2011-05-22T07:29:26Z</time>
      </trkpt>
      <trkpt lat="45.6659" lon="3.37185">
        <ele>628.8395996</ele>
        <time>2011-05-22T07:29:31Z</time>
      </trkpt>
      <trkpt lat="45.66588" lon="3.37193">
        <ele>630.762207</ele>
        <time>2011-05-22T07:29:36Z</time>
      </trkpt>
      <trkpt lat="45.6658" lon="3.37198">
        <ele>632.2041016</ele>
        <time>2011-05-22T07:29:41Z</time>
      </trkpt>
      <trkpt lat="45.66573" lon="3.37191">
        <ele>633.6459961</ele>
        <time>2011-05-22T07:29:48Z</time>
      </trkpt>
      <trkpt lat="45.66568" lon="3.37183">
        <ele>634.126709</ele>
        <time>2011-05-22T07:29:54Z</time>
      </trkpt>
      <trkpt lat="45.66566" lon="3.37181">
        <ele>634.126709</ele>
        <time>2011-05-22T07:29:56Z</time>
      </trkpt>
      <trkpt lat="45.66564" lon="3.37169">
        <ele>636.0495605</ele>
        <time>2011-05-22T07:30:03Z</time>
      </trkpt>
      <trkpt lat="45.66563" lon="3.37168">
        <ele>636.5302734</ele>
        <time>2011-05-22T07:30:04Z</time>
      </trkpt>
      <trkpt lat="45.66563" lon="3.37155">
        <ele>638.9335938</ele>
        <time>2011-05-22T07:30:12Z</time>
      </trkpt>
      <trkpt lat="45.66562" lon="3.37147">
        <ele>639.8947754</ele>
        <time>2011-05-22T07:30:17Z</time>
      </trkpt>
      <trkpt lat="45.66563" lon="3.3714">
        <ele>640.3754883</ele>
        <time>2011-05-22T07:30:20Z</time>
      </trkpt>
      <trkpt lat="45.66559" lon="3.37126">
        <ele>641.3366699</ele>
        <time>2011-05-22T07:30:28Z</time>
      </trkpt>
      <trkpt lat="45.66556" lon="3.37125">
        <ele>641.8173828</ele>
        <time>2011-05-22T07:30:30Z</time>
      </trkpt>
      <trkpt lat="45.6655" lon="3.37125">
        <ele>643.7399902</ele>
        <time>2011-05-22T07:30:36Z</time>
      </trkpt>
      <trkpt lat="45.66546" lon="3.3713">
        <ele>645.1818848</ele>
        <time>2011-05-22T07:30:40Z</time>
      </trkpt>
      <trkpt lat="45.66543" lon="3.3714">
        <ele>645.6625977</ele>
        <time>2011-05-22T07:30:46Z</time>
      </trkpt>
      <trkpt lat="45.66542" lon="3.37144">
        <ele>645.6625977</ele>
        <time>2011-05-22T07:30:48Z</time>
      </trkpt>
      <trkpt lat="45.66536" lon="3.37154">
        <ele>647.5852051</ele>
        <time>2011-05-22T07:30:53Z</time>
      </trkpt>
      <trkpt lat="45.66531" lon="3.37172">
        <ele>649.0270996</ele>
        <time>2011-05-22T07:31:01Z</time>
      </trkpt>
      <trkpt lat="45.66527" lon="3.37178">
        <ele>649.9885254</ele>
        <time>2011-05-22T07:31:04Z</time>
      </trkpt>
      <trkpt lat="45.66513" lon="3.37186">
        <ele>650.949707</ele>
        <time>2011-05-22T07:31:12Z</time>
      </trkpt>
      <trkpt lat="45.66496" lon="3.37195">
        <ele>651.9111328</ele>
        <time>2011-05-22T07:31:20Z</time>
      </trkpt>
      <trkpt lat="45.66477" lon="3.37206">
        <ele>651.9111328</ele>
        <time>2011-05-22T07:31:27Z</time>
      </trkpt>
      <trkpt lat="45.66455" lon="3.37215">
        <ele>651.9111328</ele>
        <time>2011-05-22T07:31:34Z</time>
      </trkpt>
      <trkpt lat="45.66431" lon="3.37228">
        <ele>652.3918457</ele>
        <time>2011-05-22T07:31:41Z</time>
      </trkpt>
      <trkpt lat="45.66409" lon="3.3724">
        <ele>653.3532715</ele>
        <time>2011-05-22T07:31:48Z</time>
      </trkpt>
      <trkpt lat="45.66389" lon="3.3725">
        <ele>654.795166</ele>
        <time>2011-05-22T07:31:55Z</time>
      </trkpt>
      <trkpt lat="45.66373" lon="3.37254">
        <ele>654.795166</ele>
        <time>2011-05-22T07:32:01Z</time>
      </trkpt>
      <trkpt lat="45.66362" lon="3.37254">
        <ele>653.8339844</ele>
        <time>2011-05-22T07:32:04Z</time>
      </trkpt>
      <trkpt lat="45.66343" lon="3.37265">
        <ele>653.3532715</ele>
        <time>2011-05-22T07:32:09Z</time>
      </trkpt>
      <trkpt lat="45.66334" lon="3.37269">
        <ele>652.8725586</ele>
        <time>2011-05-22T07:32:11Z</time>
      </trkpt>
      <trkpt lat="45.66304" lon="3.37269">
        <ele>651.9111328</ele>
        <time>2011-05-22T07:32:17Z</time>
      </trkpt>
      <trkpt lat="45.66288" lon="3.37268">
        <ele>652.8725586</ele>
        <time>2011-05-22T07:32:20Z</time>
      </trkpt>
      <trkpt lat="45.66269" lon="3.37269">
        <ele>653.3532715</ele>
        <time>2011-05-22T07:32:24Z</time>
      </trkpt>
      <trkpt lat="45.66249" lon="3.37272">
        <ele>654.795166</ele>
        <time>2011-05-22T07:32:29Z</time>
      </trkpt>
      <trkpt lat="45.66229" lon="3.37265">
        <ele>655.7565918</ele>
        <time>2011-05-22T07:32:34Z</time>
      </trkpt>
      <trkpt lat="45.66215" lon="3.37261">
        <ele>657.6791992</ele>
        <time>2011-05-22T07:32:38Z</time>
      </trkpt>
      <trkpt lat="45.66208" lon="3.37259">
        <ele>656.7177734</ele>
        <time>2011-05-22T07:32:40Z</time>
      </trkpt>
      <trkpt lat="45.66195" lon="3.3726">
        <ele>656.7177734</ele>
        <time>2011-05-22T07:32:43Z</time>
      </trkpt>
      <trkpt lat="45.66181" lon="3.37252">
        <ele>656.2370605</ele>
        <time>2011-05-22T07:32:47Z</time>
      </trkpt>
      <trkpt lat="45.66169" lon="3.3723">
        <ele>657.6791992</ele>
        <time>2011-05-22T07:32:52Z</time>
      </trkpt>
      <trkpt lat="45.66155" lon="3.37215">
        <ele>658.1599121</ele>
        <time>2011-05-22T07:32:56Z</time>
      </trkpt>
      <trkpt lat="45.66121" lon="3.37189">
        <ele>659.1210938</ele>
        <time>2011-05-22T07:33:05Z</time>
      </trkpt>
      <trkpt lat="45.66087" lon="3.37166">
        <ele>658.1599121</ele>
        <time>2011-05-22T07:33:13Z</time>
      </trkpt>
      <trkpt lat="45.66054" lon="3.37147">
        <ele>658.6403809</ele>
        <time>2011-05-22T07:33:20Z</time>
      </trkpt>
      <trkpt lat="45.6604" lon="3.37144">
        <ele>658.1599121</ele>
        <time>2011-05-22T07:33:23Z</time>
      </trkpt>
      <trkpt lat="45.6601" lon="3.37143">
        <ele>660.0822754</ele>
        <time>2011-05-22T07:33:29Z</time>
      </trkpt>
      <trkpt lat="45.66006" lon="3.37143">
        <ele>660.5629883</ele>
        <time>2011-05-22T07:33:30Z</time>
      </trkpt>
      <trkpt lat="45.65984" lon="3.37151">
        <ele>661.0437012</ele>
        <time>2011-05-22T07:33:35Z</time>
      </trkpt>
      <trkpt lat="45.65977" lon="3.37157">
        <ele>662.4855957</ele>
        <time>2011-05-22T07:33:37Z</time>
      </trkpt>
      <trkpt lat="45.65967" lon="3.3715">
        <ele>664.4082031</ele>
        <time>2011-05-22T07:33:41Z</time>
      </trkpt>
      <trkpt lat="45.65968" lon="3.3714">
        <ele>663.9274902</ele>
        <time>2011-05-22T07:33:43Z</time>
      </trkpt>
      <trkpt lat="45.65973" lon="3.37125">
        <ele>664.4082031</ele>
        <time>2011-05-22T07:33:46Z</time>
      </trkpt>
      <trkpt lat="45.65988" lon="3.37084">
        <ele>663.9274902</ele>
        <time>2011-05-22T07:33:54Z</time>
      </trkpt>
      <trkpt lat="45.65989" lon="3.37078">
        <ele>663.9274902</ele>
        <time>2011-05-22T07:33:55Z</time>
      </trkpt>
      <trkpt lat="45.65981" lon="3.37064">
        <ele>663.4470215</ele>
        <time>2011-05-22T07:33:59Z</time>
      </trkpt>
      <trkpt lat="45.65971" lon="3.37059">
        <ele>662.9663086</ele>
        <time>2011-05-22T07:34:02Z</time>
      </trkpt>
      <trkpt lat="45.65959" lon="3.3705">
        <ele>662.9663086</ele>
        <time>2011-05-22T07:34:06Z</time>
      </trkpt>
      <trkpt lat="45.65957" lon="3.37028">
        <ele>661.5244141</ele>
        <time>2011-05-22T07:34:10Z</time>
      </trkpt>
      <trkpt lat="45.6596" lon="3.37003">
        <ele>659.1210938</ele>
        <time>2011-05-22T07:34:13Z</time>
      </trkpt>
      <trkpt lat="45.65975" lon="3.36968">
        <ele>653.3532715</ele>
        <time>2011-05-22T07:34:17Z</time>
      </trkpt>
      <trkpt lat="45.6598" lon="3.3696">
        <ele>652.3918457</ele>
        <time>2011-05-22T07:34:18Z</time>
      </trkpt>
      <trkpt lat="45.65988" lon="3.36919">
        <ele>648.065918</ele>
        <time>2011-05-22T07:34:22Z</time>
      </trkpt>
      <trkpt lat="45.65983" lon="3.36884">
        <ele>646.6240234</ele>
        <time>2011-05-22T07:34:25Z</time>
      </trkpt>
      <trkpt lat="45.65979" lon="3.36864">
        <ele>646.6240234</ele>
        <time>2011-05-22T07:34:28Z</time>
      </trkpt>
      <trkpt lat="45.65979" lon="3.3686">
        <ele>646.1433105</ele>
        <time>2011-05-22T07:34:29Z</time>
      </trkpt>
      <trkpt lat="45.65979" lon="3.36855">
        <ele>645.6625977</ele>
        <time>2011-05-22T07:34:30Z</time>
      </trkpt>
      <trkpt lat="45.65988" lon="3.36829">
        <ele>641.3366699</ele>
        <time>2011-05-22T07:34:34Z</time>
      </trkpt>
      <trkpt lat="45.65994" lon="3.36813">
        <ele>640.3754883</ele>
        <time>2011-05-22T07:34:36Z</time>
      </trkpt>
      <trkpt lat="45.66012" lon="3.36784">
        <ele>636.5302734</ele>
        <time>2011-05-22T07:34:40Z</time>
      </trkpt>
      <trkpt lat="45.66028" lon="3.36752">
        <ele>632.6848145</ele>
        <time>2011-05-22T07:34:44Z</time>
      </trkpt>
      <trkpt lat="45.66036" lon="3.36736">
        <ele>631.7233887</ele>
        <time>2011-05-22T07:34:46Z</time>
      </trkpt>
      <trkpt lat="45.66055" lon="3.36708">
        <ele>628.3588867</ele>
        <time>2011-05-22T07:34:50Z</time>
      </trkpt>
      <trkpt lat="45.66072" lon="3.36677">
        <ele>625.4748535</ele>
        <time>2011-05-22T07:34:54Z</time>
      </trkpt>
      <trkpt lat="45.66074" lon="3.36667">
        <ele>624.032959</ele>
        <time>2011-05-22T07:34:55Z</time>
      </trkpt>
      <trkpt lat="45.66082" lon="3.36634">
        <ele>622.1103516</ele>
        <time>2011-05-22T07:34:58Z</time>
      </trkpt>
      <trkpt lat="45.66095" lon="3.36591">
        <ele>619.7070313</ele>
        <time>2011-05-22T07:35:02Z</time>
      </trkpt>
      <trkpt lat="45.66112" lon="3.36553">
        <ele>617.3037109</ele>
        <time>2011-05-22T07:35:06Z</time>
      </trkpt>
      <trkpt lat="45.66117" lon="3.36544">
        <ele>617.7841797</ele>
        <time>2011-05-22T07:35:07Z</time>
      </trkpt>
      <trkpt lat="45.66134" lon="3.36496">
        <ele>615.3811035</ele>
        <time>2011-05-22T07:35:13Z</time>
      </trkpt>
      <trkpt lat="45.66138" lon="3.36482">
        <ele>614.9003906</ele>
        <time>2011-05-22T07:35:15Z</time>
      </trkpt>
      <trkpt lat="45.66136" lon="3.3645">
        <ele>612.4970703</ele>
        <time>2011-05-22T07:35:19Z</time>
      </trkpt>
      <trkpt lat="45.66127" lon="3.36435">
        <ele>610.09375</ele>
        <time>2011-05-22T07:35:21Z</time>
      </trkpt>
      <trkpt lat="45.66115" lon="3.3642">
        <ele>608.1713867</ele>
        <time>2011-05-22T07:35:23Z</time>
      </trkpt>
      <trkpt lat="45.6609" lon="3.36381">
        <ele>602.4030762</ele>
        <time>2011-05-22T07:35:27Z</time>
      </trkpt>
      <trkpt lat="45.66074" lon="3.36365">
        <ele>604.8066406</ele>
        <time>2011-05-22T07:35:29Z</time>
      </trkpt>
      <trkpt lat="45.66064" lon="3.36342">
        <ele>608.6518555</ele>
        <time>2011-05-22T07:35:32Z</time>
      </trkpt>
      <trkpt lat="45.66062" lon="3.36322">
        <ele>610.09375</ele>
        <time>2011-05-22T07:35:35Z</time>
      </trkpt>
      <trkpt lat="45.66049" lon="3.36271">
        <ele>606.2485352</ele>
        <time>2011-05-22T07:35:41Z</time>
      </trkpt>
      <trkpt lat="45.66046" lon="3.36262">
        <ele>605.7680664</ele>
        <time>2011-05-22T07:35:42Z</time>
      </trkpt>
      <trkpt lat="45.66042" lon="3.36243">
        <ele>605.2873535</ele>
        <time>2011-05-22T07:35:44Z</time>
      </trkpt>
      <trkpt lat="45.66042" lon="3.36188">
        <ele>607.6906738</ele>
        <time>2011-05-22T07:35:50Z</time>
      </trkpt>
      <trkpt lat="45.66042" lon="3.36153">
        <ele>609.6132813</ele>
        <time>2011-05-22T07:35:55Z</time>
      </trkpt>
      <trkpt lat="45.66037" lon="3.36125">
        <ele>610.5744629</ele>
        <time>2011-05-22T07:36:00Z</time>
      </trkpt>
      <trkpt lat="45.66028" lon="3.36095">
        <ele>610.5744629</ele>
        <time>2011-05-22T07:36:06Z</time>
      </trkpt>
      <trkpt lat="45.66021" lon="3.36077">
        <ele>612.0166016</ele>
        <time>2011-05-22T07:36:10Z</time>
      </trkpt>
      <trkpt lat="45.66016" lon="3.36059">
        <ele>610.5744629</ele>
        <time>2011-05-22T07:36:14Z</time>
      </trkpt>
      <trkpt lat="45.6601" lon="3.36031">
        <ele>608.6518555</ele>
        <time>2011-05-22T07:36:19Z</time>
      </trkpt>
      <trkpt lat="45.66004" lon="3.36007">
        <ele>605.7680664</ele>
        <time>2011-05-22T07:36:24Z</time>
      </trkpt>
      <trkpt lat="45.66001" lon="3.36003">
        <ele>605.7680664</ele>
        <time>2011-05-22T07:36:25Z</time>
      </trkpt>
      <trkpt lat="45.65991" lon="3.35982">
        <ele>602.8837891</ele>
        <time>2011-05-22T07:36:30Z</time>
      </trkpt>
      <trkpt lat="45.65983" lon="3.3596">
        <ele>600.4807129</ele>
        <time>2011-05-22T07:36:35Z</time>
      </trkpt>
      <trkpt lat="45.65977" lon="3.35942">
        <ele>597.5966797</ele>
        <time>2011-05-22T07:36:40Z</time>
      </trkpt>
      <trkpt lat="45.65975" lon="3.35939">
        <ele>597.5966797</ele>
        <time>2011-05-22T07:36:41Z</time>
      </trkpt>
      <trkpt lat="45.65973" lon="3.35919">
        <ele>595.1933594</ele>
        <time>2011-05-22T07:36:45Z</time>
      </trkpt>
      <trkpt lat="45.65966" lon="3.35884">
        <ele>594.2321777</ele>
        <time>2011-05-22T07:36:51Z</time>
      </trkpt>
      <trkpt lat="45.65964" lon="3.35878">
        <ele>594.2321777</ele>
        <time>2011-05-22T07:36:52Z</time>
      </trkpt>
      <trkpt lat="45.65958" lon="3.35867">
        <ele>594.2321777</ele>
        <time>2011-05-22T07:36:54Z</time>
      </trkpt>
      <trkpt lat="45.65939" lon="3.35848">
        <ele>596.635498</ele>
        <time>2011-05-22T07:36:59Z</time>
      </trkpt>
      <trkpt lat="45.65921" lon="3.35839">
        <ele>599.0385742</ele>
        <time>2011-05-22T07:37:04Z</time>
      </trkpt>
      <trkpt lat="45.65899" lon="3.3583">
        <ele>598.0773926</ele>
        <time>2011-05-22T07:37:09Z</time>
      </trkpt>
      <trkpt lat="45.65894" lon="3.35828">
        <ele>597.5966797</ele>
        <time>2011-05-22T07:37:10Z</time>
      </trkpt>
      <trkpt lat="45.65874" lon="3.35802">
        <ele>596.635498</ele>
        <time>2011-05-22T07:37:15Z</time>
      </trkpt>
      <trkpt lat="45.6586" lon="3.35777">
        <ele>592.3095703</ele>
        <time>2011-05-22T07:37:18Z</time>
      </trkpt>
      <trkpt lat="45.65846" lon="3.35747">
        <ele>590.8674316</ele>
        <time>2011-05-22T07:37:21Z</time>
      </trkpt>
      <trkpt lat="45.6584" lon="3.35737">
        <ele>589.90625</ele>
        <time>2011-05-22T07:37:22Z</time>
      </trkpt>
      <trkpt lat="45.65806" lon="3.35685">
        <ele>588.9450684</ele>
        <time>2011-05-22T07:37:28Z</time>
      </trkpt>
      <trkpt lat="45.65783" lon="3.35641">
        <ele>589.4255371</ele>
        <time>2011-05-22T07:37:33Z</time>
      </trkpt>
      <trkpt lat="45.65751" lon="3.35594">
        <ele>586.060791</ele>
        <time>2011-05-22T07:37:39Z</time>
      </trkpt>
      <trkpt lat="45.65734" lon="3.35556">
        <ele>584.6188965</ele>
        <time>2011-05-22T07:37:43Z</time>
      </trkpt>
      <trkpt lat="45.65706" lon="3.35517">
        <ele>583.1767578</ele>
        <time>2011-05-22T07:37:48Z</time>
      </trkpt>
      <trkpt lat="45.65694" lon="3.35503">
        <ele>582.6962891</ele>
        <time>2011-05-22T07:37:50Z</time>
      </trkpt>
      <trkpt lat="45.6564" lon="3.35448">
        <ele>582.6962891</ele>
        <time>2011-05-22T07:37:59Z</time>
      </trkpt>
      <trkpt lat="45.65623" lon="3.3543">
        <ele>582.6962891</ele>
        <time>2011-05-22T07:38:02Z</time>
      </trkpt>
      <trkpt lat="45.65579" lon="3.35382">
        <ele>582.6962891</ele>
        <time>2011-05-22T07:38:10Z</time>
      </trkpt>
      <trkpt lat="45.65542" lon="3.35342">
        <ele>582.2155762</ele>
        <time>2011-05-22T07:38:17Z</time>
      </trkpt>
      <trkpt lat="45.65495" lon="3.35294">
        <ele>582.6962891</ele>
        <time>2011-05-22T07:38:26Z</time>
      </trkpt>
      <trkpt lat="45.65473" lon="3.35265">
        <ele>583.6574707</ele>
        <time>2011-05-22T07:38:31Z</time>
      </trkpt>
      <trkpt lat="45.65462" lon="3.35237">
        <ele>584.6188965</ele>
        <time>2011-05-22T07:38:35Z</time>
      </trkpt>
      <trkpt lat="45.65459" lon="3.35224">
        <ele>584.6188965</ele>
        <time>2011-05-22T07:38:37Z</time>
      </trkpt>
      <trkpt lat="45.65467" lon="3.35212">
        <ele>584.1381836</ele>
        <time>2011-05-22T07:38:41Z</time>
      </trkpt>
      <trkpt lat="45.65471" lon="3.35212">
        <ele>584.1381836</ele>
        <time>2011-05-22T07:38:42Z</time>
      </trkpt>
      <trkpt lat="45.65508" lon="3.35221">
        <ele>583.6574707</ele>
        <time>2011-05-22T07:38:49Z</time>
      </trkpt>
      <trkpt lat="45.6555" lon="3.35228">
        <ele>580.7736816</ele>
        <time>2011-05-22T07:38:56Z</time>
      </trkpt>
      <trkpt lat="45.65564" lon="3.35231">
        <ele>580.2929688</ele>
        <time>2011-05-22T07:38:58Z</time>
      </trkpt>
      <trkpt lat="45.65605" lon="3.35242">
        <ele>579.331543</ele>
        <time>2011-05-22T07:39:04Z</time>
      </trkpt>
      <trkpt lat="45.65647" lon="3.35258">
        <ele>577.8896484</ele>
        <time>2011-05-22T07:39:10Z</time>
      </trkpt>
      <trkpt lat="45.65686" lon="3.35262">
        <ele>575.967041</ele>
        <time>2011-05-22T07:39:15Z</time>
      </trkpt>
      <trkpt lat="45.65717" lon="3.35258">
        <ele>574.5251465</ele>
        <time>2011-05-22T07:39:19Z</time>
      </trkpt>
      <trkpt lat="45.65747" lon="3.35252">
        <ele>574.0444336</ele>
        <time>2011-05-22T07:39:23Z</time>
      </trkpt>
      <trkpt lat="45.65762" lon="3.35249">
        <ele>572.6025391</ele>
        <time>2011-05-22T07:39:25Z</time>
      </trkpt>
      <trkpt lat="45.65825" lon="3.3524">
        <ele>570.1989746</ele>
        <time>2011-05-22T07:39:33Z</time>
      </trkpt>
      <trkpt lat="45.65885" lon="3.35234">
        <ele>568.7570801</ele>
        <time>2011-05-22T07:39:41Z</time>
      </trkpt>
      <trkpt lat="45.659" lon="3.35231">
        <ele>567.7956543</ele>
        <time>2011-05-22T07:39:43Z</time>
      </trkpt>
      <trkpt lat="45.6592" lon="3.35224">
        <ele>568.2763672</ele>
        <time>2011-05-22T07:39:46Z</time>
      </trkpt>
      <trkpt lat="45.65946" lon="3.35206">
        <ele>565.873291</ele>
        <time>2011-05-22T07:39:50Z</time>
      </trkpt>
      <trkpt lat="45.65964" lon="3.35185">
        <ele>564.9118652</ele>
        <time>2011-05-22T07:39:53Z</time>
      </trkpt>
      <trkpt lat="45.65988" lon="3.35153">
        <ele>563.4699707</ele>
        <time>2011-05-22T07:39:57Z</time>
      </trkpt>
      <trkpt lat="45.66006" lon="3.35126">
        <ele>562.5085449</ele>
        <time>2011-05-22T07:40:00Z</time>
      </trkpt>
      <trkpt lat="45.66012" lon="3.35117">
        <ele>561.5473633</ele>
        <time>2011-05-22T07:40:01Z</time>
      </trkpt>
      <trkpt lat="45.66019" lon="3.35108">
        <ele>561.5473633</ele>
        <time>2011-05-22T07:40:02Z</time>
      </trkpt>
      <trkpt lat="45.66042" lon="3.35074">
        <ele>558.6633301</ele>
        <time>2011-05-22T07:40:06Z</time>
      </trkpt>
      <trkpt lat="45.66085" lon="3.35013">
        <ele>554.8178711</ele>
        <time>2011-05-22T07:40:13Z</time>
      </trkpt>
      <trkpt lat="45.66091" lon="3.35004">
        <ele>554.8178711</ele>
        <time>2011-05-22T07:40:14Z</time>
      </trkpt>
      <trkpt lat="45.66119" lon="3.34964">
        <ele>556.2600098</ele>
        <time>2011-05-22T07:40:19Z</time>
      </trkpt>
      <trkpt lat="45.66138" lon="3.34938">
        <ele>558.1828613</ele>
        <time>2011-05-22T07:40:23Z</time>
      </trkpt>
      <trkpt lat="45.66146" lon="3.34927">
        <ele>559.6247559</ele>
        <time>2011-05-22T07:40:25Z</time>
      </trkpt>
      <trkpt lat="45.6615" lon="3.34921">
        <ele>559.6247559</ele>
        <time>2011-05-22T07:40:26Z</time>
      </trkpt>
      <trkpt lat="45.66171" lon="3.34874">
        <ele>560.5859375</ele>
        <time>2011-05-22T07:40:34Z</time>
      </trkpt>
      <trkpt lat="45.66178" lon="3.34857">
        <ele>561.5473633</ele>
        <time>2011-05-22T07:40:37Z</time>
      </trkpt>
      <trkpt lat="45.66186" lon="3.34835">
        <ele>562.9892578</ele>
        <time>2011-05-22T07:40:41Z</time>
      </trkpt>
      <trkpt lat="45.66189" lon="3.3483">
        <ele>563.4699707</ele>
        <time>2011-05-22T07:40:42Z</time>
      </trkpt>
      <trkpt lat="45.66191" lon="3.34824">
        <ele>563.9504395</ele>
        <time>2011-05-22T07:40:43Z</time>
      </trkpt>
      <trkpt lat="45.66201" lon="3.34799">
        <ele>564.9118652</ele>
        <time>2011-05-22T07:40:48Z</time>
      </trkpt>
      <trkpt lat="45.66207" lon="3.34784">
        <ele>565.873291</ele>
        <time>2011-05-22T07:40:51Z</time>
      </trkpt>
      <trkpt lat="45.6622" lon="3.3475">
        <ele>567.3151855</ele>
        <time>2011-05-22T07:40:58Z</time>
      </trkpt>
      <trkpt lat="45.66225" lon="3.34741">
        <ele>568.2763672</ele>
        <time>2011-05-22T07:41:00Z</time>
      </trkpt>
      <trkpt lat="45.66244" lon="3.34722">
        <ele>568.7570801</ele>
        <time>2011-05-22T07:41:06Z</time>
      </trkpt>
      <trkpt lat="45.6627" lon="3.34713">
        <ele>570.1989746</ele>
        <time>2011-05-22T07:41:13Z</time>
      </trkpt>
      <trkpt lat="45.66297" lon="3.34716">
        <ele>572.6025391</ele>
        <time>2011-05-22T07:41:20Z</time>
      </trkpt>
      <trkpt lat="45.66331" lon="3.34721">
        <ele>574.0444336</ele>
        <time>2011-05-22T07:41:29Z</time>
      </trkpt>
      <trkpt lat="45.66367" lon="3.34725">
        <ele>576.9284668</ele>
        <time>2011-05-22T07:41:39Z</time>
      </trkpt>
      <trkpt lat="45.66394" lon="3.34725">
        <ele>579.331543</ele>
        <time>2011-05-22T07:41:47Z</time>
      </trkpt>
      <trkpt lat="45.66414" lon="3.34719">
        <ele>581.2543945</ele>
        <time>2011-05-22T07:41:53Z</time>
      </trkpt>
      <trkpt lat="45.66434" lon="3.347">
        <ele>583.1767578</ele>
        <time>2011-05-22T07:42:00Z</time>
      </trkpt>
      <trkpt lat="45.66451" lon="3.34677">
        <ele>584.6188965</ele>
        <time>2011-05-22T07:42:07Z</time>
      </trkpt>
      <trkpt lat="45.66463" lon="3.34647">
        <ele>585.0996094</ele>
        <time>2011-05-22T07:42:14Z</time>
      </trkpt>
      <trkpt lat="45.66477" lon="3.34619">
        <ele>587.5026855</ele>
        <time>2011-05-22T07:42:21Z</time>
      </trkpt>
      <trkpt lat="45.66497" lon="3.34601">
        <ele>588.4643555</ele>
        <time>2011-05-22T07:42:28Z</time>
      </trkpt>
      <trkpt lat="45.6651" lon="3.34595">
        <ele>589.90625</ele>
        <time>2011-05-22T07:42:32Z</time>
      </trkpt>
      <trkpt lat="45.66522" lon="3.34585">
        <ele>590.8674316</ele>
        <time>2011-05-22T07:42:37Z</time>
      </trkpt>
      <trkpt lat="45.66517" lon="3.34572">
        <ele>592.3095703</ele>
        <time>2011-05-22T07:42:42Z</time>
      </trkpt>
      <trkpt lat="45.66513" lon="3.34565">
        <ele>592.3095703</ele>
        <time>2011-05-22T07:42:45Z</time>
      </trkpt>
      <trkpt lat="45.66501" lon="3.34546">
        <ele>594.2321777</ele>
        <time>2011-05-22T07:42:53Z</time>
      </trkpt>
      <trkpt lat="45.66484" lon="3.34524">
        <ele>596.635498</ele>
        <time>2011-05-22T07:43:03Z</time>
      </trkpt>
      <trkpt lat="45.66473" lon="3.34507">
        <ele>599.0385742</ele>
        <time>2011-05-22T07:43:10Z</time>
      </trkpt>
      <trkpt lat="45.66469" lon="3.34498">
        <ele>600</ele>
        <time>2011-05-22T07:43:13Z</time>
      </trkpt>
      <trkpt lat="45.66474" lon="3.34486">
        <ele>601.9226074</ele>
        <time>2011-05-22T07:43:18Z</time>
      </trkpt>
      <trkpt lat="45.66494" lon="3.34478">
        <ele>602.8837891</ele>
        <time>2011-05-22T07:43:26Z</time>
      </trkpt>
      <trkpt lat="45.66528" lon="3.34469">
        <ele>603.364502</ele>
        <time>2011-05-22T07:43:37Z</time>
      </trkpt>
      <trkpt lat="45.66547" lon="3.34458">
        <ele>604.3261719</ele>
        <time>2011-05-22T07:43:44Z</time>
      </trkpt>
      <trkpt lat="45.66563" lon="3.34442">
        <ele>605.7680664</ele>
        <time>2011-05-22T07:43:51Z</time>
      </trkpt>
      <trkpt lat="45.66579" lon="3.34425">
        <ele>606.729248</ele>
        <time>2011-05-22T07:43:58Z</time>
      </trkpt>
      <trkpt lat="45.6659" lon="3.34407">
        <ele>607.6906738</ele>
        <time>2011-05-22T07:44:04Z</time>
      </trkpt>
      <trkpt lat="45.6659" lon="3.34397">
        <ele>609.1325684</ele>
        <time>2011-05-22T07:44:08Z</time>
      </trkpt>
      <trkpt lat="45.66595" lon="3.34372">
        <ele>610.5744629</ele>
        <time>2011-05-22T07:44:16Z</time>
      </trkpt>
      <trkpt lat="45.66599" lon="3.3435">
        <ele>612.9777832</ele>
        <time>2011-05-22T07:44:24Z</time>
      </trkpt>
      <trkpt lat="45.66605" lon="3.34322">
        <ele>614.9003906</ele>
        <time>2011-05-22T07:44:34Z</time>
      </trkpt>
      <trkpt lat="45.66611" lon="3.34299">
        <ele>618.2648926</ele>
        <time>2011-05-22T07:44:43Z</time>
      </trkpt>
      <trkpt lat="45.66615" lon="3.34284">
        <ele>619.7070313</ele>
        <time>2011-05-22T07:44:50Z</time>
      </trkpt>
      <trkpt lat="45.66619" lon="3.34268">
        <ele>621.6296387</ele>
        <time>2011-05-22T07:44:57Z</time>
      </trkpt>
      <trkpt lat="45.66622" lon="3.34252">
        <ele>623.0717773</ele>
        <time>2011-05-22T07:45:04Z</time>
      </trkpt>
      <trkpt lat="45.66628" lon="3.34235">
        <ele>624.9943848</ele>
        <time>2011-05-22T07:45:12Z</time>
      </trkpt>
      <trkpt lat="45.66635" lon="3.34222">
        <ele>626.9169922</ele>
        <time>2011-05-22T07:45:19Z</time>
      </trkpt>
      <trkpt lat="45.66643" lon="3.34207">
        <ele>628.3588867</ele>
        <time>2011-05-22T07:45:27Z</time>
      </trkpt>
      <trkpt lat="45.66652" lon="3.34187">
        <ele>630.2814941</ele>
        <time>2011-05-22T07:45:36Z</time>
      </trkpt>
      <trkpt lat="45.66662" lon="3.34168">
        <ele>632.6848145</ele>
        <time>2011-05-22T07:45:45Z</time>
      </trkpt>
      <trkpt lat="45.66669" lon="3.34156">
        <ele>635.0881348</ele>
        <time>2011-05-22T07:45:52Z</time>
      </trkpt>
      <trkpt lat="45.66677" lon="3.34134">
        <ele>637.4914551</ele>
        <time>2011-05-22T07:46:02Z</time>
      </trkpt>
      <trkpt lat="45.66687" lon="3.34113">
        <ele>639.8947754</ele>
        <time>2011-05-22T07:46:12Z</time>
      </trkpt>
      <trkpt lat="45.667" lon="3.34096">
        <ele>641.8173828</ele>
        <time>2011-05-22T07:46:21Z</time>
      </trkpt>
      <trkpt lat="45.66714" lon="3.34082">
        <ele>644.2207031</ele>
        <time>2011-05-22T07:46:30Z</time>
      </trkpt>
      <trkpt lat="45.66725" lon="3.34067">
        <ele>645.1818848</ele>
        <time>2011-05-22T07:46:38Z</time>
      </trkpt>
      <trkpt lat="45.66729" lon="3.34051">
        <ele>647.1044922</ele>
        <time>2011-05-22T07:46:45Z</time>
      </trkpt>
      <trkpt lat="45.66731" lon="3.34032">
        <ele>648.5463867</ele>
        <time>2011-05-22T07:46:53Z</time>
      </trkpt>
      <trkpt lat="45.66731" lon="3.34028">
        <ele>649.5078125</ele>
        <time>2011-05-22T07:46:55Z</time>
      </trkpt>
      <trkpt lat="45.66732" lon="3.34019">
        <ele>649.9885254</ele>
        <time>2011-05-22T07:46:59Z</time>
      </trkpt>
      <trkpt lat="45.66732" lon="3.34013">
        <ele>651.4304199</ele>
        <time>2011-05-22T07:47:02Z</time>
      </trkpt>
      <trkpt lat="45.66732" lon="3.34011">
        <ele>651.4304199</ele>
        <time>2011-05-22T07:47:03Z</time>
      </trkpt>
      <trkpt lat="45.66723" lon="3.34008">
        <ele>652.3918457</ele>
        <time>2011-05-22T07:47:09Z</time>
      </trkpt>
      <trkpt lat="45.66708" lon="3.33999">
        <ele>654.3146973</ele>
        <time>2011-05-22T07:47:18Z</time>
      </trkpt>
      <trkpt lat="45.66693" lon="3.33993">
        <ele>656.2370605</ele>
        <time>2011-05-22T07:47:26Z</time>
      </trkpt>
      <trkpt lat="45.66678" lon="3.33986">
        <ele>659.1210938</ele>
        <time>2011-05-22T07:47:34Z</time>
      </trkpt>
      <trkpt lat="45.66656" lon="3.33975">
        <ele>661.0437012</ele>
        <time>2011-05-22T07:47:46Z</time>
      </trkpt>
      <trkpt lat="45.66648" lon="3.3397">
        <ele>662.9663086</ele>
        <time>2011-05-22T07:47:51Z</time>
      </trkpt>
      <trkpt lat="45.66639" lon="3.33965">
        <ele>664.4082031</ele>
        <time>2011-05-22T07:47:57Z</time>
      </trkpt>
      <trkpt lat="45.66632" lon="3.33957">
        <ele>665.8503418</ele>
        <time>2011-05-22T07:48:03Z</time>
      </trkpt>
      <trkpt lat="45.66625" lon="3.3395">
        <ele>667.7727051</ele>
        <time>2011-05-22T07:48:10Z</time>
      </trkpt>
      <trkpt lat="45.66624" lon="3.33949">
        <ele>667.7727051</ele>
        <time>2011-05-22T07:48:11Z</time>
      </trkpt>
      <trkpt lat="45.66622" lon="3.33944">
        <ele>669.6958008</ele>
        <time>2011-05-22T07:48:14Z</time>
      </trkpt>
      <trkpt lat="45.66618" lon="3.33934">
        <ele>671.6181641</ele>
        <time>2011-05-22T07:48:20Z</time>
      </trkpt>
      <trkpt lat="45.66615" lon="3.33926">
        <ele>671.6181641</ele>
        <time>2011-05-22T07:48:25Z</time>
      </trkpt>
      <trkpt lat="45.66609" lon="3.33916">
        <ele>673.0603027</ele>
        <time>2011-05-22T07:48:31Z</time>
      </trkpt>
      <trkpt lat="45.66606" lon="3.33911">
        <ele>674.5021973</ele>
        <time>2011-05-22T07:48:34Z</time>
      </trkpt>
      <trkpt lat="45.66602" lon="3.33902">
        <ele>674.5021973</ele>
        <time>2011-05-22T07:48:39Z</time>
      </trkpt>
      <trkpt lat="45.66595" lon="3.3388">
        <ele>675.4633789</ele>
        <time>2011-05-22T07:48:48Z</time>
      </trkpt>
      <trkpt lat="45.66587" lon="3.33871">
        <ele>675.4633789</ele>
        <time>2011-05-22T07:48:53Z</time>
      </trkpt>
      <trkpt lat="45.6657" lon="3.33866">
        <ele>675.9440918</ele>
        <time>2011-05-22T07:48:59Z</time>
      </trkpt>
      <trkpt lat="45.6655" lon="3.33861">
        <ele>676.4248047</ele>
        <time>2011-05-22T07:49:06Z</time>
      </trkpt>
      <trkpt lat="45.66526" lon="3.33856">
        <ele>677.8666992</ele>
        <time>2011-05-22T07:49:14Z</time>
      </trkpt>
      <trkpt lat="45.66504" lon="3.33855">
        <ele>677.8666992</ele>
        <time>2011-05-22T07:49:21Z</time>
      </trkpt>
      <trkpt lat="45.66481" lon="3.33861">
        <ele>677.8666992</ele>
        <time>2011-05-22T07:49:28Z</time>
      </trkpt>
      <trkpt lat="45.66467" lon="3.33868">
        <ele>678.3474121</ele>
        <time>2011-05-22T07:49:33Z</time>
      </trkpt>
      <trkpt lat="45.66442" lon="3.33878">
        <ele>680.2700195</ele>
        <time>2011-05-22T07:49:42Z</time>
      </trkpt>
      <trkpt lat="45.66433" lon="3.33881">
        <ele>681.7119141</ele>
        <time>2011-05-22T07:49:47Z</time>
      </trkpt>
      <trkpt lat="45.66424" lon="3.3388">
        <ele>682.6733398</ele>
        <time>2011-05-22T07:49:53Z</time>
      </trkpt>
      <trkpt lat="45.66418" lon="3.3388">
        <ele>684.1154785</ele>
        <time>2011-05-22T07:49:57Z</time>
      </trkpt>
      <trkpt lat="45.66413" lon="3.33881">
        <ele>685.0769043</ele>
        <time>2011-05-22T07:50:00Z</time>
      </trkpt>
      <trkpt lat="45.66409" lon="3.33881">
        <ele>686.5187988</ele>
        <time>2011-05-22T07:50:03Z</time>
      </trkpt>
      <trkpt lat="45.66398" lon="3.33884">
        <ele>688.4414063</ele>
        <time>2011-05-22T07:50:09Z</time>
      </trkpt>
      <trkpt lat="45.66391" lon="3.33884">
        <ele>689.4025879</ele>
        <time>2011-05-22T07:50:13Z</time>
      </trkpt>
      <trkpt lat="45.66376" lon="3.33885">
        <ele>689.8833008</ele>
        <time>2011-05-22T07:50:19Z</time>
      </trkpt>
      <trkpt lat="45.66358" lon="3.33885">
        <ele>690.3640137</ele>
        <time>2011-05-22T07:50:25Z</time>
      </trkpt>
      <trkpt lat="45.6634" lon="3.33882">
        <ele>689.8833008</ele>
        <time>2011-05-22T07:50:31Z</time>
      </trkpt>
      <trkpt lat="45.66315" lon="3.33869">
        <ele>691.3251953</ele>
        <time>2011-05-22T07:50:39Z</time>
      </trkpt>
      <trkpt lat="45.66292" lon="3.33849">
        <ele>692.2866211</ele>
        <time>2011-05-22T07:50:47Z</time>
      </trkpt>
      <trkpt lat="45.66276" lon="3.33834">
        <ele>694.6896973</ele>
        <time>2011-05-22T07:50:53Z</time>
      </trkpt>
      <trkpt lat="45.66264" lon="3.33819">
        <ele>695.1704102</ele>
        <time>2011-05-22T07:50:59Z</time>
      </trkpt>
      <trkpt lat="45.66256" lon="3.33805">
        <ele>693.7285156</ele>
        <time>2011-05-22T07:51:03Z</time>
      </trkpt>
      <trkpt lat="45.66246" lon="3.33763">
        <ele>690.8444824</ele>
        <time>2011-05-22T07:51:09Z</time>
      </trkpt>
      <trkpt lat="45.66242" lon="3.33735">
        <ele>688.4414063</ele>
        <time>2011-05-22T07:51:12Z</time>
      </trkpt>
      <trkpt lat="45.66233" lon="3.33688">
        <ele>687.9606934</ele>
        <time>2011-05-22T07:51:17Z</time>
      </trkpt>
      <trkpt lat="45.66221" lon="3.33657">
        <ele>687.9606934</ele>
        <time>2011-05-22T07:51:21Z</time>
      </trkpt>
      <trkpt lat="45.66214" lon="3.33643">
        <ele>687.4799805</ele>
        <time>2011-05-22T07:51:23Z</time>
      </trkpt>
      <trkpt lat="45.66192" lon="3.33611">
        <ele>687.9606934</ele>
        <time>2011-05-22T07:51:28Z</time>
      </trkpt>
      <trkpt lat="45.66188" lon="3.33605">
        <ele>687.9606934</ele>
        <time>2011-05-22T07:51:29Z</time>
      </trkpt>
      <trkpt lat="45.66154" lon="3.33557">
        <ele>687.4799805</ele>
        <time>2011-05-22T07:51:37Z</time>
      </trkpt>
      <trkpt lat="45.66133" lon="3.33515">
        <ele>686.9992676</ele>
        <time>2011-05-22T07:51:43Z</time>
      </trkpt>
      <trkpt lat="45.66127" lon="3.33492">
        <ele>686.9992676</ele>
        <time>2011-05-22T07:51:46Z</time>
      </trkpt>
      <trkpt lat="45.6612" lon="3.33467">
        <ele>685.557373</ele>
        <time>2011-05-22T07:51:49Z</time>
      </trkpt>
      <trkpt lat="45.66118" lon="3.33459">
        <ele>685.557373</ele>
        <time>2011-05-22T07:51:50Z</time>
      </trkpt>
      <trkpt lat="45.66107" lon="3.33427">
        <ele>682.192627</ele>
        <time>2011-05-22T07:51:54Z</time>
      </trkpt>
      <trkpt lat="45.66103" lon="3.33383">
        <ele>678.828125</ele>
        <time>2011-05-22T07:51:58Z</time>
      </trkpt>
      <trkpt lat="45.66105" lon="3.33371">
        <ele>678.828125</ele>
        <time>2011-05-22T07:51:59Z</time>
      </trkpt>
      <trkpt lat="45.66116" lon="3.3334">
        <ele>678.828125</ele>
        <time>2011-05-22T07:52:02Z</time>
      </trkpt>
      <trkpt lat="45.66122" lon="3.33333">
        <ele>679.7893066</ele>
        <time>2011-05-22T07:52:03Z</time>
      </trkpt>
      <trkpt lat="45.66151" lon="3.33299">
        <ele>680.7507324</ele>
        <time>2011-05-22T07:52:09Z</time>
      </trkpt>
      <trkpt lat="45.66165" lon="3.33271">
        <ele>682.192627</ele>
        <time>2011-05-22T07:52:14Z</time>
      </trkpt>
      <trkpt lat="45.6617" lon="3.33245">
        <ele>683.6345215</ele>
        <time>2011-05-22T07:52:19Z</time>
      </trkpt>
      <trkpt lat="45.66173" lon="3.33232">
        <ele>685.0769043</ele>
        <time>2011-05-22T07:52:22Z</time>
      </trkpt>
      <trkpt lat="45.66174" lon="3.33222">
        <ele>685.0769043</ele>
        <time>2011-05-22T07:52:24Z</time>
      </trkpt>
      <trkpt lat="45.66173" lon="3.33198">
        <ele>685.557373</ele>
        <time>2011-05-22T07:52:28Z</time>
      </trkpt>
      <trkpt lat="45.66172" lon="3.33193">
        <ele>685.0769043</ele>
        <time>2011-05-22T07:52:29Z</time>
      </trkpt>
      <trkpt lat="45.66169" lon="3.33187">
        <ele>686.0380859</ele>
        <time>2011-05-22T07:52:30Z</time>
      </trkpt>
      <trkpt lat="45.6615" lon="3.33154">
        <ele>680.2700195</ele>
        <time>2011-05-22T07:52:35Z</time>
      </trkpt>
      <trkpt lat="45.66134" lon="3.33117">
        <ele>678.3474121</ele>
        <time>2011-05-22T07:52:39Z</time>
      </trkpt>
      <trkpt lat="45.66118" lon="3.33085">
        <ele>679.7893066</ele>
        <time>2011-05-22T07:52:43Z</time>
      </trkpt>
      <trkpt lat="45.66103" lon="3.33046">
        <ele>681.2314453</ele>
        <time>2011-05-22T07:52:49Z</time>
      </trkpt>
      <trkpt lat="45.66089" lon="3.33007">
        <ele>682.6733398</ele>
        <time>2011-05-22T07:52:56Z</time>
      </trkpt>
      <trkpt lat="45.66086" lon="3.32996">
        <ele>683.1538086</ele>
        <time>2011-05-22T07:52:58Z</time>
      </trkpt>
      <trkpt lat="45.66079" lon="3.32974">
        <ele>683.6345215</ele>
        <time>2011-05-22T07:53:02Z</time>
      </trkpt>
      <trkpt lat="45.66074" lon="3.32941">
        <ele>685.0769043</ele>
        <time>2011-05-22T07:53:08Z</time>
      </trkpt>
      <trkpt lat="45.66084" lon="3.32917">
        <ele>686.0380859</ele>
        <time>2011-05-22T07:53:13Z</time>
      </trkpt>
      <trkpt lat="45.66093" lon="3.32912">
        <ele>687.4799805</ele>
        <time>2011-05-22T07:53:16Z</time>
      </trkpt>
      <trkpt lat="45.66114" lon="3.32907">
        <ele>690.8444824</ele>
        <time>2011-05-22T07:53:24Z</time>
      </trkpt>
      <trkpt lat="45.66124" lon="3.32906">
        <ele>691.8059082</ele>
        <time>2011-05-22T07:53:28Z</time>
      </trkpt>
      <trkpt lat="45.66133" lon="3.32903">
        <ele>693.7285156</ele>
        <time>2011-05-22T07:53:32Z</time>
      </trkpt>
      <trkpt lat="45.66137" lon="3.329">
        <ele>695.1704102</ele>
        <time>2011-05-22T07:53:34Z</time>
      </trkpt>
      <trkpt lat="45.66144" lon="3.32891">
        <ele>695.1704102</ele>
        <time>2011-05-22T07:53:38Z</time>
      </trkpt>
      <trkpt lat="45.66159" lon="3.32877">
        <ele>695.1704102</ele>
        <time>2011-05-22T07:53:44Z</time>
      </trkpt>
      <trkpt lat="45.66165" lon="3.32862">
        <ele>694.6896973</ele>
        <time>2011-05-22T07:53:48Z</time>
      </trkpt>
      <trkpt lat="45.66165" lon="3.32852">
        <ele>694.6896973</ele>
        <time>2011-05-22T07:53:50Z</time>
      </trkpt>
      <trkpt lat="45.66154" lon="3.32811">
        <ele>694.2092285</ele>
        <time>2011-05-22T07:53:57Z</time>
      </trkpt>
      <trkpt lat="45.66151" lon="3.32799">
        <ele>694.2092285</ele>
        <time>2011-05-22T07:53:59Z</time>
      </trkpt>
      <trkpt lat="45.66136" lon="3.32754">
        <ele>694.6896973</ele>
        <time>2011-05-22T07:54:07Z</time>
      </trkpt>
      <trkpt lat="45.66125" lon="3.32724">
        <ele>697.0930176</ele>
        <time>2011-05-22T07:54:13Z</time>
      </trkpt>
      <trkpt lat="45.66117" lon="3.32705">
        <ele>698.0544434</ele>
        <time>2011-05-22T07:54:17Z</time>
      </trkpt>
      <trkpt lat="45.66104" lon="3.32678">
        <ele>698.5349121</ele>
        <time>2011-05-22T07:54:23Z</time>
      </trkpt>
      <trkpt lat="45.66093" lon="3.3265">
        <ele>700.4580078</ele>
        <time>2011-05-22T07:54:29Z</time>
      </trkpt>
      <trkpt lat="45.66083" lon="3.32629">
        <ele>702.861084</ele>
        <time>2011-05-22T07:54:34Z</time>
      </trkpt>
      <trkpt lat="45.66074" lon="3.32596">
        <ele>705.2644043</ele>
        <time>2011-05-22T07:54:41Z</time>
      </trkpt>
      <trkpt lat="45.66072" lon="3.32569">
        <ele>706.2255859</ele>
        <time>2011-05-22T07:54:47Z</time>
      </trkpt>
      <trkpt lat="45.66075" lon="3.32538">
        <ele>704.7836914</ele>
        <time>2011-05-22T07:54:52Z</time>
      </trkpt>
      <trkpt lat="45.66076" lon="3.32523">
        <ele>702.861084</ele>
        <time>2011-05-22T07:54:54Z</time>
      </trkpt>
      <trkpt lat="45.6609" lon="3.32477">
        <ele>702.3803711</ele>
        <time>2011-05-22T07:55:00Z</time>
      </trkpt>
      <trkpt lat="45.66099" lon="3.3242">
        <ele>704.3032227</ele>
        <time>2011-05-22T07:55:08Z</time>
      </trkpt>
      <trkpt lat="45.66099" lon="3.32413">
        <ele>703.8225098</ele>
        <time>2011-05-22T07:55:09Z</time>
      </trkpt>
      <trkpt lat="45.661" lon="3.324">
        <ele>703.8225098</ele>
        <time>2011-05-22T07:55:11Z</time>
      </trkpt>
      <trkpt lat="45.66108" lon="3.32371">
        <ele>702.861084</ele>
        <time>2011-05-22T07:55:15Z</time>
      </trkpt>
      <trkpt lat="45.66118" lon="3.3235">
        <ele>700.9384766</ele>
        <time>2011-05-22T07:55:18Z</time>
      </trkpt>
      <trkpt lat="45.66126" lon="3.32332">
        <ele>699.015625</ele>
        <time>2011-05-22T07:55:20Z</time>
      </trkpt>
      <trkpt lat="45.66151" lon="3.32279">
        <ele>695.1704102</ele>
        <time>2011-05-22T07:55:25Z</time>
      </trkpt>
      <trkpt lat="45.66156" lon="3.32268">
        <ele>695.1704102</ele>
        <time>2011-05-22T07:55:26Z</time>
      </trkpt>
      <trkpt lat="45.66166" lon="3.32245">
        <ele>693.7285156</ele>
        <time>2011-05-22T07:55:28Z</time>
      </trkpt>
      <trkpt lat="45.66179" lon="3.32223">
        <ele>691.8059082</ele>
        <time>2011-05-22T07:55:30Z</time>
      </trkpt>
      <trkpt lat="45.66187" lon="3.32213">
        <ele>689.8833008</ele>
        <time>2011-05-22T07:55:31Z</time>
      </trkpt>
      <trkpt lat="45.66195" lon="3.32203">
        <ele>687.9606934</ele>
        <time>2011-05-22T07:55:32Z</time>
      </trkpt>
      <trkpt lat="45.66202" lon="3.32192">
        <ele>687.4799805</ele>
        <time>2011-05-22T07:55:33Z</time>
      </trkpt>
      <trkpt lat="45.6622" lon="3.32156">
        <ele>687.4799805</ele>
        <time>2011-05-22T07:55:36Z</time>
      </trkpt>
      <trkpt lat="45.66236" lon="3.32128">
        <ele>692.767334</ele>
        <time>2011-05-22T07:55:39Z</time>
      </trkpt>
      <trkpt lat="45.66244" lon="3.32115">
        <ele>694.6896973</ele>
        <time>2011-05-22T07:55:41Z</time>
      </trkpt>
      <trkpt lat="45.66256" lon="3.32092">
        <ele>695.651123</ele>
        <time>2011-05-22T07:55:46Z</time>
      </trkpt>
      <trkpt lat="45.66261" lon="3.32076">
        <ele>696.1318359</ele>
        <time>2011-05-22T07:55:49Z</time>
      </trkpt>
      <trkpt lat="45.66267" lon="3.32059">
        <ele>695.651123</ele>
        <time>2011-05-22T07:55:52Z</time>
      </trkpt>
      <trkpt lat="45.66271" lon="3.32047">
        <ele>696.1318359</ele>
        <time>2011-05-22T07:55:54Z</time>
      </trkpt>
      <trkpt lat="45.66276" lon="3.32033">
        <ele>695.651123</ele>
        <time>2011-05-22T07:55:56Z</time>
      </trkpt>
      <trkpt lat="45.66296" lon="3.3201">
        <ele>696.1318359</ele>
        <time>2011-05-22T07:56:01Z</time>
      </trkpt>
      <trkpt lat="45.66316" lon="3.31994">
        <ele>697.0930176</ele>
        <time>2011-05-22T07:56:07Z</time>
      </trkpt>
      <trkpt lat="45.66325" lon="3.31991">
        <ele>697.5737305</ele>
        <time>2011-05-22T07:56:12Z</time>
      </trkpt>
      <trkpt lat="45.66326" lon="3.31992">
        <ele>698.0544434</ele>
        <time>2011-05-22T07:56:19Z</time>
      </trkpt>
      <trkpt lat="45.66326" lon="3.31992">
        <ele>697.5737305</ele>
        <time>2011-05-22T07:56:31Z</time>
      </trkpt>
      <trkpt lat="45.66323" lon="3.31994">
        <ele>697.0930176</ele>
        <time>2011-05-22T08:02:03Z</time>
      </trkpt>
      <trkpt lat="45.66328" lon="3.31989">
        <ele>697.5737305</ele>
        <time>2011-05-22T08:05:14Z</time>
      </trkpt>
      <trkpt lat="45.66324" lon="3.31991">
        <ele>697.5737305</ele>
        <time>2011-05-22T08:05:19Z</time>
      </trkpt>
      <trkpt lat="45.66324" lon="3.31992">
        <ele>697.0930176</ele>
        <time>2011-05-22T08:05:33Z</time>
      </trkpt>
      <trkpt lat="45.66327" lon="3.32">
        <ele>697.0930176</ele>
        <time>2011-05-22T08:05:39Z</time>
      </trkpt>
      <trkpt lat="45.6633" lon="3.32">
        <ele>697.5737305</ele>
        <time>2011-05-22T08:05:40Z</time>
      </trkpt>
      <trkpt lat="45.6635" lon="3.31997">
        <ele>696.1318359</ele>
        <time>2011-05-22T08:05:44Z</time>
      </trkpt>
      <trkpt lat="45.66365" lon="3.31999">
        <ele>697.0930176</ele>
        <time>2011-05-22T08:05:47Z</time>
      </trkpt>
      <trkpt lat="45.66383" lon="3.32008">
        <ele>698.0544434</ele>
        <time>2011-05-22T08:05:51Z</time>
      </trkpt>
      <trkpt lat="45.66396" lon="3.32016">
        <ele>699.015625</ele>
        <time>2011-05-22T08:05:54Z</time>
      </trkpt>
      <trkpt lat="45.66416" lon="3.32028">
        <ele>700.4580078</ele>
        <time>2011-05-22T08:05:59Z</time>
      </trkpt>
      <trkpt lat="45.66439" lon="3.3204">
        <ele>700.4580078</ele>
        <time>2011-05-22T08:06:05Z</time>
      </trkpt>
      <trkpt lat="45.66446" lon="3.32044">
        <ele>700.4580078</ele>
        <time>2011-05-22T08:06:07Z</time>
      </trkpt>
      <trkpt lat="45.66466" lon="3.3206">
        <ele>701.8999023</ele>
        <time>2011-05-22T08:06:12Z</time>
      </trkpt>
      <trkpt lat="45.66469" lon="3.32064">
        <ele>701.4191895</ele>
        <time>2011-05-22T08:06:13Z</time>
      </trkpt>
      <trkpt lat="45.66475" lon="3.32073">
        <ele>701.8999023</ele>
        <time>2011-05-22T08:06:15Z</time>
      </trkpt>
      <trkpt lat="45.66492" lon="3.321">
        <ele>702.861084</ele>
        <time>2011-05-22T08:06:21Z</time>
      </trkpt>
      <trkpt lat="45.66502" lon="3.3211">
        <ele>703.8225098</ele>
        <time>2011-05-22T08:06:24Z</time>
      </trkpt>
      <trkpt lat="45.66517" lon="3.32128">
        <ele>703.8225098</ele>
        <time>2011-05-22T08:06:29Z</time>
      </trkpt>
      <trkpt lat="45.66527" lon="3.32147">
        <ele>703.3417969</ele>
        <time>2011-05-22T08:06:33Z</time>
      </trkpt>
      <trkpt lat="45.6653" lon="3.32151">
        <ele>702.861084</ele>
        <time>2011-05-22T08:06:34Z</time>
      </trkpt>
      <trkpt lat="45.66554" lon="3.32178">
        <ele>702.3803711</ele>
        <time>2011-05-22T08:06:40Z</time>
      </trkpt>
      <trkpt lat="45.66565" lon="3.32188">
        <ele>702.861084</ele>
        <time>2011-05-22T08:06:43Z</time>
      </trkpt>
      <trkpt lat="45.66579" lon="3.32201">
        <ele>702.861084</ele>
        <time>2011-05-22T08:06:47Z</time>
      </trkpt>
      <trkpt lat="45.66601" lon="3.32218">
        <ele>704.3032227</ele>
        <time>2011-05-22T08:06:53Z</time>
      </trkpt>
      <trkpt lat="45.66626" lon="3.32223">
        <ele>705.7451172</ele>
        <time>2011-05-22T08:06:59Z</time>
      </trkpt>
      <trkpt lat="45.6664" lon="3.32222">
        <ele>704.7836914</ele>
        <time>2011-05-22T08:07:02Z</time>
      </trkpt>
      <trkpt lat="45.66649" lon="3.32221">
        <ele>704.7836914</ele>
        <time>2011-05-22T08:07:04Z</time>
      </trkpt>
      <trkpt lat="45.66669" lon="3.3222">
        <ele>704.7836914</ele>
        <time>2011-05-22T08:07:08Z</time>
      </trkpt>
      <trkpt lat="45.66697" lon="3.32227">
        <ele>705.7451172</ele>
        <time>2011-05-22T08:07:14Z</time>
      </trkpt>
      <trkpt lat="45.66706" lon="3.32235">
        <ele>707.1870117</ele>
        <time>2011-05-22T08:07:17Z</time>
      </trkpt>
      <trkpt lat="45.66708" lon="3.32238">
        <ele>707.1870117</ele>
        <time>2011-05-22T08:07:18Z</time>
      </trkpt>
      <trkpt lat="45.66707" lon="3.32254">
        <ele>704.3032227</ele>
        <time>2011-05-22T08:07:22Z</time>
      </trkpt>
      <trkpt lat="45.66706" lon="3.32265">
        <ele>702.861084</ele>
        <time>2011-05-22T08:07:24Z</time>
      </trkpt>
      <trkpt lat="45.66698" lon="3.32291">
        <ele>699.4963379</ele>
        <time>2011-05-22T08:07:28Z</time>
      </trkpt>
      <trkpt lat="45.6669" lon="3.32316">
        <ele>697.0930176</ele>
        <time>2011-05-22T08:07:31Z</time>
      </trkpt>
      <trkpt lat="45.66685" lon="3.3233">
        <ele>696.1318359</ele>
        <time>2011-05-22T08:07:33Z</time>
      </trkpt>
      <trkpt lat="45.66683" lon="3.32337">
        <ele>696.6125488</ele>
        <time>2011-05-22T08:07:34Z</time>
      </trkpt>
      <trkpt lat="45.66687" lon="3.32363">
        <ele>694.6896973</ele>
        <time>2011-05-22T08:07:38Z</time>
      </trkpt>
      <trkpt lat="45.6669" lon="3.32372">
        <ele>693.7285156</ele>
        <time>2011-05-22T08:07:40Z</time>
      </trkpt>
      <trkpt lat="45.66691" lon="3.32377">
        <ele>693.2478027</ele>
        <time>2011-05-22T08:07:41Z</time>
      </trkpt>
      <trkpt lat="45.66698" lon="3.3239">
        <ele>691.3251953</ele>
        <time>2011-05-22T08:07:44Z</time>
      </trkpt>
      <trkpt lat="45.66706" lon="3.32404">
        <ele>689.8833008</ele>
        <time>2011-05-22T08:07:47Z</time>
      </trkpt>
      <trkpt lat="45.66711" lon="3.32412">
        <ele>688.4414063</ele>
        <time>2011-05-22T08:07:49Z</time>
      </trkpt>
      <trkpt lat="45.66716" lon="3.32421">
        <ele>686.5187988</ele>
        <time>2011-05-22T08:07:51Z</time>
      </trkpt>
      <trkpt lat="45.66718" lon="3.32427">
        <ele>685.557373</ele>
        <time>2011-05-22T08:07:52Z</time>
      </trkpt>
      <trkpt lat="45.66736" lon="3.32451">
        <ele>682.6733398</ele>
        <time>2011-05-22T08:07:56Z</time>
      </trkpt>
      <trkpt lat="45.6674" lon="3.32455">
        <ele>681.7119141</ele>
        <time>2011-05-22T08:07:57Z</time>
      </trkpt>
      <trkpt lat="45.66761" lon="3.32469">
        <ele>678.3474121</ele>
        <time>2011-05-22T08:08:01Z</time>
      </trkpt>
      <trkpt lat="45.6679" lon="3.32483">
        <ele>672.5795898</ele>
        <time>2011-05-22T08:08:06Z</time>
      </trkpt>
      <trkpt lat="45.66807" lon="3.32496">
        <ele>672.098877</ele>
        <time>2011-05-22T08:08:09Z</time>
      </trkpt>
      <trkpt lat="45.66826" lon="3.32507">
        <ele>670.6569824</ele>
        <time>2011-05-22T08:08:13Z</time>
      </trkpt>
      <trkpt lat="45.66841" lon="3.32521">
        <ele>668.734375</ele>
        <time>2011-05-22T08:08:17Z</time>
      </trkpt>
      <trkpt lat="45.66856" lon="3.32531">
        <ele>669.2150879</ele>
        <time>2011-05-22T08:08:20Z</time>
      </trkpt>
      <trkpt lat="45.66866" lon="3.32536">
        <ele>670.1762695</ele>
        <time>2011-05-22T08:08:22Z</time>
      </trkpt>
      <trkpt lat="45.66872" lon="3.32539">
        <ele>669.6958008</ele>
        <time>2011-05-22T08:08:24Z</time>
      </trkpt>
      <trkpt lat="45.66893" lon="3.3255">
        <ele>669.6958008</ele>
        <time>2011-05-22T08:08:29Z</time>
      </trkpt>
      <trkpt lat="45.66907" lon="3.32557">
        <ele>669.6958008</ele>
        <time>2011-05-22T08:08:32Z</time>
      </trkpt>
      <trkpt lat="45.66924" lon="3.3257">
        <ele>669.2150879</ele>
        <time>2011-05-22T08:08:36Z</time>
      </trkpt>
      <trkpt lat="45.66937" lon="3.32579">
        <ele>668.2536621</ele>
        <time>2011-05-22T08:08:39Z</time>
      </trkpt>
      <trkpt lat="45.6696" lon="3.32596">
        <ele>668.2536621</ele>
        <time>2011-05-22T08:08:45Z</time>
      </trkpt>
      <trkpt lat="45.66981" lon="3.32617">
        <ele>668.734375</ele>
        <time>2011-05-22T08:08:51Z</time>
      </trkpt>
      <trkpt lat="45.66991" lon="3.32627">
        <ele>668.734375</ele>
        <time>2011-05-22T08:08:54Z</time>
      </trkpt>
      <trkpt lat="45.67012" lon="3.32621">
        <ele>667.7727051</ele>
        <time>2011-05-22T08:08:59Z</time>
      </trkpt>
      <trkpt lat="45.67038" lon="3.32608">
        <ele>666.3308105</ele>
        <time>2011-05-22T08:09:04Z</time>
      </trkpt>
      <trkpt lat="45.67055" lon="3.32596">
        <ele>664.4082031</ele>
        <time>2011-05-22T08:09:07Z</time>
      </trkpt>
      <trkpt lat="45.67067" lon="3.32587">
        <ele>662.9663086</ele>
        <time>2011-05-22T08:09:09Z</time>
      </trkpt>
      <trkpt lat="45.67094" lon="3.32572">
        <ele>661.5244141</ele>
        <time>2011-05-22T08:09:13Z</time>
      </trkpt>
      <trkpt lat="45.67107" lon="3.32564">
        <ele>660.5629883</ele>
        <time>2011-05-22T08:09:15Z</time>
      </trkpt>
      <trkpt lat="45.67132" lon="3.32543">
        <ele>660.5629883</ele>
        <time>2011-05-22T08:09:19Z</time>
      </trkpt>
      <trkpt lat="45.67168" lon="3.32535">
        <ele>657.1984863</ele>
        <time>2011-05-22T08:09:24Z</time>
      </trkpt>
      <trkpt lat="45.67176" lon="3.32535">
        <ele>656.7177734</ele>
        <time>2011-05-22T08:09:25Z</time>
      </trkpt>
      <trkpt lat="45.67182" lon="3.32535">
        <ele>657.1984863</ele>
        <time>2011-05-22T08:09:26Z</time>
      </trkpt>
      <trkpt lat="45.67203" lon="3.3254">
        <ele>653.8339844</ele>
        <time>2011-05-22T08:09:29Z</time>
      </trkpt>
      <trkpt lat="45.6721" lon="3.32545">
        <ele>653.3532715</ele>
        <time>2011-05-22T08:09:30Z</time>
      </trkpt>
      <trkpt lat="45.67226" lon="3.32558">
        <ele>651.4304199</ele>
        <time>2011-05-22T08:09:33Z</time>
      </trkpt>
      <trkpt lat="45.67254" lon="3.32568">
        <ele>649.0270996</ele>
        <time>2011-05-22T08:09:37Z</time>
      </trkpt>
      <trkpt lat="45.67276" lon="3.32578">
        <ele>647.1044922</ele>
        <time>2011-05-22T08:09:40Z</time>
      </trkpt>
      <trkpt lat="45.6729" lon="3.32584">
        <ele>647.1044922</ele>
        <time>2011-05-22T08:09:42Z</time>
      </trkpt>
      <trkpt lat="45.67325" lon="3.32588">
        <ele>647.5852051</ele>
        <time>2011-05-22T08:09:47Z</time>
      </trkpt>
      <trkpt lat="45.67339" lon="3.32588">
        <ele>649.0270996</ele>
        <time>2011-05-22T08:09:49Z</time>
      </trkpt>
      <trkpt lat="45.6736" lon="3.32587">
        <ele>649.0270996</ele>
        <time>2011-05-22T08:09:52Z</time>
      </trkpt>
      <trkpt lat="45.67392" lon="3.32573">
        <ele>649.9885254</ele>
        <time>2011-05-22T08:09:57Z</time>
      </trkpt>
      <trkpt lat="45.67421" lon="3.32565">
        <ele>650.949707</ele>
        <time>2011-05-22T08:10:02Z</time>
      </trkpt>
      <trkpt lat="45.67427" lon="3.32564">
        <ele>650.949707</ele>
        <time>2011-05-22T08:10:03Z</time>
      </trkpt>
      <trkpt lat="45.6747" lon="3.32564">
        <ele>649.0270996</ele>
        <time>2011-05-22T08:10:10Z</time>
      </trkpt>
      <trkpt lat="45.67477" lon="3.32565">
        <ele>649.0270996</ele>
        <time>2011-05-22T08:10:11Z</time>
      </trkpt>
      <trkpt lat="45.67504" lon="3.32562">
        <ele>649.9885254</ele>
        <time>2011-05-22T08:10:15Z</time>
      </trkpt>
      <trkpt lat="45.67537" lon="3.32565">
        <ele>647.1044922</ele>
        <time>2011-05-22T08:10:20Z</time>
      </trkpt>
      <trkpt lat="45.67552" lon="3.32568">
        <ele>646.1433105</ele>
        <time>2011-05-22T08:10:22Z</time>
      </trkpt>
      <trkpt lat="45.67593" lon="3.32593">
        <ele>646.1433105</ele>
        <time>2011-05-22T08:10:28Z</time>
      </trkpt>
      <trkpt lat="45.67628" lon="3.32617">
        <ele>647.1044922</ele>
        <time>2011-05-22T08:10:34Z</time>
      </trkpt>
      <trkpt lat="45.6764" lon="3.32624">
        <ele>646.1433105</ele>
        <time>2011-05-22T08:10:36Z</time>
      </trkpt>
      <trkpt lat="45.67653" lon="3.32628">
        <ele>644.7011719</ele>
        <time>2011-05-22T08:10:38Z</time>
      </trkpt>
      <trkpt lat="45.6768" lon="3.32626">
        <ele>641.3366699</ele>
        <time>2011-05-22T08:10:42Z</time>
      </trkpt>
      <trkpt lat="45.67692" lon="3.3262">
        <ele>639.8947754</ele>
        <time>2011-05-22T08:10:44Z</time>
      </trkpt>
      <trkpt lat="45.6771" lon="3.32622">
        <ele>639.4140625</ele>
        <time>2011-05-22T08:10:49Z</time>
      </trkpt>
      <trkpt lat="45.67724" lon="3.32617">
        <ele>637.4914551</ele>
        <time>2011-05-22T08:10:53Z</time>
      </trkpt>
      <trkpt lat="45.67759" lon="3.32611">
        <ele>636.5302734</ele>
        <time>2011-05-22T08:10:59Z</time>
      </trkpt>
      <trkpt lat="45.67764" lon="3.32611">
        <ele>636.0495605</ele>
        <time>2011-05-22T08:11:00Z</time>
      </trkpt>
      <trkpt lat="45.67787" lon="3.32609">
        <ele>635.0881348</ele>
        <time>2011-05-22T08:11:04Z</time>
      </trkpt>
      <trkpt lat="45.67804" lon="3.32614">
        <ele>634.6074219</ele>
        <time>2011-05-22T08:11:09Z</time>
      </trkpt>
      <trkpt lat="45.67823" lon="3.32614">
        <ele>632.6848145</ele>
        <time>2011-05-22T08:11:14Z</time>
      </trkpt>
      <trkpt lat="45.67842" lon="3.32609">
        <ele>631.2429199</ele>
        <time>2011-05-22T08:11:19Z</time>
      </trkpt>
      <trkpt lat="45.67865" lon="3.32602">
        <ele>627.8781738</ele>
        <time>2011-05-22T08:11:24Z</time>
      </trkpt>
      <trkpt lat="45.6787" lon="3.32601">
        <ele>627.8781738</ele>
        <time>2011-05-22T08:11:25Z</time>
      </trkpt>
      <trkpt lat="45.67885" lon="3.32599">
        <ele>626.9169922</ele>
        <time>2011-05-22T08:11:29Z</time>
      </trkpt>
      <trkpt lat="45.67903" lon="3.32599">
        <ele>625.4748535</ele>
        <time>2011-05-22T08:11:34Z</time>
      </trkpt>
      <trkpt lat="45.6791" lon="3.32601">
        <ele>624.032959</ele>
        <time>2011-05-22T08:11:36Z</time>
      </trkpt>
      <trkpt lat="45.67928" lon="3.32605">
        <ele>622.5910645</ele>
        <time>2011-05-22T08:11:41Z</time>
      </trkpt>
      <trkpt lat="45.67935" lon="3.32605">
        <ele>621.1491699</ele>
        <time>2011-05-22T08:11:43Z</time>
      </trkpt>
      <trkpt lat="45.67951" lon="3.32605">
        <ele>618.7456055</ele>
        <time>2011-05-22T08:11:47Z</time>
      </trkpt>
      <trkpt lat="45.6796" lon="3.32606">
        <ele>617.7841797</ele>
        <time>2011-05-22T08:11:49Z</time>
      </trkpt>
      <trkpt lat="45.67978" lon="3.32607">
        <ele>613.9389648</ele>
        <time>2011-05-22T08:11:53Z</time>
      </trkpt>
      <trkpt lat="45.67986" lon="3.32608">
        <ele>613.9389648</ele>
        <time>2011-05-22T08:11:55Z</time>
      </trkpt>
      <trkpt lat="45.67994" lon="3.32608">
        <ele>613.9389648</ele>
        <time>2011-05-22T08:11:59Z</time>
      </trkpt>
      <trkpt lat="45.67999" lon="3.32605">
        <ele>613.4584961</ele>
        <time>2011-05-22T08:12:06Z</time>
      </trkpt>
      <trkpt lat="45.67999" lon="3.32606">
        <ele>613.4584961</ele>
        <time>2011-05-22T08:12:12Z</time>
      </trkpt>
      <trkpt lat="45.68" lon="3.32607">
        <ele>613.4584961</ele>
        <time>2011-05-22T08:12:14Z</time>
      </trkpt>
      <trkpt lat="45.6801" lon="3.32614">
        <ele>611.5358887</ele>
        <time>2011-05-22T08:12:20Z</time>
      </trkpt>
      <trkpt lat="45.68028" lon="3.32622">
        <ele>607.6906738</ele>
        <time>2011-05-22T08:12:24Z</time>
      </trkpt>
      <trkpt lat="45.68032" lon="3.32624">
        <ele>607.6906738</ele>
        <time>2011-05-22T08:12:25Z</time>
      </trkpt>
      <trkpt lat="45.68044" lon="3.32631">
        <ele>604.8066406</ele>
        <time>2011-05-22T08:12:29Z</time>
      </trkpt>
      <trkpt lat="45.68048" lon="3.32634">
        <ele>604.3261719</ele>
        <time>2011-05-22T08:12:31Z</time>
      </trkpt>
      <trkpt lat="45.68055" lon="3.32639">
        <ele>602.4030762</ele>
        <time>2011-05-22T08:12:34Z</time>
      </trkpt>
      <trkpt lat="45.68065" lon="3.32647">
        <ele>600</ele>
        <time>2011-05-22T08:12:38Z</time>
      </trkpt>
      <trkpt lat="45.6808" lon="3.3265">
        <ele>599.0385742</ele>
        <time>2011-05-22T08:12:42Z</time>
      </trkpt>
      <trkpt lat="45.68095" lon="3.32646">
        <ele>600</ele>
        <time>2011-05-22T08:12:46Z</time>
      </trkpt>
      <trkpt lat="45.68116" lon="3.32636">
        <ele>600</ele>
        <time>2011-05-22T08:12:52Z</time>
      </trkpt>
      <trkpt lat="45.68119" lon="3.32635">
        <ele>600</ele>
        <time>2011-05-22T08:12:53Z</time>
      </trkpt>
      <trkpt lat="45.68129" lon="3.32617">
        <ele>601.4418945</ele>
        <time>2011-05-22T08:12:58Z</time>
      </trkpt>
      <trkpt lat="45.68131" lon="3.32607">
        <ele>602.4030762</ele>
        <time>2011-05-22T08:13:00Z</time>
      </trkpt>
      <trkpt lat="45.68133" lon="3.32596">
        <ele>602.4030762</ele>
        <time>2011-05-22T08:13:02Z</time>
      </trkpt>
      <trkpt lat="45.68138" lon="3.32565">
        <ele>600.9611816</ele>
        <time>2011-05-22T08:13:07Z</time>
      </trkpt>
      <trkpt lat="45.68138" lon="3.32558">
        <ele>601.4418945</ele>
        <time>2011-05-22T08:13:08Z</time>
      </trkpt>
      <trkpt lat="45.68145" lon="3.32491">
        <ele>600</ele>
        <time>2011-05-22T08:13:17Z</time>
      </trkpt>
      <trkpt lat="45.68147" lon="3.32448">
        <ele>597.5966797</ele>
        <time>2011-05-22T08:13:22Z</time>
      </trkpt>
      <trkpt lat="45.68147" lon="3.32439">
        <ele>597.5966797</ele>
        <time>2011-05-22T08:13:23Z</time>
      </trkpt>
      <trkpt lat="45.68159" lon="3.32407">
        <ele>596.635498</ele>
        <time>2011-05-22T08:13:27Z</time>
      </trkpt>
      <trkpt lat="45.68188" lon="3.32366">
        <ele>593.270752</ele>
        <time>2011-05-22T08:13:33Z</time>
      </trkpt>
      <trkpt lat="45.6822" lon="3.32335">
        <ele>590.3869629</ele>
        <time>2011-05-22T08:13:38Z</time>
      </trkpt>
      <trkpt lat="45.68228" lon="3.32328">
        <ele>589.90625</ele>
        <time>2011-05-22T08:13:39Z</time>
      </trkpt>
      <trkpt lat="45.68244" lon="3.32315">
        <ele>588.4643555</ele>
        <time>2011-05-22T08:13:41Z</time>
      </trkpt>
      <trkpt lat="45.68279" lon="3.32266">
        <ele>584.1381836</ele>
        <time>2011-05-22T08:13:46Z</time>
      </trkpt>
      <trkpt lat="45.6829" lon="3.32243">
        <ele>583.1767578</ele>
        <time>2011-05-22T08:13:48Z</time>
      </trkpt>
      <trkpt lat="45.68294" lon="3.32233">
        <ele>582.6962891</ele>
        <time>2011-05-22T08:13:49Z</time>
      </trkpt>
      <trkpt lat="45.68298" lon="3.32224">
        <ele>583.1767578</ele>
        <time>2011-05-22T08:13:50Z</time>
      </trkpt>
      <trkpt lat="45.68301" lon="3.32214">
        <ele>582.2155762</ele>
        <time>2011-05-22T08:13:51Z</time>
      </trkpt>
      <trkpt lat="45.68306" lon="3.32177">
        <ele>580.2929688</ele>
        <time>2011-05-22T08:13:55Z</time>
      </trkpt>
      <trkpt lat="45.68306" lon="3.32167">
        <ele>579.8122559</ele>
        <time>2011-05-22T08:13:56Z</time>
      </trkpt>
      <trkpt lat="45.68307" lon="3.32157">
        <ele>579.8122559</ele>
        <time>2011-05-22T08:13:57Z</time>
      </trkpt>
      <trkpt lat="45.68308" lon="3.32147">
        <ele>580.2929688</ele>
        <time>2011-05-22T08:13:58Z</time>
      </trkpt>
      <trkpt lat="45.68312" lon="3.32128">
        <ele>580.2929688</ele>
        <time>2011-05-22T08:14:00Z</time>
      </trkpt>
      <trkpt lat="45.68321" lon="3.32103">
        <ele>581.2543945</ele>
        <time>2011-05-22T08:14:04Z</time>
      </trkpt>
      <trkpt lat="45.68321" lon="3.3209">
        <ele>582.6962891</ele>
        <time>2011-05-22T08:14:07Z</time>
      </trkpt>
      <trkpt lat="45.6831" lon="3.32075">
        <ele>582.6962891</ele>
        <time>2011-05-22T08:14:11Z</time>
      </trkpt>
      <trkpt lat="45.68303" lon="3.32067">
        <ele>583.1767578</ele>
        <time>2011-05-22T08:14:13Z</time>
      </trkpt>
      <trkpt lat="45.68298" lon="3.32057">
        <ele>583.6574707</ele>
        <time>2011-05-22T08:14:15Z</time>
      </trkpt>
      <trkpt lat="45.68294" lon="3.32046">
        <ele>585.0996094</ele>
        <time>2011-05-22T08:14:17Z</time>
      </trkpt>
      <trkpt lat="45.6829" lon="3.32029">
        <ele>585.5800781</ele>
        <time>2011-05-22T08:14:20Z</time>
      </trkpt>
      <trkpt lat="45.68287" lon="3.32017">
        <ele>585.5800781</ele>
        <time>2011-05-22T08:14:22Z</time>
      </trkpt>
      <trkpt lat="45.68285" lon="3.32012">
        <ele>586.5415039</ele>
        <time>2011-05-22T08:14:23Z</time>
      </trkpt>
      <trkpt lat="45.68281" lon="3.31997">
        <ele>588.4643555</ele>
        <time>2011-05-22T08:14:26Z</time>
      </trkpt>
      <trkpt lat="45.68278" lon="3.31978">
        <ele>588.9450684</ele>
        <time>2011-05-22T08:14:30Z</time>
      </trkpt>
      <trkpt lat="45.68273" lon="3.31956">
        <ele>590.3869629</ele>
        <time>2011-05-22T08:14:35Z</time>
      </trkpt>
      <trkpt lat="45.68259" lon="3.31953">
        <ele>590.8674316</ele>
        <time>2011-05-22T08:14:40Z</time>
      </trkpt>
      <trkpt lat="45.6824" lon="3.3196">
        <ele>591.3481445</ele>
        <time>2011-05-22T08:14:46Z</time>
      </trkpt>
      <trkpt lat="45.68217" lon="3.31969">
        <ele>589.90625</ele>
        <time>2011-05-22T08:14:52Z</time>
      </trkpt>
      <trkpt lat="45.68185" lon="3.31974">
        <ele>587.5026855</ele>
        <time>2011-05-22T08:14:58Z</time>
      </trkpt>
      <trkpt lat="45.68172" lon="3.31977">
        <ele>586.5415039</ele>
        <time>2011-05-22T08:15:00Z</time>
      </trkpt>
      <trkpt lat="45.68154" lon="3.31989">
        <ele>584.6188965</ele>
        <time>2011-05-22T08:15:03Z</time>
      </trkpt>
      <trkpt lat="45.68148" lon="3.31995">
        <ele>585.0996094</ele>
        <time>2011-05-22T08:15:04Z</time>
      </trkpt>
      <trkpt lat="45.68138" lon="3.32007">
        <ele>584.6188965</ele>
        <time>2011-05-22T08:15:06Z</time>
      </trkpt>
      <trkpt lat="45.68112" lon="3.32026">
        <ele>585.5800781</ele>
        <time>2011-05-22T08:15:11Z</time>
      </trkpt>
      <trkpt lat="45.6811" lon="3.32028">
        <ele>586.5415039</ele>
        <time>2011-05-22T08:15:12Z</time>
      </trkpt>
      <trkpt lat="45.68102" lon="3.32024">
        <ele>584.6188965</ele>
        <time>2011-05-22T08:15:16Z</time>
      </trkpt>
      <trkpt lat="45.68092" lon="3.32021">
        <ele>583.6574707</ele>
        <time>2011-05-22T08:15:18Z</time>
      </trkpt>
      <trkpt lat="45.68069" lon="3.32012">
        <ele>581.7348633</ele>
        <time>2011-05-22T08:15:22Z</time>
      </trkpt>
      <trkpt lat="45.68048" lon="3.32005">
        <ele>580.2929688</ele>
        <time>2011-05-22T08:15:25Z</time>
      </trkpt>
      <trkpt lat="45.68014" lon="3.32013">
        <ele>580.2929688</ele>
        <time>2011-05-22T08:15:30Z</time>
      </trkpt>
      <trkpt lat="45.67983" lon="3.32024">
        <ele>580.2929688</ele>
        <time>2011-05-22T08:15:35Z</time>
      </trkpt>
      <trkpt lat="45.67953" lon="3.32021">
        <ele>579.8122559</ele>
        <time>2011-05-22T08:15:40Z</time>
      </trkpt>
      <trkpt lat="45.67933" lon="3.32016">
        <ele>577.8896484</ele>
        <time>2011-05-22T08:15:43Z</time>
      </trkpt>
      <trkpt lat="45.67919" lon="3.32011">
        <ele>575.967041</ele>
        <time>2011-05-22T08:15:45Z</time>
      </trkpt>
      <trkpt lat="45.67904" lon="3.32003">
        <ele>574.5251465</ele>
        <time>2011-05-22T08:15:47Z</time>
      </trkpt>
      <trkpt lat="45.67869" lon="3.31992">
        <ele>575.4863281</ele>
        <time>2011-05-22T08:15:52Z</time>
      </trkpt>
      <trkpt lat="45.67825" lon="3.31985">
        <ele>575.4863281</ele>
        <time>2011-05-22T08:15:59Z</time>
      </trkpt>
      <trkpt lat="45.67819" lon="3.31984">
        <ele>575.4863281</ele>
        <time>2011-05-22T08:16:00Z</time>
      </trkpt>
      <trkpt lat="45.67793" lon="3.31967">
        <ele>577.4091797</ele>
        <time>2011-05-22T08:16:05Z</time>
      </trkpt>
      <trkpt lat="45.67771" lon="3.31943">
        <ele>576.9284668</ele>
        <time>2011-05-22T08:16:10Z</time>
      </trkpt>
      <trkpt lat="45.67768" lon="3.31938">
        <ele>576.4477539</ele>
        <time>2011-05-22T08:16:11Z</time>
      </trkpt>
      <trkpt lat="45.67762" lon="3.31907">
        <ele>575.0058594</ele>
        <time>2011-05-22T08:16:16Z</time>
      </trkpt>
      <trkpt lat="45.67761" lon="3.31901">
        <ele>575.0058594</ele>
        <time>2011-05-22T08:16:17Z</time>
      </trkpt>
      <trkpt lat="45.67759" lon="3.31873">
        <ele>573.5639648</ele>
        <time>2011-05-22T08:16:21Z</time>
      </trkpt>
      <trkpt lat="45.67758" lon="3.31847">
        <ele>573.083252</ele>
        <time>2011-05-22T08:16:26Z</time>
      </trkpt>
      <trkpt lat="45.67764" lon="3.31815">
        <ele>571.6408691</ele>
        <time>2011-05-22T08:16:31Z</time>
      </trkpt>
      <trkpt lat="45.67772" lon="3.31805">
        <ele>570.6796875</ele>
        <time>2011-05-22T08:16:33Z</time>
      </trkpt>
      <trkpt lat="45.67784" lon="3.31792">
        <ele>570.6796875</ele>
        <time>2011-05-22T08:16:37Z</time>
      </trkpt>
      <trkpt lat="45.67797" lon="3.31787">
        <ele>567.3151855</ele>
        <time>2011-05-22T08:16:41Z</time>
      </trkpt>
      <trkpt lat="45.678" lon="3.31788">
        <ele>567.3151855</ele>
        <time>2011-05-22T08:16:42Z</time>
      </trkpt>
      <trkpt lat="45.67819" lon="3.31794">
        <ele>566.8344727</ele>
        <time>2011-05-22T08:16:46Z</time>
      </trkpt>
      <trkpt lat="45.67831" lon="3.31803">
        <ele>567.3151855</ele>
        <time>2011-05-22T08:16:49Z</time>
      </trkpt>
      <trkpt lat="45.67841" lon="3.31811">
        <ele>566.3537598</ele>
        <time>2011-05-22T08:16:52Z</time>
      </trkpt>
      <trkpt lat="45.6785" lon="3.31813">
        <ele>564.9118652</ele>
        <time>2011-05-22T08:16:54Z</time>
      </trkpt>
      <trkpt lat="45.67862" lon="3.31814">
        <ele>563.4699707</ele>
        <time>2011-05-22T08:16:56Z</time>
      </trkpt>
      <trkpt lat="45.67868" lon="3.31815">
        <ele>561.5473633</ele>
        <time>2011-05-22T08:16:57Z</time>
      </trkpt>
      <trkpt lat="45.67883" lon="3.31815">
        <ele>560.5859375</ele>
        <time>2011-05-22T08:17:00Z</time>
      </trkpt>
      <trkpt lat="45.67893" lon="3.31801">
        <ele>556.2600098</ele>
        <time>2011-05-22T08:17:03Z</time>
      </trkpt>
      <trkpt lat="45.67897" lon="3.31792">
        <ele>555.298584</ele>
        <time>2011-05-22T08:17:04Z</time>
      </trkpt>
      <trkpt lat="45.67914" lon="3.3175">
        <ele>554.3374023</ele>
        <time>2011-05-22T08:17:09Z</time>
      </trkpt>
      <trkpt lat="45.6793" lon="3.31732">
        <ele>552.4145508</ele>
        <time>2011-05-22T08:17:14Z</time>
      </trkpt>
      <trkpt lat="45.6794" lon="3.31727">
        <ele>550.9726563</ele>
        <time>2011-05-22T08:17:19Z</time>
      </trkpt>
      <trkpt lat="45.67942" lon="3.31724">
        <ele>550.4921875</ele>
        <time>2011-05-22T08:17:21Z</time>
      </trkpt>
      <trkpt lat="45.67951" lon="3.31719">
        <ele>549.0500488</ele>
        <time>2011-05-22T08:17:27Z</time>
      </trkpt>
      <trkpt lat="45.67957" lon="3.31715">
        <ele>547.1274414</ele>
        <time>2011-05-22T08:17:31Z</time>
      </trkpt>
      <trkpt lat="45.67959" lon="3.31713">
        <ele>546.6468506</ele>
        <time>2011-05-22T08:17:32Z</time>
      </trkpt>
      <trkpt lat="45.67965" lon="3.3171">
        <ele>545.204834</ele>
        <time>2011-05-22T08:17:35Z</time>
      </trkpt>
      <trkpt lat="45.67977" lon="3.317">
        <ele>542.3209229</ele>
        <time>2011-05-22T08:17:41Z</time>
      </trkpt>
      <trkpt lat="45.67992" lon="3.31691">
        <ele>539.4368896</ele>
        <time>2011-05-22T08:17:46Z</time>
      </trkpt>
      <trkpt lat="45.67994" lon="3.31691">
        <ele>539.4368896</ele>
        <time>2011-05-22T08:17:47Z</time>
      </trkpt>
      <trkpt lat="45.68013" lon="3.31682">
        <ele>536.0723877</ele>
        <time>2011-05-22T08:17:53Z</time>
      </trkpt>
      <trkpt lat="45.68026" lon="3.31674">
        <ele>533.6689453</ele>
        <time>2011-05-22T08:17:57Z</time>
      </trkpt>
      <trkpt lat="45.68043" lon="3.3166">
        <ele>531.2657471</ele>
        <time>2011-05-22T08:18:02Z</time>
      </trkpt>
      <trkpt lat="45.68052" lon="3.31641">
        <ele>529.8237305</ele>
        <time>2011-05-22T08:18:06Z</time>
      </trkpt>
      <trkpt lat="45.68053" lon="3.31617">
        <ele>529.3431396</ele>
        <time>2011-05-22T08:18:10Z</time>
      </trkpt>
      <trkpt lat="45.68053" lon="3.31586">
        <ele>527.901001</ele>
        <time>2011-05-22T08:18:15Z</time>
      </trkpt>
      <trkpt lat="45.68066" lon="3.3156">
        <ele>525.9783936</ele>
        <time>2011-05-22T08:18:20Z</time>
      </trkpt>
      <trkpt lat="45.6807" lon="3.31556">
        <ele>524.536499</ele>
        <time>2011-05-22T08:18:21Z</time>
      </trkpt>
      <trkpt lat="45.68091" lon="3.31545">
        <ele>524.0557861</ele>
        <time>2011-05-22T08:18:25Z</time>
      </trkpt>
      <trkpt lat="45.68112" lon="3.31535">
        <ele>521.1719971</ele>
        <time>2011-05-22T08:18:29Z</time>
      </trkpt>
      <trkpt lat="45.68117" lon="3.31533">
        <ele>520.2105713</ele>
        <time>2011-05-22T08:18:30Z</time>
      </trkpt>
      <trkpt lat="45.68137" lon="3.31523">
        <ele>518.2878418</ele>
        <time>2011-05-22T08:18:34Z</time>
      </trkpt>
      <trkpt lat="45.68147" lon="3.31538">
        <ele>518.2878418</ele>
        <time>2011-05-22T08:18:38Z</time>
      </trkpt>
      <trkpt lat="45.6815" lon="3.31552">
        <ele>518.2878418</ele>
        <time>2011-05-22T08:18:40Z</time>
      </trkpt>
      <trkpt lat="45.68166" lon="3.3157">
        <ele>518.2878418</ele>
        <time>2011-05-22T08:18:44Z</time>
      </trkpt>
      <trkpt lat="45.68171" lon="3.31571">
        <ele>518.2878418</ele>
        <time>2011-05-22T08:18:45Z</time>
      </trkpt>
      <trkpt lat="45.68191" lon="3.31573">
        <ele>519.2492676</ele>
        <time>2011-05-22T08:18:49Z</time>
      </trkpt>
      <trkpt lat="45.68205" lon="3.31579">
        <ele>520.6912842</ele>
        <time>2011-05-22T08:18:52Z</time>
      </trkpt>
      <trkpt lat="45.68222" lon="3.31589">
        <ele>521.6525879</ele>
        <time>2011-05-22T08:18:56Z</time>
      </trkpt>
      <trkpt lat="45.68233" lon="3.316">
        <ele>522.6138916</ele>
        <time>2011-05-22T08:18:59Z</time>
      </trkpt>
      <trkpt lat="45.6824" lon="3.31609">
        <ele>522.6138916</ele>
        <time>2011-05-22T08:19:01Z</time>
      </trkpt>
      <trkpt lat="45.68258" lon="3.31645">
        <ele>524.536499</ele>
        <time>2011-05-22T08:19:08Z</time>
      </trkpt>
      <trkpt lat="45.68264" lon="3.31663">
        <ele>524.536499</ele>
        <time>2011-05-22T08:19:11Z</time>
      </trkpt>
      <trkpt lat="45.6827" lon="3.31674">
        <ele>524.536499</ele>
        <time>2011-05-22T08:19:13Z</time>
      </trkpt>
      <trkpt lat="45.68296" lon="3.31705">
        <ele>524.536499</ele>
        <time>2011-05-22T08:19:20Z</time>
      </trkpt>
      <trkpt lat="45.68312" lon="3.31719">
        <ele>525.0172119</ele>
        <time>2011-05-22T08:19:24Z</time>
      </trkpt>
      <trkpt lat="45.68342" lon="3.31728">
        <ele>524.536499</ele>
        <time>2011-05-22T08:19:30Z</time>
      </trkpt>
      <trkpt lat="45.68352" lon="3.31726">
        <ele>524.536499</ele>
        <time>2011-05-22T08:19:32Z</time>
      </trkpt>
      <trkpt lat="45.68367" lon="3.31721">
        <ele>524.536499</ele>
        <time>2011-05-22T08:19:35Z</time>
      </trkpt>
      <trkpt lat="45.68371" lon="3.3171">
        <ele>524.0557861</ele>
        <time>2011-05-22T08:19:38Z</time>
      </trkpt>
      <trkpt lat="45.68375" lon="3.31675">
        <ele>519.2492676</ele>
        <time>2011-05-22T08:19:42Z</time>
      </trkpt>
      <trkpt lat="45.68379" lon="3.31628">
        <ele>516.3652344</ele>
        <time>2011-05-22T08:19:46Z</time>
      </trkpt>
      <trkpt lat="45.68379" lon="3.31616">
        <ele>515.8846436</ele>
        <time>2011-05-22T08:19:47Z</time>
      </trkpt>
      <trkpt lat="45.68367" lon="3.31573">
        <ele>513.9620361</ele>
        <time>2011-05-22T08:19:51Z</time>
      </trkpt>
      <trkpt lat="45.68353" lon="3.31557">
        <ele>512.5200195</ele>
        <time>2011-05-22T08:19:53Z</time>
      </trkpt>
      <trkpt lat="45.68332" lon="3.31539">
        <ele>510.59729</ele>
        <time>2011-05-22T08:19:56Z</time>
      </trkpt>
      <trkpt lat="45.68322" lon="3.3152">
        <ele>509.6361084</ele>
        <time>2011-05-22T08:19:59Z</time>
      </trkpt>
      <trkpt lat="45.68321" lon="3.31502">
        <ele>507.2327881</ele>
        <time>2011-05-22T08:20:02Z</time>
      </trkpt>
      <trkpt lat="45.68319" lon="3.31481">
        <ele>503.3874512</ele>
        <time>2011-05-22T08:20:05Z</time>
      </trkpt>
      <trkpt lat="45.68314" lon="3.31463">
        <ele>502.9067383</ele>
        <time>2011-05-22T08:20:07Z</time>
      </trkpt>
      <trkpt lat="45.68312" lon="3.31454">
        <ele>501.9455566</ele>
        <time>2011-05-22T08:20:08Z</time>
      </trkpt>
      <trkpt lat="45.6831" lon="3.3143">
        <ele>502.4261475</ele>
        <time>2011-05-22T08:20:11Z</time>
      </trkpt>
      <trkpt lat="45.68317" lon="3.31422">
        <ele>505.3101807</ele>
        <time>2011-05-22T08:20:14Z</time>
      </trkpt>
      <trkpt lat="45.68325" lon="3.31419">
        <ele>506.2714844</ele>
        <time>2011-05-22T08:20:17Z</time>
      </trkpt>
      <trkpt lat="45.68328" lon="3.31415">
        <ele>506.7520752</ele>
        <time>2011-05-22T08:20:19Z</time>
      </trkpt>
      <trkpt lat="45.68333" lon="3.31411">
        <ele>507.713501</ele>
        <time>2011-05-22T08:20:21Z</time>
      </trkpt>
      <trkpt lat="45.68336" lon="3.31409">
        <ele>508.1940918</ele>
        <time>2011-05-22T08:20:22Z</time>
      </trkpt>
      <trkpt lat="45.68338" lon="3.31407">
        <ele>508.1940918</ele>
        <time>2011-05-22T08:20:23Z</time>
      </trkpt>
      <trkpt lat="45.68347" lon="3.31401">
        <ele>508.6746826</ele>
        <time>2011-05-22T08:20:26Z</time>
      </trkpt>
      <trkpt lat="45.68349" lon="3.31396">
        <ele>508.6746826</ele>
        <time>2011-05-22T08:20:27Z</time>
      </trkpt>
      <trkpt lat="45.68361" lon="3.31374">
        <ele>509.1553955</ele>
        <time>2011-05-22T08:20:32Z</time>
      </trkpt>
      <trkpt lat="45.68389" lon="3.31356">
        <ele>506.2714844</ele>
        <time>2011-05-22T08:20:38Z</time>
      </trkpt>
      <trkpt lat="45.68412" lon="3.31336">
        <ele>504.8294678</ele>
        <time>2011-05-22T08:20:42Z</time>
      </trkpt>
      <trkpt lat="45.68432" lon="3.31318">
        <ele>502.4261475</ele>
        <time>2011-05-22T08:20:45Z</time>
      </trkpt>
      <trkpt lat="45.68448" lon="3.31308">
        <ele>501.4648438</ele>
        <time>2011-05-22T08:20:47Z</time>
      </trkpt>
      <trkpt lat="45.68474" lon="3.313">
        <ele>497.6196289</ele>
        <time>2011-05-22T08:20:50Z</time>
      </trkpt>
      <trkpt lat="45.68491" lon="3.31292">
        <ele>497.138916</ele>
        <time>2011-05-22T08:20:52Z</time>
      </trkpt>
      <trkpt lat="45.68522" lon="3.31271">
        <ele>497.138916</ele>
        <time>2011-05-22T08:20:56Z</time>
      </trkpt>
      <trkpt lat="45.68529" lon="3.31266">
        <ele>497.6196289</ele>
        <time>2011-05-22T08:20:57Z</time>
      </trkpt>
      <trkpt lat="45.68535" lon="3.3126">
        <ele>497.6196289</ele>
        <time>2011-05-22T08:20:58Z</time>
      </trkpt>
      <trkpt lat="45.68546" lon="3.31239">
        <ele>500.0229492</ele>
        <time>2011-05-22T08:21:02Z</time>
      </trkpt>
      <trkpt lat="45.68544" lon="3.31234">
        <ele>500.9841309</ele>
        <time>2011-05-22T08:21:03Z</time>
      </trkpt>
      <trkpt lat="45.68541" lon="3.31226">
        <ele>501.4648438</ele>
        <time>2011-05-22T08:21:05Z</time>
      </trkpt>
      <trkpt lat="45.6854" lon="3.31218">
        <ele>501.4648438</ele>
        <time>2011-05-22T08:21:07Z</time>
      </trkpt>
      <trkpt lat="45.68539" lon="3.31202">
        <ele>503.3874512</ele>
        <time>2011-05-22T08:21:11Z</time>
      </trkpt>
      <trkpt lat="45.6854" lon="3.31188">
        <ele>505.7908936</ele>
        <time>2011-05-22T08:21:15Z</time>
      </trkpt>
      <trkpt lat="45.68541" lon="3.31182">
        <ele>506.2714844</ele>
        <time>2011-05-22T08:21:17Z</time>
      </trkpt>
      <trkpt lat="45.68541" lon="3.31176">
        <ele>507.2327881</ele>
        <time>2011-05-22T08:21:19Z</time>
      </trkpt>
      <trkpt lat="45.68543" lon="3.31166">
        <ele>508.1940918</ele>
        <time>2011-05-22T08:21:22Z</time>
      </trkpt>
      <trkpt lat="45.68543" lon="3.31163">
        <ele>508.6746826</ele>
        <time>2011-05-22T08:21:23Z</time>
      </trkpt>
      <trkpt lat="45.68545" lon="3.31154">
        <ele>509.1553955</ele>
        <time>2011-05-22T08:21:26Z</time>
      </trkpt>
      <trkpt lat="45.68546" lon="3.31151">
        <ele>510.1166992</ele>
        <time>2011-05-22T08:21:27Z</time>
      </trkpt>
      <trkpt lat="45.68548" lon="3.31141">
        <ele>510.59729</ele>
        <time>2011-05-22T08:21:30Z</time>
      </trkpt>
      <trkpt lat="45.68551" lon="3.31129">
        <ele>510.59729</ele>
        <time>2011-05-22T08:21:33Z</time>
      </trkpt>
      <trkpt lat="45.68567" lon="3.31122">
        <ele>509.1553955</ele>
        <time>2011-05-22T08:21:38Z</time>
      </trkpt>
      <trkpt lat="45.68592" lon="3.31103">
        <ele>505.3101807</ele>
        <time>2011-05-22T08:21:43Z</time>
      </trkpt>
      <trkpt lat="45.68606" lon="3.31077">
        <ele>501.4648438</ele>
        <time>2011-05-22T08:21:46Z</time>
      </trkpt>
      <trkpt lat="45.68622" lon="3.31046">
        <ele>498.5809326</ele>
        <time>2011-05-22T08:21:49Z</time>
      </trkpt>
      <trkpt lat="45.68653" lon="3.30997">
        <ele>495.6968994</ele>
        <time>2011-05-22T08:21:54Z</time>
      </trkpt>
      <trkpt lat="45.68678" lon="3.30961">
        <ele>496.6583252</ele>
        <time>2011-05-22T08:21:58Z</time>
      </trkpt>
      <trkpt lat="45.68684" lon="3.30954">
        <ele>497.138916</ele>
        <time>2011-05-22T08:21:59Z</time>
      </trkpt>
      <trkpt lat="45.6872" lon="3.30926">
        <ele>494.2550049</ele>
        <time>2011-05-22T08:22:04Z</time>
      </trkpt>
      <trkpt lat="45.68733" lon="3.30916">
        <ele>494.7355957</ele>
        <time>2011-05-22T08:22:06Z</time>
      </trkpt>
      <trkpt lat="45.68763" lon="3.30905">
        <ele>492.8129883</ele>
        <time>2011-05-22T08:22:10Z</time>
      </trkpt>
      <trkpt lat="45.68771" lon="3.30903">
        <ele>492.8129883</ele>
        <time>2011-05-22T08:22:11Z</time>
      </trkpt>
      <trkpt lat="45.68787" lon="3.30899">
        <ele>490.8903809</ele>
        <time>2011-05-22T08:22:13Z</time>
      </trkpt>
      <trkpt lat="45.68795" lon="3.30897">
        <ele>490.8903809</ele>
        <time>2011-05-22T08:22:14Z</time>
      </trkpt>
      <trkpt lat="45.68803" lon="3.30895">
        <ele>490.40979</ele>
        <time>2011-05-22T08:22:15Z</time>
      </trkpt>
      <trkpt lat="45.68818" lon="3.30895">
        <ele>491.3709717</ele>
        <time>2011-05-22T08:22:17Z</time>
      </trkpt>
      <trkpt lat="45.68828" lon="3.30893">
        <ele>492.3323975</ele>
        <time>2011-05-22T08:22:19Z</time>
      </trkpt>
      <trkpt lat="45.68831" lon="3.30892">
        <ele>492.3323975</ele>
        <time>2011-05-22T08:22:20Z</time>
      </trkpt>
      <trkpt lat="45.68831" lon="3.30884">
        <ele>493.2935791</ele>
        <time>2011-05-22T08:22:22Z</time>
      </trkpt>
      <trkpt lat="45.68826" lon="3.3087">
        <ele>494.2550049</ele>
        <time>2011-05-22T08:22:25Z</time>
      </trkpt>
      <trkpt lat="45.68816" lon="3.30844">
        <ele>495.6968994</ele>
        <time>2011-05-22T08:22:30Z</time>
      </trkpt>
      <trkpt lat="45.68812" lon="3.30836">
        <ele>496.1777344</ele>
        <time>2011-05-22T08:22:32Z</time>
      </trkpt>
      <trkpt lat="45.68807" lon="3.30829">
        <ele>497.138916</ele>
        <time>2011-05-22T08:22:34Z</time>
      </trkpt>
      <trkpt lat="45.68793" lon="3.30808">
        <ele>499.0615234</ele>
        <time>2011-05-22T08:22:41Z</time>
      </trkpt>
      <trkpt lat="45.68788" lon="3.30805">
        <ele>499.5422363</ele>
        <time>2011-05-22T08:22:43Z</time>
      </trkpt>
      <trkpt lat="45.68785" lon="3.30804">
        <ele>500.0229492</ele>
        <time>2011-05-22T08:22:44Z</time>
      </trkpt>
      <trkpt lat="45.6877" lon="3.30801">
        <ele>500.9841309</ele>
        <time>2011-05-22T08:22:50Z</time>
      </trkpt>
      <trkpt lat="45.6876" lon="3.30801">
        <ele>502.4261475</ele>
        <time>2011-05-22T08:22:54Z</time>
      </trkpt>
      <trkpt lat="45.68739" lon="3.30796">
        <ele>504.348877</ele>
        <time>2011-05-22T08:23:03Z</time>
      </trkpt>
      <trkpt lat="45.68724" lon="3.30795">
        <ele>506.7520752</ele>
        <time>2011-05-22T08:23:10Z</time>
      </trkpt>
      <trkpt lat="45.68718" lon="3.30794">
        <ele>508.1940918</ele>
        <time>2011-05-22T08:23:13Z</time>
      </trkpt>
      <trkpt lat="45.687" lon="3.30791">
        <ele>510.59729</ele>
        <time>2011-05-22T08:23:22Z</time>
      </trkpt>
      <trkpt lat="45.68696" lon="3.3079">
        <ele>511.0780029</ele>
        <time>2011-05-22T08:23:24Z</time>
      </trkpt>
      <trkpt lat="45.68683" lon="3.30786">
        <ele>512.5200195</ele>
        <time>2011-05-22T08:23:31Z</time>
      </trkpt>
      <trkpt lat="45.68677" lon="3.30784">
        <ele>514.442627</ele>
        <time>2011-05-22T08:23:35Z</time>
      </trkpt>
      <trkpt lat="45.68668" lon="3.30784">
        <ele>515.8846436</ele>
        <time>2011-05-22T08:23:41Z</time>
      </trkpt>
      <trkpt lat="45.68668" lon="3.30773">
        <ele>515.8846436</ele>
        <time>2011-05-22T08:23:46Z</time>
      </trkpt>
      <trkpt lat="45.68672" lon="3.30753">
        <ele>515.4040527</ele>
        <time>2011-05-22T08:23:51Z</time>
      </trkpt>
      <trkpt lat="45.68676" lon="3.30726">
        <ele>514.9233398</ele>
        <time>2011-05-22T08:23:57Z</time>
      </trkpt>
      <trkpt lat="45.68681" lon="3.30699">
        <ele>514.442627</ele>
        <time>2011-05-22T08:24:03Z</time>
      </trkpt>
      <trkpt lat="45.68682" lon="3.30665">
        <ele>514.9233398</ele>
        <time>2011-05-22T08:24:11Z</time>
      </trkpt>
      <trkpt lat="45.68677" lon="3.30655">
        <ele>515.8846436</ele>
        <time>2011-05-22T08:24:15Z</time>
      </trkpt>
      <trkpt lat="45.68665" lon="3.30648">
        <ele>517.807251</ele>
        <time>2011-05-22T08:24:22Z</time>
      </trkpt>
      <trkpt lat="45.6866" lon="3.30649">
        <ele>518.2878418</ele>
        <time>2011-05-22T08:24:25Z</time>
      </trkpt>
      <trkpt lat="45.68649" lon="3.30645">
        <ele>519.2492676</ele>
        <time>2011-05-22T08:24:31Z</time>
      </trkpt>
      <trkpt lat="45.68639" lon="3.3064">
        <ele>520.2105713</ele>
        <time>2011-05-22T08:24:36Z</time>
      </trkpt>
      <trkpt lat="45.68633" lon="3.30625">
        <ele>521.1719971</ele>
        <time>2011-05-22T08:24:42Z</time>
      </trkpt>
      <trkpt lat="45.68627" lon="3.30605">
        <ele>517.807251</ele>
        <time>2011-05-22T08:24:47Z</time>
      </trkpt>
      <trkpt lat="45.68624" lon="3.30576">
        <ele>516.3652344</ele>
        <time>2011-05-22T08:24:51Z</time>
      </trkpt>
      <trkpt lat="45.68628" lon="3.30552">
        <ele>516.3652344</ele>
        <time>2011-05-22T08:24:54Z</time>
      </trkpt>
      <trkpt lat="45.68637" lon="3.30521">
        <ele>517.807251</ele>
        <time>2011-05-22T08:25:00Z</time>
      </trkpt>
      <trkpt lat="45.6864" lon="3.30509">
        <ele>519.7298584</ele>
        <time>2011-05-22T08:25:04Z</time>
      </trkpt>
      <trkpt lat="45.68643" lon="3.30491">
        <ele>522.1331787</ele>
        <time>2011-05-22T08:25:11Z</time>
      </trkpt>
      <trkpt lat="45.68644" lon="3.30486">
        <ele>523.0946045</ele>
        <time>2011-05-22T08:25:13Z</time>
      </trkpt>
      <trkpt lat="45.68646" lon="3.30477">
        <ele>525.0172119</ele>
        <time>2011-05-22T08:25:17Z</time>
      </trkpt>
      <trkpt lat="45.68651" lon="3.30461">
        <ele>527.4204102</ele>
        <time>2011-05-22T08:25:25Z</time>
      </trkpt>
      <trkpt lat="45.68656" lon="3.30449">
        <ele>527.901001</ele>
        <time>2011-05-22T08:25:31Z</time>
      </trkpt>
      <trkpt lat="45.68665" lon="3.30442">
        <ele>526.9398193</ele>
        <time>2011-05-22T08:25:35Z</time>
      </trkpt>
      <trkpt lat="45.6868" lon="3.30427">
        <ele>524.536499</ele>
        <time>2011-05-22T08:25:39Z</time>
      </trkpt>
      <trkpt lat="45.68688" lon="3.30416">
        <ele>525.0172119</ele>
        <time>2011-05-22T08:25:41Z</time>
      </trkpt>
      <trkpt lat="45.68709" lon="3.30375">
        <ele>523.0946045</ele>
        <time>2011-05-22T08:25:47Z</time>
      </trkpt>
      <trkpt lat="45.68723" lon="3.30346">
        <ele>522.6138916</ele>
        <time>2011-05-22T08:25:51Z</time>
      </trkpt>
      <trkpt lat="45.68739" lon="3.30326">
        <ele>521.1719971</ele>
        <time>2011-05-22T08:25:55Z</time>
      </trkpt>
      <trkpt lat="45.6875" lon="3.30317">
        <ele>519.2492676</ele>
        <time>2011-05-22T08:25:57Z</time>
      </trkpt>
      <trkpt lat="45.68779" lon="3.30306">
        <ele>516.3652344</ele>
        <time>2011-05-22T08:26:01Z</time>
      </trkpt>
      <trkpt lat="45.68787" lon="3.30305">
        <ele>515.4040527</ele>
        <time>2011-05-22T08:26:02Z</time>
      </trkpt>
      <trkpt lat="45.68814" lon="3.30306">
        <ele>510.59729</ele>
        <time>2011-05-22T08:26:05Z</time>
      </trkpt>
      <trkpt lat="45.68823" lon="3.30306">
        <ele>510.59729</ele>
        <time>2011-05-22T08:26:06Z</time>
      </trkpt>
      <trkpt lat="45.68854" lon="3.30309">
        <ele>509.1553955</ele>
        <time>2011-05-22T08:26:10Z</time>
      </trkpt>
      <trkpt lat="45.68859" lon="3.30309">
        <ele>509.1553955</ele>
        <time>2011-05-22T08:26:11Z</time>
      </trkpt>
      <trkpt lat="45.68868" lon="3.30304">
        <ele>508.6746826</ele>
        <time>2011-05-22T08:26:13Z</time>
      </trkpt>
      <trkpt lat="45.68873" lon="3.30281">
        <ele>509.1553955</ele>
        <time>2011-05-22T08:26:16Z</time>
      </trkpt>
      <trkpt lat="45.68868" lon="3.30224">
        <ele>510.59729</ele>
        <time>2011-05-22T08:26:24Z</time>
      </trkpt>
      <trkpt lat="45.68867" lon="3.30201">
        <ele>510.1166992</ele>
        <time>2011-05-22T08:26:27Z</time>
      </trkpt>
      <trkpt lat="45.68866" lon="3.30177">
        <ele>510.1166992</ele>
        <time>2011-05-22T08:26:30Z</time>
      </trkpt>
      <trkpt lat="45.68864" lon="3.30151">
        <ele>509.1553955</ele>
        <time>2011-05-22T08:26:33Z</time>
      </trkpt>
      <trkpt lat="45.68856" lon="3.30076">
        <ele>510.59729</ele>
        <time>2011-05-22T08:26:42Z</time>
      </trkpt>
      <trkpt lat="45.68843" lon="3.30032">
        <ele>511.0780029</ele>
        <time>2011-05-22T08:26:48Z</time>
      </trkpt>
      <trkpt lat="45.68837" lon="3.3002">
        <ele>511.0780029</ele>
        <time>2011-05-22T08:26:50Z</time>
      </trkpt>
      <trkpt lat="45.68831" lon="3.30009">
        <ele>512.5200195</ele>
        <time>2011-05-22T08:26:52Z</time>
      </trkpt>
      <trkpt lat="45.68815" lon="3.29991">
        <ele>511.0780029</ele>
        <time>2011-05-22T08:26:56Z</time>
      </trkpt>
      <trkpt lat="45.68813" lon="3.29985">
        <ele>511.0780029</ele>
        <time>2011-05-22T08:26:57Z</time>
      </trkpt>
      <trkpt lat="45.6881" lon="3.29966">
        <ele>512.0394287</ele>
        <time>2011-05-22T08:27:00Z</time>
      </trkpt>
      <trkpt lat="45.68801" lon="3.29956">
        <ele>511.0780029</ele>
        <time>2011-05-22T08:27:03Z</time>
      </trkpt>
      <trkpt lat="45.68784" lon="3.29939">
        <ele>513.9620361</ele>
        <time>2011-05-22T08:27:09Z</time>
      </trkpt>
      <trkpt lat="45.68778" lon="3.2992">
        <ele>514.9233398</ele>
        <time>2011-05-22T08:27:14Z</time>
      </trkpt>
      <trkpt lat="45.68777" lon="3.29905">
        <ele>516.8459473</ele>
        <time>2011-05-22T08:27:18Z</time>
      </trkpt>
      <trkpt lat="45.68773" lon="3.29881">
        <ele>517.3266602</ele>
        <time>2011-05-22T08:27:24Z</time>
      </trkpt>
      <trkpt lat="45.68771" lon="3.2987">
        <ele>517.807251</ele>
        <time>2011-05-22T08:27:27Z</time>
      </trkpt>
      <trkpt lat="45.68769" lon="3.29854">
        <ele>518.2878418</ele>
        <time>2011-05-22T08:27:31Z</time>
      </trkpt>
      <trkpt lat="45.68764" lon="3.29827">
        <ele>519.7298584</ele>
        <time>2011-05-22T08:27:38Z</time>
      </trkpt>
      <trkpt lat="45.68756" lon="3.29793">
        <ele>521.6525879</ele>
        <time>2011-05-22T08:27:46Z</time>
      </trkpt>
      <trkpt lat="45.68747" lon="3.29767">
        <ele>523.0946045</ele>
        <time>2011-05-22T08:27:53Z</time>
      </trkpt>
      <trkpt lat="45.68733" lon="3.29742">
        <ele>525.4978027</ele>
        <time>2011-05-22T08:28:01Z</time>
      </trkpt>
      <trkpt lat="45.68719" lon="3.29728">
        <ele>527.4204102</ele>
        <time>2011-05-22T08:28:08Z</time>
      </trkpt>
      <trkpt lat="45.68706" lon="3.29715">
        <ele>529.3431396</ele>
        <time>2011-05-22T08:28:16Z</time>
      </trkpt>
      <trkpt lat="45.68693" lon="3.29704">
        <ele>531.7463379</ele>
        <time>2011-05-22T08:28:23Z</time>
      </trkpt>
      <trkpt lat="45.6868" lon="3.29693">
        <ele>533.1883545</ele>
        <time>2011-05-22T08:28:30Z</time>
      </trkpt>
      <trkpt lat="45.68666" lon="3.29679">
        <ele>536.0723877</ele>
        <time>2011-05-22T08:28:38Z</time>
      </trkpt>
      <trkpt lat="45.6865" lon="3.29658">
        <ele>538.475708</ele>
        <time>2011-05-22T08:28:48Z</time>
      </trkpt>
      <trkpt lat="45.68637" lon="3.2964">
        <ele>539.9176025</ele>
        <time>2011-05-22T08:28:56Z</time>
      </trkpt>
      <trkpt lat="45.68622" lon="3.29628">
        <ele>540.8789063</ele>
        <time>2011-05-22T08:29:03Z</time>
      </trkpt>
      <trkpt lat="45.68604" lon="3.29613">
        <ele>542.3209229</ele>
        <time>2011-05-22T08:29:11Z</time>
      </trkpt>
      <trkpt lat="45.68584" lon="3.29604">
        <ele>542.8015137</ele>
        <time>2011-05-22T08:29:19Z</time>
      </trkpt>
      <trkpt lat="45.68563" lon="3.29604">
        <ele>545.204834</ele>
        <time>2011-05-22T08:29:27Z</time>
      </trkpt>
      <trkpt lat="45.68545" lon="3.29607">
        <ele>546.1662598</ele>
        <time>2011-05-22T08:29:34Z</time>
      </trkpt>
      <trkpt lat="45.68528" lon="3.29611">
        <ele>548.0888672</ele>
        <time>2011-05-22T08:29:42Z</time>
      </trkpt>
      <trkpt lat="45.68515" lon="3.29613">
        <ele>549.0500488</ele>
        <time>2011-05-22T08:29:48Z</time>
      </trkpt>
      <trkpt lat="45.68495" lon="3.29613">
        <ele>550.4921875</ele>
        <time>2011-05-22T08:29:57Z</time>
      </trkpt>
      <trkpt lat="45.68479" lon="3.29614">
        <ele>552.8952637</ele>
        <time>2011-05-22T08:30:05Z</time>
      </trkpt>
      <trkpt lat="45.68462" lon="3.29616">
        <ele>554.3374023</ele>
        <time>2011-05-22T08:30:13Z</time>
      </trkpt>
      <trkpt lat="45.68455" lon="3.29615">
        <ele>555.7792969</ele>
        <time>2011-05-22T08:30:16Z</time>
      </trkpt>
      <trkpt lat="45.68442" lon="3.29613">
        <ele>556.2600098</ele>
        <time>2011-05-22T08:30:23Z</time>
      </trkpt>
      <trkpt lat="45.68433" lon="3.29607">
        <ele>557.7021484</ele>
        <time>2011-05-22T08:30:28Z</time>
      </trkpt>
      <trkpt lat="45.68421" lon="3.29599">
        <ele>558.1828613</ele>
        <time>2011-05-22T08:30:34Z</time>
      </trkpt>
      <trkpt lat="45.68407" lon="3.29587">
        <ele>560.5859375</ele>
        <time>2011-05-22T08:30:42Z</time>
      </trkpt>
      <trkpt lat="45.684" lon="3.29582">
        <ele>561.5473633</ele>
        <time>2011-05-22T08:30:46Z</time>
      </trkpt>
      <trkpt lat="45.68386" lon="3.29572">
        <ele>563.9504395</ele>
        <time>2011-05-22T08:30:54Z</time>
      </trkpt>
      <trkpt lat="45.6837" lon="3.29562">
        <ele>566.3537598</ele>
        <time>2011-05-22T08:31:03Z</time>
      </trkpt>
      <trkpt lat="45.68362" lon="3.29557">
        <ele>567.3151855</ele>
        <time>2011-05-22T08:31:08Z</time>
      </trkpt>
      <trkpt lat="45.68357" lon="3.29552">
        <ele>568.7570801</ele>
        <time>2011-05-22T08:31:11Z</time>
      </trkpt>
      <trkpt lat="45.68348" lon="3.29541">
        <ele>570.6796875</ele>
        <time>2011-05-22T08:31:18Z</time>
      </trkpt>
      <trkpt lat="45.68339" lon="3.29529">
        <ele>571.6408691</ele>
        <time>2011-05-22T08:31:25Z</time>
      </trkpt>
      <trkpt lat="45.68329" lon="3.29517">
        <ele>573.5639648</ele>
        <time>2011-05-22T08:31:33Z</time>
      </trkpt>
      <trkpt lat="45.68322" lon="3.29508">
        <ele>574.5251465</ele>
        <time>2011-05-22T08:31:39Z</time>
      </trkpt>
      <trkpt lat="45.68313" lon="3.29497">
        <ele>576.9284668</ele>
        <time>2011-05-22T08:31:46Z</time>
      </trkpt>
      <trkpt lat="45.68303" lon="3.29484">
        <ele>578.8510742</ele>
        <time>2011-05-22T08:31:54Z</time>
      </trkpt>
      <trkpt lat="45.68295" lon="3.29473">
        <ele>580.2929688</ele>
        <time>2011-05-22T08:32:01Z</time>
      </trkpt>
      <trkpt lat="45.68291" lon="3.2946">
        <ele>581.2543945</ele>
        <time>2011-05-22T08:32:07Z</time>
      </trkpt>
      <trkpt lat="45.68291" lon="3.2945">
        <ele>582.2155762</ele>
        <time>2011-05-22T08:32:11Z</time>
      </trkpt>
      <trkpt lat="45.68294" lon="3.29434">
        <ele>584.1381836</ele>
        <time>2011-05-22T08:32:18Z</time>
      </trkpt>
      <trkpt lat="45.68296" lon="3.29412">
        <ele>584.6188965</ele>
        <time>2011-05-22T08:32:26Z</time>
      </trkpt>
      <trkpt lat="45.68295" lon="3.29387">
        <ele>586.5415039</ele>
        <time>2011-05-22T08:32:35Z</time>
      </trkpt>
      <trkpt lat="45.68295" lon="3.29366">
        <ele>587.0219727</ele>
        <time>2011-05-22T08:32:42Z</time>
      </trkpt>
      <trkpt lat="45.68294" lon="3.29345">
        <ele>588.4643555</ele>
        <time>2011-05-22T08:32:48Z</time>
      </trkpt>
      <trkpt lat="45.68291" lon="3.29316">
        <ele>589.4255371</ele>
        <time>2011-05-22T08:32:55Z</time>
      </trkpt>
      <trkpt lat="45.68283" lon="3.29291">
        <ele>589.90625</ele>
        <time>2011-05-22T08:33:02Z</time>
      </trkpt>
      <trkpt lat="45.68272" lon="3.29273">
        <ele>590.8674316</ele>
        <time>2011-05-22T08:33:09Z</time>
      </trkpt>
      <trkpt lat="45.68261" lon="3.29259">
        <ele>592.7902832</ele>
        <time>2011-05-22T08:33:16Z</time>
      </trkpt>
      <trkpt lat="45.68257" lon="3.29254">
        <ele>593.270752</ele>
        <time>2011-05-22T08:33:18Z</time>
      </trkpt>
      <trkpt lat="45.68244" lon="3.2924">
        <ele>594.2321777</ele>
        <time>2011-05-22T08:33:26Z</time>
      </trkpt>
      <trkpt lat="45.68231" lon="3.29225">
        <ele>595.6740723</ele>
        <time>2011-05-22T08:33:33Z</time>
      </trkpt>
      <trkpt lat="45.68221" lon="3.29198">
        <ele>597.5966797</ele>
        <time>2011-05-22T08:33:42Z</time>
      </trkpt>
      <trkpt lat="45.68216" lon="3.29176">
        <ele>597.5966797</ele>
        <time>2011-05-22T08:33:47Z</time>
      </trkpt>
      <trkpt lat="45.68212" lon="3.29166">
        <ele>597.1159668</ele>
        <time>2011-05-22T08:33:49Z</time>
      </trkpt>
      <trkpt lat="45.68197" lon="3.29119">
        <ele>598.0773926</ele>
        <time>2011-05-22T08:33:58Z</time>
      </trkpt>
      <trkpt lat="45.68185" lon="3.29082">
        <ele>598.5578613</ele>
        <time>2011-05-22T08:34:05Z</time>
      </trkpt>
      <trkpt lat="45.68175" lon="3.29048">
        <ele>599.0385742</ele>
        <time>2011-05-22T08:34:11Z</time>
      </trkpt>
      <trkpt lat="45.68169" lon="3.29031">
        <ele>599.5192871</ele>
        <time>2011-05-22T08:34:14Z</time>
      </trkpt>
      <trkpt lat="45.68153" lon="3.28983">
        <ele>599.0385742</ele>
        <time>2011-05-22T08:34:21Z</time>
      </trkpt>
      <trkpt lat="45.68146" lon="3.2896">
        <ele>599.0385742</ele>
        <time>2011-05-22T08:34:24Z</time>
      </trkpt>
      <trkpt lat="45.68134" lon="3.28912">
        <ele>598.0773926</ele>
        <time>2011-05-22T08:34:30Z</time>
      </trkpt>
      <trkpt lat="45.68133" lon="3.28903">
        <ele>597.5966797</ele>
        <time>2011-05-22T08:34:31Z</time>
      </trkpt>
      <trkpt lat="45.68133" lon="3.28857">
        <ele>596.1547852</ele>
        <time>2011-05-22T08:34:36Z</time>
      </trkpt>
      <trkpt lat="45.68137" lon="3.28816">
        <ele>594.2321777</ele>
        <time>2011-05-22T08:34:40Z</time>
      </trkpt>
      <trkpt lat="45.68144" lon="3.2878">
        <ele>592.7902832</ele>
        <time>2011-05-22T08:34:43Z</time>
      </trkpt>
      <trkpt lat="45.68157" lon="3.28733">
        <ele>592.3095703</ele>
        <time>2011-05-22T08:34:47Z</time>
      </trkpt>
      <trkpt lat="45.68164" lon="3.28658">
        <ele>590.3869629</ele>
        <time>2011-05-22T08:34:53Z</time>
      </trkpt>
      <trkpt lat="45.68171" lon="3.286">
        <ele>589.90625</ele>
        <time>2011-05-22T08:34:58Z</time>
      </trkpt>
      <trkpt lat="45.6818" lon="3.28557">
        <ele>588.9450684</ele>
        <time>2011-05-22T08:35:02Z</time>
      </trkpt>
      <trkpt lat="45.68182" lon="3.28546">
        <ele>588.9450684</ele>
        <time>2011-05-22T08:35:03Z</time>
      </trkpt>
      <trkpt lat="45.68188" lon="3.28491">
        <ele>587.9833984</ele>
        <time>2011-05-22T08:35:08Z</time>
      </trkpt>
      <trkpt lat="45.68192" lon="3.28438">
        <ele>587.9833984</ele>
        <time>2011-05-22T08:35:13Z</time>
      </trkpt>
      <trkpt lat="45.68194" lon="3.28414">
        <ele>588.4643555</ele>
        <time>2011-05-22T08:35:16Z</time>
      </trkpt>
      <trkpt lat="45.682" lon="3.28398">
        <ele>586.5415039</ele>
        <time>2011-05-22T08:35:19Z</time>
      </trkpt>
      <trkpt lat="45.68215" lon="3.28386">
        <ele>586.5415039</ele>
        <time>2011-05-22T08:35:23Z</time>
      </trkpt>
      <trkpt lat="45.68214" lon="3.28369">
        <ele>587.0219727</ele>
        <time>2011-05-22T08:35:26Z</time>
      </trkpt>
      <trkpt lat="45.68204" lon="3.28354">
        <ele>587.0219727</ele>
        <time>2011-05-22T08:35:29Z</time>
      </trkpt>
      <trkpt lat="45.68175" lon="3.28326">
        <ele>587.0219727</ele>
        <time>2011-05-22T08:35:35Z</time>
      </trkpt>
      <trkpt lat="45.68158" lon="3.28305">
        <ele>586.060791</ele>
        <time>2011-05-22T08:35:39Z</time>
      </trkpt>
      <trkpt lat="45.68145" lon="3.28268">
        <ele>585.0996094</ele>
        <time>2011-05-22T08:35:44Z</time>
      </trkpt>
      <trkpt lat="45.68132" lon="3.28198">
        <ele>584.1381836</ele>
        <time>2011-05-22T08:35:52Z</time>
      </trkpt>
      <trkpt lat="45.68122" lon="3.28169">
        <ele>582.2155762</ele>
        <time>2011-05-22T08:35:55Z</time>
      </trkpt>
      <trkpt lat="45.68102" lon="3.28117">
        <ele>578.8510742</ele>
        <time>2011-05-22T08:36:00Z</time>
      </trkpt>
      <trkpt lat="45.68088" lon="3.28071">
        <ele>575.4863281</ele>
        <time>2011-05-22T08:36:04Z</time>
      </trkpt>
      <trkpt lat="45.68075" lon="3.28025">
        <ele>574.5251465</ele>
        <time>2011-05-22T08:36:08Z</time>
      </trkpt>
      <trkpt lat="45.68072" lon="3.27983">
        <ele>576.4477539</ele>
        <time>2011-05-22T08:36:12Z</time>
      </trkpt>
      <trkpt lat="45.68073" lon="3.27974">
        <ele>576.4477539</ele>
        <time>2011-05-22T08:36:13Z</time>
      </trkpt>
      <trkpt lat="45.68074" lon="3.27966">
        <ele>577.4091797</ele>
        <time>2011-05-22T08:36:14Z</time>
      </trkpt>
      <trkpt lat="45.68073" lon="3.27945">
        <ele>579.331543</ele>
        <time>2011-05-22T08:36:17Z</time>
      </trkpt>
      <trkpt lat="45.68068" lon="3.27927">
        <ele>580.7736816</ele>
        <time>2011-05-22T08:36:20Z</time>
      </trkpt>
      <trkpt lat="45.68063" lon="3.27909">
        <ele>582.2155762</ele>
        <time>2011-05-22T08:36:23Z</time>
      </trkpt>
      <trkpt lat="45.68061" lon="3.27904">
        <ele>582.2155762</ele>
        <time>2011-05-22T08:36:24Z</time>
      </trkpt>
      <trkpt lat="45.68056" lon="3.27887">
        <ele>583.1767578</ele>
        <time>2011-05-22T08:36:27Z</time>
      </trkpt>
      <trkpt lat="45.68053" lon="3.27875">
        <ele>583.1767578</ele>
        <time>2011-05-22T08:36:29Z</time>
      </trkpt>
      <trkpt lat="45.68051" lon="3.27869">
        <ele>583.6574707</ele>
        <time>2011-05-22T08:36:30Z</time>
      </trkpt>
      <trkpt lat="45.68047" lon="3.27857">
        <ele>583.6574707</ele>
        <time>2011-05-22T08:36:32Z</time>
      </trkpt>
      <trkpt lat="45.68045" lon="3.27844">
        <ele>583.6574707</ele>
        <time>2011-05-22T08:36:34Z</time>
      </trkpt>
      <trkpt lat="45.6803" lon="3.2779">
        <ele>583.1767578</ele>
        <time>2011-05-22T08:36:42Z</time>
      </trkpt>
      <trkpt lat="45.68017" lon="3.2773">
        <ele>582.6962891</ele>
        <time>2011-05-22T08:36:50Z</time>
      </trkpt>
      <trkpt lat="45.68013" lon="3.27668">
        <ele>582.6962891</ele>
        <time>2011-05-22T08:36:58Z</time>
      </trkpt>
      <trkpt lat="45.68006" lon="3.27603">
        <ele>582.6962891</ele>
        <time>2011-05-22T08:37:07Z</time>
      </trkpt>
      <trkpt lat="45.68001" lon="3.27541">
        <ele>584.1381836</ele>
        <time>2011-05-22T08:37:16Z</time>
      </trkpt>
      <trkpt lat="45.68" lon="3.27528">
        <ele>584.6188965</ele>
        <time>2011-05-22T08:37:18Z</time>
      </trkpt>
      <trkpt lat="45.67991" lon="3.27487">
        <ele>586.060791</ele>
        <time>2011-05-22T08:37:25Z</time>
      </trkpt>
      <trkpt lat="45.67978" lon="3.27457">
        <ele>584.1381836</ele>
        <time>2011-05-22T08:37:30Z</time>
      </trkpt>
      <trkpt lat="45.67964" lon="3.27422">
        <ele>584.6188965</ele>
        <time>2011-05-22T08:37:35Z</time>
      </trkpt>
      <trkpt lat="45.67961" lon="3.27417">
        <ele>585.0996094</ele>
        <time>2011-05-22T08:37:36Z</time>
      </trkpt>
      <trkpt lat="45.67942" lon="3.27393">
        <ele>587.9833984</ele>
        <time>2011-05-22T08:37:43Z</time>
      </trkpt>
      <trkpt lat="45.67921" lon="3.27377">
        <ele>591.3481445</ele>
        <time>2011-05-22T08:37:51Z</time>
      </trkpt>
      <trkpt lat="45.67909" lon="3.27369">
        <ele>592.7902832</ele>
        <time>2011-05-22T08:37:57Z</time>
      </trkpt>
      <trkpt lat="45.67896" lon="3.27357">
        <ele>595.6740723</ele>
        <time>2011-05-22T08:38:04Z</time>
      </trkpt>
      <trkpt lat="45.67884" lon="3.27343">
        <ele>596.635498</ele>
        <time>2011-05-22T08:38:11Z</time>
      </trkpt>
      <trkpt lat="45.6787" lon="3.27324">
        <ele>598.5578613</ele>
        <time>2011-05-22T08:38:19Z</time>
      </trkpt>
      <trkpt lat="45.67858" lon="3.27305">
        <ele>600.9611816</ele>
        <time>2011-05-22T08:38:26Z</time>
      </trkpt>
      <trkpt lat="45.67846" lon="3.27274">
        <ele>601.4418945</ele>
        <time>2011-05-22T08:38:35Z</time>
      </trkpt>
      <trkpt lat="45.6784" lon="3.27244">
        <ele>603.364502</ele>
        <time>2011-05-22T08:38:42Z</time>
      </trkpt>
      <trkpt lat="45.67834" lon="3.27203">
        <ele>604.3261719</ele>
        <time>2011-05-22T08:38:51Z</time>
      </trkpt>
      <trkpt lat="45.67831" lon="3.27164">
        <ele>605.7680664</ele>
        <time>2011-05-22T08:38:59Z</time>
      </trkpt>
      <trkpt lat="45.67834" lon="3.2712">
        <ele>606.2485352</ele>
        <time>2011-05-22T08:39:07Z</time>
      </trkpt>
      <trkpt lat="45.67839" lon="3.27089">
        <ele>606.729248</ele>
        <time>2011-05-22T08:39:12Z</time>
      </trkpt>
      <trkpt lat="45.67841" lon="3.27076">
        <ele>606.729248</ele>
        <time>2011-05-22T08:39:14Z</time>
      </trkpt>
      <trkpt lat="45.67852" lon="3.27025">
        <ele>608.1713867</ele>
        <time>2011-05-22T08:39:22Z</time>
      </trkpt>
      <trkpt lat="45.67856" lon="3.27007">
        <ele>609.1325684</ele>
        <time>2011-05-22T08:39:25Z</time>
      </trkpt>
      <trkpt lat="45.67869" lon="3.26945">
        <ele>610.09375</ele>
        <time>2011-05-22T08:39:35Z</time>
      </trkpt>
      <trkpt lat="45.67881" lon="3.26871">
        <ele>611.5358887</ele>
        <time>2011-05-22T08:39:47Z</time>
      </trkpt>
      <trkpt lat="45.67889" lon="3.26838">
        <ele>613.4584961</ele>
        <time>2011-05-22T08:39:53Z</time>
      </trkpt>
      <trkpt lat="45.67898" lon="3.26808">
        <ele>614.9003906</ele>
        <time>2011-05-22T08:39:59Z</time>
      </trkpt>
      <trkpt lat="45.67917" lon="3.2676">
        <ele>615.3811035</ele>
        <time>2011-05-22T08:40:08Z</time>
      </trkpt>
      <trkpt lat="45.67934" lon="3.26718">
        <ele>616.3422852</ele>
        <time>2011-05-22T08:40:16Z</time>
      </trkpt>
      <trkpt lat="45.67953" lon="3.26667">
        <ele>616.3422852</ele>
        <time>2011-05-22T08:40:25Z</time>
      </trkpt>
      <trkpt lat="45.67968" lon="3.26624">
        <ele>615.8618164</ele>
        <time>2011-05-22T08:40:32Z</time>
      </trkpt>
      <trkpt lat="45.67984" lon="3.26581">
        <ele>614.9003906</ele>
        <time>2011-05-22T08:40:38Z</time>
      </trkpt>
      <trkpt lat="45.68011" lon="3.26524">
        <ele>614.9003906</ele>
        <time>2011-05-22T08:40:46Z</time>
      </trkpt>
      <trkpt lat="45.68042" lon="3.26463">
        <ele>614.9003906</ele>
        <time>2011-05-22T08:40:55Z</time>
      </trkpt>
      <trkpt lat="45.6806" lon="3.26417">
        <ele>611.5358887</ele>
        <time>2011-05-22T08:41:01Z</time>
      </trkpt>
      <trkpt lat="45.68077" lon="3.2637">
        <ele>609.6132813</ele>
        <time>2011-05-22T08:41:06Z</time>
      </trkpt>
      <trkpt lat="45.6809" lon="3.26343">
        <ele>609.6132813</ele>
        <time>2011-05-22T08:41:09Z</time>
      </trkpt>
      <trkpt lat="45.68117" lon="3.26292">
        <ele>611.0551758</ele>
        <time>2011-05-22T08:41:16Z</time>
      </trkpt>
      <trkpt lat="45.68134" lon="3.26272">
        <ele>612.0166016</ele>
        <time>2011-05-22T08:41:20Z</time>
      </trkpt>
      <trkpt lat="45.68145" lon="3.26257">
        <ele>612.9777832</ele>
        <time>2011-05-22T08:41:23Z</time>
      </trkpt>
      <trkpt lat="45.68164" lon="3.26222">
        <ele>614.4196777</ele>
        <time>2011-05-22T08:41:29Z</time>
      </trkpt>
      <trkpt lat="45.68169" lon="3.26206">
        <ele>615.3811035</ele>
        <time>2011-05-22T08:41:32Z</time>
      </trkpt>
      <trkpt lat="45.68171" lon="3.26196">
        <ele>614.9003906</ele>
        <time>2011-05-22T08:41:34Z</time>
      </trkpt>
      <trkpt lat="45.68175" lon="3.26185">
        <ele>613.9389648</ele>
        <time>2011-05-22T08:41:36Z</time>
      </trkpt>
      <trkpt lat="45.68183" lon="3.2616">
        <ele>610.09375</ele>
        <time>2011-05-22T08:41:40Z</time>
      </trkpt>
      <trkpt lat="45.68185" lon="3.26153">
        <ele>610.09375</ele>
        <time>2011-05-22T08:41:41Z</time>
      </trkpt>
      <trkpt lat="45.68193" lon="3.2612">
        <ele>605.7680664</ele>
        <time>2011-05-22T08:41:46Z</time>
      </trkpt>
      <trkpt lat="45.68198" lon="3.26101">
        <ele>602.8837891</ele>
        <time>2011-05-22T08:41:49Z</time>
      </trkpt>
      <trkpt lat="45.68207" lon="3.26083">
        <ele>600.4807129</ele>
        <time>2011-05-22T08:41:52Z</time>
      </trkpt>
      <trkpt lat="45.68213" lon="3.26073">
        <ele>598.5578613</ele>
        <time>2011-05-22T08:41:54Z</time>
      </trkpt>
      <trkpt lat="45.6822" lon="3.26065">
        <ele>597.1159668</ele>
        <time>2011-05-22T08:41:56Z</time>
      </trkpt>
      <trkpt lat="45.68234" lon="3.26047">
        <ele>594.7126465</ele>
        <time>2011-05-22T08:42:00Z</time>
      </trkpt>
      <trkpt lat="45.68245" lon="3.26033">
        <ele>590.8674316</ele>
        <time>2011-05-22T08:42:03Z</time>
      </trkpt>
      <trkpt lat="45.68249" lon="3.26029">
        <ele>590.8674316</ele>
        <time>2011-05-22T08:42:04Z</time>
      </trkpt>
      <trkpt lat="45.68252" lon="3.26025">
        <ele>589.90625</ele>
        <time>2011-05-22T08:42:05Z</time>
      </trkpt>
      <trkpt lat="45.68266" lon="3.26011">
        <ele>586.060791</ele>
        <time>2011-05-22T08:42:09Z</time>
      </trkpt>
      <trkpt lat="45.68284" lon="3.25997">
        <ele>582.6962891</ele>
        <time>2011-05-22T08:42:13Z</time>
      </trkpt>
      <trkpt lat="45.68302" lon="3.2599">
        <ele>580.7736816</ele>
        <time>2011-05-22T08:42:16Z</time>
      </trkpt>
      <trkpt lat="45.68321" lon="3.2599">
        <ele>578.3703613</ele>
        <time>2011-05-22T08:42:19Z</time>
      </trkpt>
      <trkpt lat="45.68341" lon="3.25986">
        <ele>576.9284668</ele>
        <time>2011-05-22T08:42:22Z</time>
      </trkpt>
      <trkpt lat="45.68361" lon="3.25974">
        <ele>575.4863281</ele>
        <time>2011-05-22T08:42:25Z</time>
      </trkpt>
      <trkpt lat="45.6839" lon="3.25944">
        <ele>573.083252</ele>
        <time>2011-05-22T08:42:30Z</time>
      </trkpt>
      <trkpt lat="45.68396" lon="3.25938">
        <ele>573.083252</ele>
        <time>2011-05-22T08:42:31Z</time>
      </trkpt>
      <trkpt lat="45.68426" lon="3.25914">
        <ele>572.6025391</ele>
        <time>2011-05-22T08:42:36Z</time>
      </trkpt>
      <trkpt lat="45.68432" lon="3.25909">
        <ele>572.1218262</ele>
        <time>2011-05-22T08:42:37Z</time>
      </trkpt>
      <trkpt lat="45.68438" lon="3.25905">
        <ele>572.6025391</ele>
        <time>2011-05-22T08:42:38Z</time>
      </trkpt>
      <trkpt lat="45.6847" lon="3.25862">
        <ele>571.1604004</ele>
        <time>2011-05-22T08:42:45Z</time>
      </trkpt>
      <trkpt lat="45.68491" lon="3.25832">
        <ele>571.1604004</ele>
        <time>2011-05-22T08:42:50Z</time>
      </trkpt>
      <trkpt lat="45.685" lon="3.25815">
        <ele>570.6796875</ele>
        <time>2011-05-22T08:42:53Z</time>
      </trkpt>
      <trkpt lat="45.68513" lon="3.25805">
        <ele>569.237793</ele>
        <time>2011-05-22T08:42:57Z</time>
      </trkpt>
      <trkpt lat="45.6852" lon="3.25798">
        <ele>570.1989746</ele>
        <time>2011-05-22T08:43:00Z</time>
      </trkpt>
      <trkpt lat="45.6852" lon="3.25776">
        <ele>570.6796875</ele>
        <time>2011-05-22T08:43:04Z</time>
      </trkpt>
      <trkpt lat="45.68521" lon="3.2577">
        <ele>570.1989746</ele>
        <time>2011-05-22T08:43:05Z</time>
      </trkpt>
      <trkpt lat="45.68524" lon="3.25757">
        <ele>570.6796875</ele>
        <time>2011-05-22T08:43:07Z</time>
      </trkpt>
      <trkpt lat="45.68535" lon="3.25709">
        <ele>570.6796875</ele>
        <time>2011-05-22T08:43:14Z</time>
      </trkpt>
      <trkpt lat="45.68539" lon="3.25679">
        <ele>572.6025391</ele>
        <time>2011-05-22T08:43:19Z</time>
      </trkpt>
      <trkpt lat="45.68542" lon="3.25656">
        <ele>573.083252</ele>
        <time>2011-05-22T08:43:23Z</time>
      </trkpt>
      <trkpt lat="45.68545" lon="3.25645">
        <ele>573.083252</ele>
        <time>2011-05-22T08:43:25Z</time>
      </trkpt>
      <trkpt lat="45.6855" lon="3.2563">
        <ele>574.0444336</ele>
        <time>2011-05-22T08:43:28Z</time>
      </trkpt>
      <trkpt lat="45.68566" lon="3.25609">
        <ele>575.0058594</ele>
        <time>2011-05-22T08:43:34Z</time>
      </trkpt>
      <trkpt lat="45.68585" lon="3.25603">
        <ele>576.4477539</ele>
        <time>2011-05-22T08:43:39Z</time>
      </trkpt>
      <trkpt lat="45.68601" lon="3.25598">
        <ele>576.9284668</ele>
        <time>2011-05-22T08:43:43Z</time>
      </trkpt>
      <trkpt lat="45.68634" lon="3.25596">
        <ele>577.8896484</ele>
        <time>2011-05-22T08:43:51Z</time>
      </trkpt>
      <trkpt lat="45.68666" lon="3.25592">
        <ele>579.331543</ele>
        <time>2011-05-22T08:43:59Z</time>
      </trkpt>
      <trkpt lat="45.68698" lon="3.25588">
        <ele>578.3703613</ele>
        <time>2011-05-22T08:44:06Z</time>
      </trkpt>
      <trkpt lat="45.68719" lon="3.25581">
        <ele>577.8896484</ele>
        <time>2011-05-22T08:44:10Z</time>
      </trkpt>
      <trkpt lat="45.68737" lon="3.25563">
        <ele>576.9284668</ele>
        <time>2011-05-22T08:44:14Z</time>
      </trkpt>
      <trkpt lat="45.68766" lon="3.25531">
        <ele>575.0058594</ele>
        <time>2011-05-22T08:44:20Z</time>
      </trkpt>
      <trkpt lat="45.68772" lon="3.25526">
        <ele>574.0444336</ele>
        <time>2011-05-22T08:44:21Z</time>
      </trkpt>
      <trkpt lat="45.68779" lon="3.25522">
        <ele>574.0444336</ele>
        <time>2011-05-22T08:44:22Z</time>
      </trkpt>
      <trkpt lat="45.68806" lon="3.25517">
        <ele>570.6796875</ele>
        <time>2011-05-22T08:44:26Z</time>
      </trkpt>
      <trkpt lat="45.68821" lon="3.25517">
        <ele>569.237793</ele>
        <time>2011-05-22T08:44:28Z</time>
      </trkpt>
      <trkpt lat="45.68828" lon="3.25516">
        <ele>571.1604004</ele>
        <time>2011-05-22T08:44:29Z</time>
      </trkpt>
      <trkpt lat="45.68835" lon="3.25513">
        <ele>572.6025391</ele>
        <time>2011-05-22T08:44:30Z</time>
      </trkpt>
      <trkpt lat="45.68843" lon="3.25506">
        <ele>575.0058594</ele>
        <time>2011-05-22T08:44:32Z</time>
      </trkpt>
      <trkpt lat="45.6885" lon="3.255">
        <ele>575.967041</ele>
        <time>2011-05-22T08:44:34Z</time>
      </trkpt>
      <trkpt lat="45.68864" lon="3.25485">
        <ele>578.3703613</ele>
        <time>2011-05-22T08:44:39Z</time>
      </trkpt>
      <trkpt lat="45.68872" lon="3.25476">
        <ele>579.331543</ele>
        <time>2011-05-22T08:44:42Z</time>
      </trkpt>
      <trkpt lat="45.68874" lon="3.25473">
        <ele>579.331543</ele>
        <time>2011-05-22T08:44:43Z</time>
      </trkpt>
      <trkpt lat="45.68887" lon="3.25461">
        <ele>578.3703613</ele>
        <time>2011-05-22T08:44:47Z</time>
      </trkpt>
      <trkpt lat="45.68909" lon="3.25431">
        <ele>576.9284668</ele>
        <time>2011-05-22T08:44:53Z</time>
      </trkpt>
      <trkpt lat="45.68925" lon="3.25406">
        <ele>575.4863281</ele>
        <time>2011-05-22T08:44:57Z</time>
      </trkpt>
      <trkpt lat="45.68937" lon="3.25368">
        <ele>577.8896484</ele>
        <time>2011-05-22T08:45:02Z</time>
      </trkpt>
      <trkpt lat="45.68937" lon="3.25362">
        <ele>578.8510742</ele>
        <time>2011-05-22T08:45:03Z</time>
      </trkpt>
      <trkpt lat="45.68937" lon="3.25348">
        <ele>579.331543</ele>
        <time>2011-05-22T08:45:05Z</time>
      </trkpt>
      <trkpt lat="45.68937" lon="3.25327">
        <ele>579.8122559</ele>
        <time>2011-05-22T08:45:08Z</time>
      </trkpt>
      <trkpt lat="45.68932" lon="3.25265">
        <ele>579.8122559</ele>
        <time>2011-05-22T08:45:16Z</time>
      </trkpt>
      <trkpt lat="45.68932" lon="3.25234">
        <ele>579.8122559</ele>
        <time>2011-05-22T08:45:20Z</time>
      </trkpt>
      <trkpt lat="45.68941" lon="3.25204">
        <ele>580.7736816</ele>
        <time>2011-05-22T08:45:25Z</time>
      </trkpt>
      <trkpt lat="45.68945" lon="3.25199">
        <ele>580.2929688</ele>
        <time>2011-05-22T08:45:26Z</time>
      </trkpt>
      <trkpt lat="45.68978" lon="3.25155">
        <ele>578.3703613</ele>
        <time>2011-05-22T08:45:34Z</time>
      </trkpt>
      <trkpt lat="45.68982" lon="3.25149">
        <ele>577.8896484</ele>
        <time>2011-05-22T08:45:35Z</time>
      </trkpt>
      <trkpt lat="45.69002" lon="3.25115">
        <ele>576.4477539</ele>
        <time>2011-05-22T08:45:40Z</time>
      </trkpt>
      <trkpt lat="45.6902" lon="3.25084">
        <ele>575.0058594</ele>
        <time>2011-05-22T08:45:44Z</time>
      </trkpt>
      <trkpt lat="45.69044" lon="3.2504">
        <ele>573.083252</ele>
        <time>2011-05-22T08:45:49Z</time>
      </trkpt>
      <trkpt lat="45.69053" lon="3.25021">
        <ele>572.1218262</ele>
        <time>2011-05-22T08:45:51Z</time>
      </trkpt>
      <trkpt lat="45.69062" lon="3.25003">
        <ele>572.1218262</ele>
        <time>2011-05-22T08:45:53Z</time>
      </trkpt>
      <trkpt lat="45.69084" lon="3.24963">
        <ele>573.083252</ele>
        <time>2011-05-22T08:45:58Z</time>
      </trkpt>
      <trkpt lat="45.69114" lon="3.24919">
        <ele>575.4863281</ele>
        <time>2011-05-22T08:46:05Z</time>
      </trkpt>
      <trkpt lat="45.69133" lon="3.24906">
        <ele>576.9284668</ele>
        <time>2011-05-22T08:46:10Z</time>
      </trkpt>
      <trkpt lat="45.69137" lon="3.24904">
        <ele>577.8896484</ele>
        <time>2011-05-22T08:46:11Z</time>
      </trkpt>
      <trkpt lat="45.69148" lon="3.24901">
        <ele>578.8510742</ele>
        <time>2011-05-22T08:46:14Z</time>
      </trkpt>
      <trkpt lat="45.69156" lon="3.24901">
        <ele>578.8510742</ele>
        <time>2011-05-22T08:46:16Z</time>
      </trkpt>
      <trkpt lat="45.69159" lon="3.249">
        <ele>579.8122559</ele>
        <time>2011-05-22T08:46:17Z</time>
      </trkpt>
      <trkpt lat="45.69167" lon="3.249">
        <ele>581.2543945</ele>
        <time>2011-05-22T08:46:19Z</time>
      </trkpt>
      <trkpt lat="45.6917" lon="3.249">
        <ele>581.2543945</ele>
        <time>2011-05-22T08:46:20Z</time>
      </trkpt>
      <trkpt lat="45.69186" lon="3.249">
        <ele>582.6962891</ele>
        <time>2011-05-22T08:46:25Z</time>
      </trkpt>
      <trkpt lat="45.69207" lon="3.24898">
        <ele>584.1381836</ele>
        <time>2011-05-22T08:46:31Z</time>
      </trkpt>
      <trkpt lat="45.69229" lon="3.24889">
        <ele>585.5800781</ele>
        <time>2011-05-22T08:46:37Z</time>
      </trkpt>
      <trkpt lat="45.69257" lon="3.24867">
        <ele>584.6188965</ele>
        <time>2011-05-22T08:46:45Z</time>
      </trkpt>
      <trkpt lat="45.69269" lon="3.24853">
        <ele>582.6962891</ele>
        <time>2011-05-22T08:46:48Z</time>
      </trkpt>
      <trkpt lat="45.6928" lon="3.24835">
        <ele>581.2543945</ele>
        <time>2011-05-22T08:46:51Z</time>
      </trkpt>
      <trkpt lat="45.69284" lon="3.24802">
        <ele>583.1767578</ele>
        <time>2011-05-22T08:46:56Z</time>
      </trkpt>
      <trkpt lat="45.69283" lon="3.24778">
        <ele>583.1767578</ele>
        <time>2011-05-22T08:47:01Z</time>
      </trkpt>
      <trkpt lat="45.69282" lon="3.24753">
        <ele>580.2929688</ele>
        <time>2011-05-22T08:47:05Z</time>
      </trkpt>
      <trkpt lat="45.6928" lon="3.24735">
        <ele>577.8896484</ele>
        <time>2011-05-22T08:47:07Z</time>
      </trkpt>
      <trkpt lat="45.69279" lon="3.24724">
        <ele>577.4091797</ele>
        <time>2011-05-22T08:47:08Z</time>
      </trkpt>
      <trkpt lat="45.69272" lon="3.24693">
        <ele>575.0058594</ele>
        <time>2011-05-22T08:47:11Z</time>
      </trkpt>
      <trkpt lat="45.69263" lon="3.24665">
        <ele>574.0444336</ele>
        <time>2011-05-22T08:47:14Z</time>
      </trkpt>
      <trkpt lat="45.69252" lon="3.24638">
        <ele>571.6408691</ele>
        <time>2011-05-22T08:47:17Z</time>
      </trkpt>
      <trkpt lat="45.69246" lon="3.2462">
        <ele>570.1989746</ele>
        <time>2011-05-22T08:47:19Z</time>
      </trkpt>
      <trkpt lat="45.69242" lon="3.24611">
        <ele>568.7570801</ele>
        <time>2011-05-22T08:47:20Z</time>
      </trkpt>
      <trkpt lat="45.69237" lon="3.24596">
        <ele>567.3151855</ele>
        <time>2011-05-22T08:47:22Z</time>
      </trkpt>
      <trkpt lat="45.69232" lon="3.24569">
        <ele>561.0666504</ele>
        <time>2011-05-22T08:47:25Z</time>
      </trkpt>
      <trkpt lat="45.69227" lon="3.24537">
        <ele>555.7792969</ele>
        <time>2011-05-22T08:47:28Z</time>
      </trkpt>
      <trkpt lat="45.69226" lon="3.24527">
        <ele>555.7792969</ele>
        <time>2011-05-22T08:47:29Z</time>
      </trkpt>
      <trkpt lat="45.69224" lon="3.24501">
        <ele>552.4145508</ele>
        <time>2011-05-22T08:47:31Z</time>
      </trkpt>
      <trkpt lat="45.69222" lon="3.24489">
        <ele>552.4145508</ele>
        <time>2011-05-22T08:47:32Z</time>
      </trkpt>
      <trkpt lat="45.6922" lon="3.24454">
        <ele>547.1274414</ele>
        <time>2011-05-22T08:47:35Z</time>
      </trkpt>
      <trkpt lat="45.69222" lon="3.24444">
        <ele>546.1662598</ele>
        <time>2011-05-22T08:47:36Z</time>
      </trkpt>
      <trkpt lat="45.69221" lon="3.24409">
        <ele>541.84021</ele>
        <time>2011-05-22T08:47:39Z</time>
      </trkpt>
      <trkpt lat="45.69217" lon="3.24383">
        <ele>537.9949951</ele>
        <time>2011-05-22T08:47:41Z</time>
      </trkpt>
      <trkpt lat="45.69214" lon="3.24328">
        <ele>534.6303711</ele>
        <time>2011-05-22T08:47:45Z</time>
      </trkpt>
      <trkpt lat="45.69216" lon="3.2428">
        <ele>533.6689453</ele>
        <time>2011-05-22T08:47:49Z</time>
      </trkpt>
      <trkpt lat="45.69227" lon="3.2423">
        <ele>531.2657471</ele>
        <time>2011-05-22T08:47:54Z</time>
      </trkpt>
      <trkpt lat="45.69228" lon="3.24219">
        <ele>528.8625488</ele>
        <time>2011-05-22T08:47:55Z</time>
      </trkpt>
      <trkpt lat="45.69229" lon="3.24181">
        <ele>526.4591064</ele>
        <time>2011-05-22T08:47:58Z</time>
      </trkpt>
      <trkpt lat="45.69225" lon="3.24122">
        <ele>525.4978027</ele>
        <time>2011-05-22T08:48:03Z</time>
      </trkpt>
      <trkpt lat="45.69217" lon="3.24059">
        <ele>521.6525879</ele>
        <time>2011-05-22T08:48:09Z</time>
      </trkpt>
      <trkpt lat="45.69216" lon="3.24026">
        <ele>518.2878418</ele>
        <time>2011-05-22T08:48:12Z</time>
      </trkpt>
      <trkpt lat="45.69215" lon="3.24015">
        <ele>518.2878418</ele>
        <time>2011-05-22T08:48:13Z</time>
      </trkpt>
      <trkpt lat="45.69216" lon="3.23993">
        <ele>514.9233398</ele>
        <time>2011-05-22T08:48:15Z</time>
      </trkpt>
      <trkpt lat="45.69219" lon="3.23917">
        <ele>511.0780029</ele>
        <time>2011-05-22T08:48:21Z</time>
      </trkpt>
      <trkpt lat="45.6922" lon="3.23876">
        <ele>507.713501</ele>
        <time>2011-05-22T08:48:24Z</time>
      </trkpt>
      <trkpt lat="45.69221" lon="3.23851">
        <ele>508.1940918</ele>
        <time>2011-05-22T08:48:26Z</time>
      </trkpt>
      <trkpt lat="45.69224" lon="3.23829">
        <ele>509.6361084</ele>
        <time>2011-05-22T08:48:28Z</time>
      </trkpt>
      <trkpt lat="45.69235" lon="3.23798">
        <ele>512.5200195</ele>
        <time>2011-05-22T08:48:32Z</time>
      </trkpt>
      <trkpt lat="45.69251" lon="3.23772">
        <ele>514.442627</ele>
        <time>2011-05-22T08:48:37Z</time>
      </trkpt>
      <trkpt lat="45.69258" lon="3.23764">
        <ele>515.8846436</ele>
        <time>2011-05-22T08:48:39Z</time>
      </trkpt>
      <trkpt lat="45.69268" lon="3.23752">
        <ele>516.8459473</ele>
        <time>2011-05-22T08:48:42Z</time>
      </trkpt>
      <trkpt lat="45.69274" lon="3.23744">
        <ele>516.3652344</ele>
        <time>2011-05-22T08:48:44Z</time>
      </trkpt>
      <trkpt lat="45.69281" lon="3.23736">
        <ele>515.8846436</ele>
        <time>2011-05-22T08:48:46Z</time>
      </trkpt>
      <trkpt lat="45.69298" lon="3.23716">
        <ele>514.9233398</ele>
        <time>2011-05-22T08:48:50Z</time>
      </trkpt>
      <trkpt lat="45.69306" lon="3.23704">
        <ele>513.9620361</ele>
        <time>2011-05-22T08:48:52Z</time>
      </trkpt>
      <trkpt lat="45.69341" lon="3.23666">
        <ele>513.9620361</ele>
        <time>2011-05-22T08:48:59Z</time>
      </trkpt>
      <trkpt lat="45.6937" lon="3.23629">
        <ele>512.0394287</ele>
        <time>2011-05-22T08:49:05Z</time>
      </trkpt>
      <trkpt lat="45.69381" lon="3.23606">
        <ele>509.6361084</ele>
        <time>2011-05-22T08:49:08Z</time>
      </trkpt>
      <trkpt lat="45.69395" lon="3.23553">
        <ele>506.2714844</ele>
        <time>2011-05-22T08:49:13Z</time>
      </trkpt>
      <trkpt lat="45.694" lon="3.23531">
        <ele>504.8294678</ele>
        <time>2011-05-22T08:49:15Z</time>
      </trkpt>
      <trkpt lat="45.6941" lon="3.23486">
        <ele>500.9841309</ele>
        <time>2011-05-22T08:49:19Z</time>
      </trkpt>
      <trkpt lat="45.69416" lon="3.23462">
        <ele>500.0229492</ele>
        <time>2011-05-22T08:49:21Z</time>
      </trkpt>
      <trkpt lat="45.69428" lon="3.23418">
        <ele>498.1003418</ele>
        <time>2011-05-22T08:49:25Z</time>
      </trkpt>
      <trkpt lat="45.6943" lon="3.23407">
        <ele>497.138916</ele>
        <time>2011-05-22T08:49:26Z</time>
      </trkpt>
      <trkpt lat="45.69432" lon="3.23395">
        <ele>496.6583252</ele>
        <time>2011-05-22T08:49:27Z</time>
      </trkpt>
      <trkpt lat="45.69435" lon="3.23372">
        <ele>495.6968994</ele>
        <time>2011-05-22T08:49:29Z</time>
      </trkpt>
      <trkpt lat="45.69438" lon="3.23349">
        <ele>494.2550049</ele>
        <time>2011-05-22T08:49:31Z</time>
      </trkpt>
      <trkpt lat="45.69442" lon="3.23326">
        <ele>491.8516846</ele>
        <time>2011-05-22T08:49:33Z</time>
      </trkpt>
      <trkpt lat="45.69444" lon="3.23315">
        <ele>492.3323975</ele>
        <time>2011-05-22T08:49:34Z</time>
      </trkpt>
      <trkpt lat="45.6945" lon="3.2327">
        <ele>489.9290771</ele>
        <time>2011-05-22T08:49:38Z</time>
      </trkpt>
      <trkpt lat="45.69452" lon="3.23259">
        <ele>489.4483643</ele>
        <time>2011-05-22T08:49:39Z</time>
      </trkpt>
      <trkpt lat="45.69459" lon="3.23226">
        <ele>488.0064697</ele>
        <time>2011-05-22T08:49:42Z</time>
      </trkpt>
      <trkpt lat="45.69466" lon="3.23206">
        <ele>486.5644531</ele>
        <time>2011-05-22T08:49:44Z</time>
      </trkpt>
      <trkpt lat="45.69473" lon="3.23187">
        <ele>485.1224365</ele>
        <time>2011-05-22T08:49:46Z</time>
      </trkpt>
      <trkpt lat="45.69476" lon="3.23178">
        <ele>484.6418457</ele>
        <time>2011-05-22T08:49:47Z</time>
      </trkpt>
      <trkpt lat="45.69491" lon="3.23147">
        <ele>482.2385254</ele>
        <time>2011-05-22T08:49:51Z</time>
      </trkpt>
      <trkpt lat="45.695" lon="3.23102">
        <ele>479.3544922</ele>
        <time>2011-05-22T08:49:56Z</time>
      </trkpt>
      <trkpt lat="45.69498" lon="3.2307">
        <ele>479.3544922</ele>
        <time>2011-05-22T08:50:02Z</time>
      </trkpt>
      <trkpt lat="45.69498" lon="3.23063">
        <ele>478.8739014</ele>
        <time>2011-05-22T08:50:04Z</time>
      </trkpt>
      <trkpt lat="45.69501" lon="3.23043">
        <ele>474.5479736</ele>
        <time>2011-05-22T08:50:07Z</time>
      </trkpt>
      <trkpt lat="45.69502" lon="3.23035">
        <ele>475.0286865</ele>
        <time>2011-05-22T08:50:08Z</time>
      </trkpt>
      <trkpt lat="45.69508" lon="3.22985">
        <ele>470.2219238</ele>
        <time>2011-05-22T08:50:13Z</time>
      </trkpt>
      <trkpt lat="45.6951" lon="3.22962">
        <ele>469.2607422</ele>
        <time>2011-05-22T08:50:15Z</time>
      </trkpt>
      <trkpt lat="45.69512" lon="3.22926">
        <ele>468.2993164</ele>
        <time>2011-05-22T08:50:19Z</time>
      </trkpt>
      <trkpt lat="45.69514" lon="3.22897">
        <ele>464.9348145</ele>
        <time>2011-05-22T08:50:23Z</time>
      </trkpt>
      <trkpt lat="45.69515" lon="3.22869">
        <ele>460.1281738</ele>
        <time>2011-05-22T08:50:26Z</time>
      </trkpt>
      <trkpt lat="45.69517" lon="3.22821">
        <ele>457.2442627</ele>
        <time>2011-05-22T08:50:31Z</time>
      </trkpt>
      <trkpt lat="45.69525" lon="3.2279">
        <ele>452.4376221</ele>
        <time>2011-05-22T08:50:35Z</time>
      </trkpt>
      <trkpt lat="45.6953" lon="3.22782">
        <ele>450.0344238</ele>
        <time>2011-05-22T08:50:36Z</time>
      </trkpt>
      <trkpt lat="45.69552" lon="3.22745">
        <ele>444.2664795</ele>
        <time>2011-05-22T08:50:40Z</time>
      </trkpt>
      <trkpt lat="45.69561" lon="3.22724">
        <ele>440.9018555</ele>
        <time>2011-05-22T08:50:42Z</time>
      </trkpt>
      <trkpt lat="45.69568" lon="3.22702">
        <ele>437.0565186</ele>
        <time>2011-05-22T08:50:44Z</time>
      </trkpt>
      <trkpt lat="45.69573" lon="3.22682">
        <ele>433.6918945</ele>
        <time>2011-05-22T08:50:46Z</time>
      </trkpt>
      <trkpt lat="45.69576" lon="3.22673">
        <ele>432.7307129</ele>
        <time>2011-05-22T08:50:47Z</time>
      </trkpt>
      <trkpt lat="45.69589" lon="3.22651">
        <ele>431.2885742</ele>
        <time>2011-05-22T08:50:52Z</time>
      </trkpt>
      <trkpt lat="45.69593" lon="3.22635">
        <ele>428.885376</ele>
        <time>2011-05-22T08:50:55Z</time>
      </trkpt>
      <trkpt lat="45.69589" lon="3.22611">
        <ele>425.520752</ele>
        <time>2011-05-22T08:50:58Z</time>
      </trkpt>
      <trkpt lat="45.69584" lon="3.22588">
        <ele>423.5980225</ele>
        <time>2011-05-22T08:51:02Z</time>
      </trkpt>
      <trkpt lat="45.69595" lon="3.22587">
        <ele>423.1174316</ele>
        <time>2011-05-22T08:51:05Z</time>
      </trkpt>
      <trkpt lat="45.696" lon="3.22588">
        <ele>423.5980225</ele>
        <time>2011-05-22T08:51:06Z</time>
      </trkpt>
      <trkpt lat="45.69618" lon="3.22598">
        <ele>426.0013428</ele>
        <time>2011-05-22T08:51:10Z</time>
      </trkpt>
      <trkpt lat="45.69629" lon="3.22611">
        <ele>426.9627686</ele>
        <time>2011-05-22T08:51:13Z</time>
      </trkpt>
      <trkpt lat="45.69632" lon="3.22617">
        <ele>426.9627686</ele>
        <time>2011-05-22T08:51:14Z</time>
      </trkpt>
      <trkpt lat="45.69644" lon="3.22641">
        <ele>427.9239502</ele>
        <time>2011-05-22T08:51:18Z</time>
      </trkpt>
      <trkpt lat="45.69646" lon="3.22647">
        <ele>427.9239502</ele>
        <time>2011-05-22T08:51:19Z</time>
      </trkpt>
      <trkpt lat="45.69656" lon="3.22652">
        <ele>427.9239502</ele>
        <time>2011-05-22T08:51:22Z</time>
      </trkpt>
      <trkpt lat="45.6966" lon="3.22648">
        <ele>426.4820557</ele>
        <time>2011-05-22T08:51:23Z</time>
      </trkpt>
      <trkpt lat="45.69663" lon="3.22641">
        <ele>425.0401611</ele>
        <time>2011-05-22T08:51:24Z</time>
      </trkpt>
      <trkpt lat="45.69664" lon="3.22623">
        <ele>422.1560059</ele>
        <time>2011-05-22T08:51:26Z</time>
      </trkpt>
      <trkpt lat="45.69662" lon="3.22606">
        <ele>420.7141113</ele>
        <time>2011-05-22T08:51:28Z</time>
      </trkpt>
      <trkpt lat="45.69661" lon="3.22558">
        <ele>416.8688965</ele>
        <time>2011-05-22T08:51:33Z</time>
      </trkpt>
      <trkpt lat="45.69661" lon="3.22528">
        <ele>412.5428467</ele>
        <time>2011-05-22T08:51:36Z</time>
      </trkpt>
      <trkpt lat="45.6966" lon="3.22509">
        <ele>411.581665</ele>
        <time>2011-05-22T08:51:38Z</time>
      </trkpt>
      <trkpt lat="45.69656" lon="3.2249">
        <ele>409.1783447</ele>
        <time>2011-05-22T08:51:40Z</time>
      </trkpt>
      <trkpt lat="45.69644" lon="3.22443">
        <ele>405.3330078</ele>
        <time>2011-05-22T08:51:45Z</time>
      </trkpt>
      <trkpt lat="45.69642" lon="3.22435">
        <ele>405.3330078</ele>
        <time>2011-05-22T08:51:46Z</time>
      </trkpt>
      <trkpt lat="45.69648" lon="3.2241">
        <ele>404.3717041</ele>
        <time>2011-05-22T08:51:50Z</time>
      </trkpt>
      <trkpt lat="45.69658" lon="3.22403">
        <ele>404.8522949</ele>
        <time>2011-05-22T08:51:52Z</time>
      </trkpt>
      <trkpt lat="45.69669" lon="3.22399">
        <ele>406.2943115</ele>
        <time>2011-05-22T08:51:54Z</time>
      </trkpt>
      <trkpt lat="45.69674" lon="3.22397">
        <ele>407.7363281</ele>
        <time>2011-05-22T08:51:55Z</time>
      </trkpt>
      <trkpt lat="45.69689" lon="3.22395">
        <ele>409.6590576</ele>
        <time>2011-05-22T08:51:58Z</time>
      </trkpt>
      <trkpt lat="45.69707" lon="3.22389">
        <ele>412.5428467</ele>
        <time>2011-05-22T08:52:02Z</time>
      </trkpt>
      <trkpt lat="45.69727" lon="3.22384">
        <ele>413.5042725</ele>
        <time>2011-05-22T08:52:06Z</time>
      </trkpt>
      <trkpt lat="45.69731" lon="3.22382">
        <ele>413.9848633</ele>
        <time>2011-05-22T08:52:07Z</time>
      </trkpt>
      <trkpt lat="45.6974" lon="3.22378">
        <ele>415.4268799</ele>
        <time>2011-05-22T08:52:09Z</time>
      </trkpt>
      <trkpt lat="45.69753" lon="3.22374">
        <ele>416.3881836</ele>
        <time>2011-05-22T08:52:12Z</time>
      </trkpt>
      <trkpt lat="45.69773" lon="3.22369">
        <ele>416.3881836</ele>
        <time>2011-05-22T08:52:17Z</time>
      </trkpt>
      <trkpt lat="45.69786" lon="3.22366">
        <ele>415.9074707</ele>
        <time>2011-05-22T08:52:20Z</time>
      </trkpt>
      <trkpt lat="45.69801" lon="3.22365">
        <ele>415.4268799</ele>
        <time>2011-05-22T08:52:23Z</time>
      </trkpt>
      <trkpt lat="45.6983" lon="3.22368">
        <ele>414.4654541</ele>
        <time>2011-05-22T08:52:28Z</time>
      </trkpt>
      <trkpt lat="45.69857" lon="3.22373">
        <ele>415.4268799</ele>
        <time>2011-05-22T08:52:33Z</time>
      </trkpt>
      <trkpt lat="45.69887" lon="3.2238">
        <ele>415.4268799</ele>
        <time>2011-05-22T08:52:39Z</time>
      </trkpt>
      <trkpt lat="45.69908" lon="3.22376">
        <ele>415.9074707</ele>
        <time>2011-05-22T08:52:44Z</time>
      </trkpt>
      <trkpt lat="45.69936" lon="3.2236">
        <ele>418.7915039</ele>
        <time>2011-05-22T08:52:52Z</time>
      </trkpt>
      <trkpt lat="45.69954" lon="3.22347">
        <ele>421.1948242</ele>
        <time>2011-05-22T08:52:59Z</time>
      </trkpt>
      <trkpt lat="45.69968" lon="3.22338">
        <ele>420.7141113</ele>
        <time>2011-05-22T08:53:04Z</time>
      </trkpt>
      <trkpt lat="45.69979" lon="3.22329">
        <ele>422.6367188</ele>
        <time>2011-05-22T08:53:09Z</time>
      </trkpt>
      <trkpt lat="45.69988" lon="3.22321">
        <ele>425.0401611</ele>
        <time>2011-05-22T08:53:14Z</time>
      </trkpt>
      <trkpt lat="45.69991" lon="3.22317">
        <ele>426.0013428</ele>
        <time>2011-05-22T08:53:16Z</time>
      </trkpt>
      <trkpt lat="45.69999" lon="3.22303">
        <ele>427.4433594</ele>
        <time>2011-05-22T08:53:22Z</time>
      </trkpt>
      <trkpt lat="45.70006" lon="3.22295">
        <ele>429.3659668</ele>
        <time>2011-05-22T08:53:26Z</time>
      </trkpt>
      <trkpt lat="45.70019" lon="3.22272">
        <ele>430.3272705</ele>
        <time>2011-05-22T08:53:34Z</time>
      </trkpt>
      <trkpt lat="45.70035" lon="3.22252">
        <ele>431.769165</ele>
        <time>2011-05-22T08:53:42Z</time>
      </trkpt>
      <trkpt lat="45.70057" lon="3.22229">
        <ele>434.1726074</ele>
        <time>2011-05-22T08:53:52Z</time>
      </trkpt>
      <trkpt lat="45.7008" lon="3.22209">
        <ele>437.5371094</ele>
        <time>2011-05-22T08:54:02Z</time>
      </trkpt>
      <trkpt lat="45.70087" lon="3.22204">
        <ele>438.4985352</ele>
        <time>2011-05-22T08:54:05Z</time>
      </trkpt>
      <trkpt lat="45.70105" lon="3.22201">
        <ele>439.4597168</ele>
        <time>2011-05-22T08:54:12Z</time>
      </trkpt>
      <trkpt lat="45.70126" lon="3.22213">
        <ele>441.8631592</ele>
        <time>2011-05-22T08:54:21Z</time>
      </trkpt>
      <trkpt lat="45.70129" lon="3.22215">
        <ele>442.3438721</ele>
        <time>2011-05-22T08:54:22Z</time>
      </trkpt>
      <trkpt lat="45.70142" lon="3.22224">
        <ele>445.2276611</ele>
        <time>2011-05-22T08:54:28Z</time>
      </trkpt>
      <trkpt lat="45.70154" lon="3.22231">
        <ele>447.1502686</ele>
        <time>2011-05-22T08:54:33Z</time>
      </trkpt>
      <trkpt lat="45.70172" lon="3.22235">
        <ele>450.5150146</ele>
        <time>2011-05-22T08:54:40Z</time>
      </trkpt>
      <trkpt lat="45.70201" lon="3.22233">
        <ele>451.9570313</ele>
        <time>2011-05-22T08:54:51Z</time>
      </trkpt>
      <trkpt lat="45.70224" lon="3.22243">
        <ele>453.3989258</ele>
        <time>2011-05-22T08:55:00Z</time>
      </trkpt>
      <trkpt lat="45.70244" lon="3.2225">
        <ele>454.3602295</ele>
        <time>2011-05-22T08:55:07Z</time>
      </trkpt>
      <trkpt lat="45.70277" lon="3.2226">
        <ele>456.282959</ele>
        <time>2011-05-22T08:55:17Z</time>
      </trkpt>
      <trkpt lat="45.70299" lon="3.22271">
        <ele>454.8408203</ele>
        <time>2011-05-22T08:55:24Z</time>
      </trkpt>
      <trkpt lat="45.70307" lon="3.22276">
        <ele>455.3215332</ele>
        <time>2011-05-22T08:55:26Z</time>
      </trkpt>
      <trkpt lat="45.70334" lon="3.22279">
        <ele>453.3989258</ele>
        <time>2011-05-22T08:55:31Z</time>
      </trkpt>
      <trkpt lat="45.7037" lon="3.22272">
        <ele>452.9182129</ele>
        <time>2011-05-22T08:55:37Z</time>
      </trkpt>
      <trkpt lat="45.70394" lon="3.2227">
        <ele>451.9570313</ele>
        <time>2011-05-22T08:55:41Z</time>
      </trkpt>
      <trkpt lat="45.70414" lon="3.22273">
        <ele>450.5150146</ele>
        <time>2011-05-22T08:55:44Z</time>
      </trkpt>
      <trkpt lat="45.70421" lon="3.22274">
        <ele>449.5537109</ele>
        <time>2011-05-22T08:55:45Z</time>
      </trkpt>
      <trkpt lat="45.70444" lon="3.22286">
        <ele>451.4763184</ele>
        <time>2011-05-22T08:55:49Z</time>
      </trkpt>
      <trkpt lat="45.70456" lon="3.22298">
        <ele>452.9182129</ele>
        <time>2011-05-22T08:55:52Z</time>
      </trkpt>
      <trkpt lat="45.70462" lon="3.22304">
        <ele>454.3602295</ele>
        <time>2011-05-22T08:55:54Z</time>
      </trkpt>
      <trkpt lat="45.70476" lon="3.2232">
        <ele>456.7635498</ele>
        <time>2011-05-22T08:55:59Z</time>
      </trkpt>
      <trkpt lat="45.70479" lon="3.22322">
        <ele>456.7635498</ele>
        <time>2011-05-22T08:56:00Z</time>
      </trkpt>
      <trkpt lat="45.70488" lon="3.2233">
        <ele>458.2055664</ele>
        <time>2011-05-22T08:56:03Z</time>
      </trkpt>
      <trkpt lat="45.70495" lon="3.22338">
        <ele>459.647583</ele>
        <time>2011-05-22T08:56:06Z</time>
      </trkpt>
      <trkpt lat="45.70501" lon="3.22341">
        <ele>459.647583</ele>
        <time>2011-05-22T08:56:10Z</time>
      </trkpt>
      <trkpt lat="45.70504" lon="3.2234">
        <ele>459.647583</ele>
        <time>2011-05-22T08:56:18Z</time>
      </trkpt>
      <trkpt lat="45.70508" lon="3.22334">
        <ele>457.2442627</ele>
        <time>2011-05-22T08:56:21Z</time>
      </trkpt>
      <trkpt lat="45.70509" lon="3.22331">
        <ele>457.7249756</ele>
        <time>2011-05-22T08:56:24Z</time>
      </trkpt>
      <trkpt lat="45.70509" lon="3.22324">
        <ele>456.7635498</ele>
        <time>2011-05-22T08:56:31Z</time>
      </trkpt>
      <trkpt lat="45.7051" lon="3.22313">
        <ele>454.8408203</ele>
        <time>2011-05-22T08:56:35Z</time>
      </trkpt>
      <trkpt lat="45.70512" lon="3.22298">
        <ele>453.3989258</ele>
        <time>2011-05-22T08:56:40Z</time>
      </trkpt>
      <trkpt lat="45.70514" lon="3.22294">
        <ele>453.3989258</ele>
        <time>2011-05-22T08:56:44Z</time>
      </trkpt>
      <trkpt lat="45.70517" lon="3.2229">
        <ele>452.4376221</ele>
        <time>2011-05-22T08:56:51Z</time>
      </trkpt>
      <trkpt lat="45.70519" lon="3.2229">
        <ele>451.9570313</ele>
        <time>2011-05-22T08:56:54Z</time>
      </trkpt>
      <trkpt lat="45.70522" lon="3.22289">
        <ele>450.5150146</ele>
        <time>2011-05-22T08:56:57Z</time>
      </trkpt>
      <trkpt lat="45.70529" lon="3.22285">
        <ele>450.0344238</ele>
        <time>2011-05-22T08:57:02Z</time>
      </trkpt>
      <trkpt lat="45.7053" lon="3.22282">
        <ele>450.0344238</ele>
        <time>2011-05-22T08:57:08Z</time>
      </trkpt>
      <trkpt lat="45.7053" lon="3.22281">
        <ele>449.5537109</ele>
        <time>2011-05-22T08:57:09Z</time>
      </trkpt>
      <trkpt lat="45.70532" lon="3.22272">
        <ele>447.6309814</ele>
        <time>2011-05-22T08:57:14Z</time>
      </trkpt>
      <trkpt lat="45.70533" lon="3.22269">
        <ele>447.6309814</ele>
        <time>2011-05-22T08:57:15Z</time>
      </trkpt>
      <trkpt lat="45.70533" lon="3.22265">
        <ele>447.6309814</ele>
        <time>2011-05-22T08:57:18Z</time>
      </trkpt>
      <trkpt lat="45.70533" lon="3.2226">
        <ele>447.6309814</ele>
        <time>2011-05-22T08:57:25Z</time>
      </trkpt>
      <trkpt lat="45.70531" lon="3.22257">
        <ele>447.6309814</ele>
        <time>2011-05-22T08:57:31Z</time>
      </trkpt>
      <trkpt lat="45.7053" lon="3.22255">
        <ele>446.6696777</ele>
        <time>2011-05-22T08:57:33Z</time>
      </trkpt>
      <trkpt lat="45.70526" lon="3.22249">
        <ele>445.2276611</ele>
        <time>2011-05-22T08:57:40Z</time>
      </trkpt>
      <trkpt lat="45.70526" lon="3.22243">
        <ele>443.7857666</ele>
        <time>2011-05-22T08:57:47Z</time>
      </trkpt>
      <trkpt lat="45.70526" lon="3.22235">
        <ele>442.3438721</ele>
        <time>2011-05-22T08:57:55Z</time>
      </trkpt>
      <trkpt lat="45.70527" lon="3.22229">
        <ele>441.3824463</ele>
        <time>2011-05-22T08:58:02Z</time>
      </trkpt>
      <trkpt lat="45.70528" lon="3.22222">
        <ele>440.9018555</ele>
        <time>2011-05-22T08:58:08Z</time>
      </trkpt>
      <trkpt lat="45.70527" lon="3.22216">
        <ele>439.4597168</ele>
        <time>2011-05-22T08:58:16Z</time>
      </trkpt>
      <trkpt lat="45.70527" lon="3.22209">
        <ele>438.0178223</ele>
        <time>2011-05-22T08:58:22Z</time>
      </trkpt>
      <trkpt lat="45.70526" lon="3.22204">
        <ele>436.0952148</ele>
        <time>2011-05-22T08:58:29Z</time>
      </trkpt>
      <trkpt lat="45.70526" lon="3.22199">
        <ele>435.1339111</ele>
        <time>2011-05-22T08:58:36Z</time>
      </trkpt>
      <trkpt lat="45.70525" lon="3.22194">
        <ele>434.1726074</ele>
        <time>2011-05-22T08:58:43Z</time>
      </trkpt>
      <trkpt lat="45.70525" lon="3.22191">
        <ele>433.2113037</ele>
        <time>2011-05-22T08:58:46Z</time>
      </trkpt>
      <trkpt lat="45.70523" lon="3.22186">
        <ele>432.7307129</ele>
        <time>2011-05-22T08:58:50Z</time>
      </trkpt>
      <trkpt lat="45.7052" lon="3.22179">
        <ele>431.769165</ele>
        <time>2011-05-22T08:58:59Z</time>
      </trkpt>
      <trkpt lat="45.7052" lon="3.22178">
        <ele>431.2885742</ele>
        <time>2011-05-22T08:59:01Z</time>
      </trkpt>
      <trkpt lat="45.70517" lon="3.22166">
        <ele>429.3659668</ele>
        <time>2011-05-22T08:59:05Z</time>
      </trkpt>
      <trkpt lat="45.70515" lon="3.22157">
        <ele>428.4046631</ele>
        <time>2011-05-22T08:59:08Z</time>
      </trkpt>
      <trkpt lat="45.70503" lon="3.22148">
        <ele>427.9239502</ele>
        <time>2011-05-22T08:59:13Z</time>
      </trkpt>
      <trkpt lat="45.70495" lon="3.22142">
        <ele>426.4820557</ele>
        <time>2011-05-22T08:59:16Z</time>
      </trkpt>
      <trkpt lat="45.7049" lon="3.22126">
        <ele>423.1174316</ele>
        <time>2011-05-22T08:59:21Z</time>
      </trkpt>
      <trkpt lat="45.70489" lon="3.22122">
        <ele>423.1174316</ele>
        <time>2011-05-22T08:59:22Z</time>
      </trkpt>
      <trkpt lat="45.70488" lon="3.22106">
        <ele>419.7528076</ele>
        <time>2011-05-22T08:59:27Z</time>
      </trkpt>
      <trkpt lat="45.70488" lon="3.22085">
        <ele>416.8688965</ele>
        <time>2011-05-22T08:59:34Z</time>
      </trkpt>
      <trkpt lat="45.70486" lon="3.22069">
        <ele>414.4654541</ele>
        <time>2011-05-22T08:59:39Z</time>
      </trkpt>
      <trkpt lat="45.70484" lon="3.2206">
        <ele>412.5428467</ele>
        <time>2011-05-22T08:59:43Z</time>
      </trkpt>
      <trkpt lat="45.70484" lon="3.22059">
        <ele>412.0622559</ele>
        <time>2011-05-22T08:59:47Z</time>
      </trkpt>
      <trkpt lat="45.70484" lon="3.22056">
        <ele>411.581665</ele>
        <time>2011-05-22T08:59:51Z</time>
      </trkpt>
      <trkpt lat="45.70488" lon="3.22051">
        <ele>410.6202393</ele>
        <time>2011-05-22T08:59:55Z</time>
      </trkpt>
      <trkpt lat="45.70493" lon="3.22053">
        <ele>410.1396484</ele>
        <time>2011-05-22T08:59:59Z</time>
      </trkpt>
      <trkpt lat="45.70501" lon="3.22047">
        <ele>409.1783447</ele>
        <time>2011-05-22T09:00:04Z</time>
      </trkpt>
      <trkpt lat="45.70517" lon="3.22036">
        <ele>405.8137207</ele>
        <time>2011-05-22T09:00:10Z</time>
      </trkpt>
      <trkpt lat="45.70532" lon="3.22024">
        <ele>401.9685059</ele>
        <time>2011-05-22T09:00:15Z</time>
      </trkpt>
      <trkpt lat="45.70541" lon="3.22018">
        <ele>398.1231689</ele>
        <time>2011-05-22T09:00:18Z</time>
      </trkpt>
      <trkpt lat="45.70556" lon="3.22011">
        <ele>393.7972412</ele>
        <time>2011-05-22T09:00:22Z</time>
      </trkpt>
      <trkpt lat="45.70569" lon="3.22006">
        <ele>390.4326172</ele>
        <time>2011-05-22T09:00:25Z</time>
      </trkpt>
      <trkpt lat="45.70584" lon="3.22001">
        <ele>388.0292969</ele>
        <time>2011-05-22T09:00:29Z</time>
      </trkpt>
      <trkpt lat="45.70598" lon="3.21995">
        <ele>385.1453857</ele>
        <time>2011-05-22T09:00:34Z</time>
      </trkpt>
      <trkpt lat="45.70604" lon="3.21992">
        <ele>384.184082</ele>
        <time>2011-05-22T09:00:36Z</time>
      </trkpt>
      <trkpt lat="45.70622" lon="3.21988">
        <ele>380.819458</ele>
        <time>2011-05-22T09:00:40Z</time>
      </trkpt>
      <trkpt lat="45.70633" lon="3.21985">
        <ele>377.454834</ele>
        <time>2011-05-22T09:00:42Z</time>
      </trkpt>
      <trkpt lat="45.70653" lon="3.21979">
        <ele>374.5708008</ele>
        <time>2011-05-22T09:00:45Z</time>
      </trkpt>
      <trkpt lat="45.70686" lon="3.21973">
        <ele>375.5321045</ele>
        <time>2011-05-22T09:00:51Z</time>
      </trkpt>
      <trkpt lat="45.70721" lon="3.21984">
        <ele>373.6094971</ele>
        <time>2011-05-22T09:00:57Z</time>
      </trkpt>
      <trkpt lat="45.7074" lon="3.21994">
        <ele>375.0515137</ele>
        <time>2011-05-22T09:01:01Z</time>
      </trkpt>
      <trkpt lat="45.7075" lon="3.21999">
        <ele>376.4935303</ele>
        <time>2011-05-22T09:01:04Z</time>
      </trkpt>
      <trkpt lat="45.7076" lon="3.22005">
        <ele>377.454834</ele>
        <time>2011-05-22T09:01:07Z</time>
      </trkpt>
      <trkpt lat="45.70768" lon="3.22011">
        <ele>377.9354248</ele>
        <time>2011-05-22T09:01:10Z</time>
      </trkpt>
      <trkpt lat="45.70777" lon="3.22023">
        <ele>378.4161377</ele>
        <time>2011-05-22T09:01:14Z</time>
      </trkpt>
      <trkpt lat="45.70787" lon="3.22038">
        <ele>380.3387451</ele>
        <time>2011-05-22T09:01:18Z</time>
      </trkpt>
      <trkpt lat="45.7079" lon="3.22045">
        <ele>381.7806396</ele>
        <time>2011-05-22T09:01:20Z</time>
      </trkpt>
      <trkpt lat="45.70792" lon="3.22048">
        <ele>382.7420654</ele>
        <time>2011-05-22T09:01:21Z</time>
      </trkpt>
      <trkpt lat="45.70797" lon="3.22056">
        <ele>383.2226563</ele>
        <time>2011-05-22T09:01:24Z</time>
      </trkpt>
      <trkpt lat="45.70805" lon="3.22068">
        <ele>383.7032471</ele>
        <time>2011-05-22T09:01:28Z</time>
      </trkpt>
      <trkpt lat="45.70814" lon="3.22076">
        <ele>383.2226563</ele>
        <time>2011-05-22T09:01:32Z</time>
      </trkpt>
      <trkpt lat="45.70838" lon="3.22091">
        <ele>380.819458</ele>
        <time>2011-05-22T09:01:39Z</time>
      </trkpt>
      <trkpt lat="45.70859" lon="3.22101">
        <ele>378.8968506</ele>
        <time>2011-05-22T09:01:44Z</time>
      </trkpt>
      <trkpt lat="45.70873" lon="3.22108">
        <ele>375.0515137</ele>
        <time>2011-05-22T09:01:47Z</time>
      </trkpt>
      <trkpt lat="45.70878" lon="3.22112">
        <ele>373.6094971</ele>
        <time>2011-05-22T09:01:48Z</time>
      </trkpt>
      <trkpt lat="45.70907" lon="3.2213">
        <ele>372.1674805</ele>
        <time>2011-05-22T09:01:53Z</time>
      </trkpt>
      <trkpt lat="45.70929" lon="3.22145">
        <ele>374.0900879</ele>
        <time>2011-05-22T09:01:57Z</time>
      </trkpt>
      <trkpt lat="45.70966" lon="3.22168">
        <ele>374.0900879</ele>
        <time>2011-05-22T09:02:04Z</time>
      </trkpt>
      <trkpt lat="45.70984" lon="3.22186">
        <ele>372.6481934</ele>
        <time>2011-05-22T09:02:08Z</time>
      </trkpt>
      <trkpt lat="45.71018" lon="3.22212">
        <ele>371.6868896</ele>
        <time>2011-05-22T09:02:15Z</time>
      </trkpt>
      <trkpt lat="45.71039" lon="3.22227">
        <ele>366.3995361</ele>
        <time>2011-05-22T09:02:18Z</time>
      </trkpt>
      <trkpt lat="45.71065" lon="3.22243">
        <ele>362.0737305</ele>
        <time>2011-05-22T09:02:21Z</time>
      </trkpt>
      <trkpt lat="45.71073" lon="3.22248">
        <ele>362.5543213</ele>
        <time>2011-05-22T09:02:22Z</time>
      </trkpt>
      <trkpt lat="45.7109" lon="3.22258">
        <ele>361.5931396</ele>
        <time>2011-05-22T09:02:24Z</time>
      </trkpt>
      <trkpt lat="45.71123" lon="3.22266">
        <ele>361.5931396</ele>
        <time>2011-05-22T09:02:28Z</time>
      </trkpt>
      <trkpt lat="45.71174" lon="3.22272">
        <ele>363.0350342</ele>
        <time>2011-05-22T09:02:35Z</time>
      </trkpt>
      <trkpt lat="45.71209" lon="3.22278">
        <ele>359.6704102</ele>
        <time>2011-05-22T09:02:40Z</time>
      </trkpt>
      <trkpt lat="45.71234" lon="3.22281">
        <ele>356.3057861</ele>
        <time>2011-05-22T09:02:43Z</time>
      </trkpt>
      <trkpt lat="45.71282" lon="3.22285">
        <ele>354.8637695</ele>
        <time>2011-05-22T09:02:49Z</time>
      </trkpt>
      <trkpt lat="45.71326" lon="3.22314">
        <ele>353.9025879</ele>
        <time>2011-05-22T09:02:56Z</time>
      </trkpt>
      <trkpt lat="45.71344" lon="3.22326">
        <ele>354.3831787</ele>
        <time>2011-05-22T09:02:59Z</time>
      </trkpt>
      <trkpt lat="45.7136" lon="3.22338">
        <ele>356.3057861</ele>
        <time>2011-05-22T09:03:02Z</time>
      </trkpt>
      <trkpt lat="45.71369" lon="3.22343">
        <ele>357.2670898</ele>
        <time>2011-05-22T09:03:04Z</time>
      </trkpt>
      <trkpt lat="45.7138" lon="3.22347">
        <ele>359.6704102</ele>
        <time>2011-05-22T09:03:07Z</time>
      </trkpt>
      <trkpt lat="45.71385" lon="3.22349">
        <ele>360.6317139</ele>
        <time>2011-05-22T09:03:10Z</time>
      </trkpt>
      <trkpt lat="45.71385" lon="3.22349">
        <ele>360.6317139</ele>
        <time>2011-05-22T09:03:13Z</time>
      </trkpt>
      <trkpt lat="45.71396" lon="3.22338">
        <ele>359.6704102</ele>
        <time>2011-05-22T09:03:18Z</time>
      </trkpt>
      <trkpt lat="45.71407" lon="3.22334">
        <ele>358.7089844</ele>
        <time>2011-05-22T09:03:21Z</time>
      </trkpt>
      <trkpt lat="45.71421" lon="3.22332">
        <ele>356.786377</ele>
        <time>2011-05-22T09:03:24Z</time>
      </trkpt>
      <trkpt lat="45.71437" lon="3.22329">
        <ele>353.9025879</ele>
        <time>2011-05-22T09:03:27Z</time>
      </trkpt>
      <trkpt lat="45.71442" lon="3.22328">
        <ele>353.421875</ele>
        <time>2011-05-22T09:03:28Z</time>
      </trkpt>
      <trkpt lat="45.71451" lon="3.22322">
        <ele>351.9798584</ele>
        <time>2011-05-22T09:03:30Z</time>
      </trkpt>
      <trkpt lat="45.71456" lon="3.22315">
        <ele>351.0184326</ele>
        <time>2011-05-22T09:03:32Z</time>
      </trkpt>
      <trkpt lat="45.71463" lon="3.22312">
        <ele>350.5378418</ele>
        <time>2011-05-22T09:03:36Z</time>
      </trkpt>
      <trkpt lat="45.71465" lon="3.2231">
        <ele>349.5765381</ele>
        <time>2011-05-22T09:03:37Z</time>
      </trkpt>
      <trkpt lat="45.71477" lon="3.22294">
        <ele>346.692627</ele>
        <time>2011-05-22T09:03:41Z</time>
      </trkpt>
      <trkpt lat="45.71481" lon="3.22288">
        <ele>345.7313232</ele>
        <time>2011-05-22T09:03:42Z</time>
      </trkpt>
      <trkpt lat="45.71491" lon="3.22271">
        <ele>344.2894287</ele>
        <time>2011-05-22T09:03:45Z</time>
      </trkpt>
      <trkpt lat="45.71504" lon="3.22258">
        <ele>343.3278809</ele>
        <time>2011-05-22T09:03:49Z</time>
      </trkpt>
      <trkpt lat="45.71511" lon="3.22253">
        <ele>343.3278809</ele>
        <time>2011-05-22T09:03:51Z</time>
      </trkpt>
    </trkseg>
  </trk>
</gpx>